     2.11           OBSERVATION DATA    G (GPS)             RINEX VERSION / TYPE
teqc 2010Oct21 OPUS Account 20111027 14:57:47UTC            PGM / RUN BY / DATE
Q 1524                                                      MARKER NAME
1219                                                        MARKER NUMBER
CSMIDDLETON NGS                                             OBSERVER / AGENCY
4624K01647 TRIMBLE NETR5 4.41                               REC # / TYPE / VERS
12694052 TRM41249.00 NONE                                   ANT # / TYPE
  -760253.7040 -5532823.4609  3070497.9200                  APPROX POSITION XYZ
        2.0040        0.0000        0.0000                  ANTENNA: DELTA H/E/N
     1     1                                                WAVELENGTH FACT L1/2
     5    L1    L2    C1    P1    P2                        # / TYPES OF OBSERV
    15                                                      LEAP SECONDS
  2011     8    14     0     0    0.0000000     GPS         TIME OF FIRST OBS
                                                            END OF HEADER
 11  8 14  0  0  0.0000000  0  8G04G02G28G09G10G12G05G17
 107866630.481 8  84052049.27446  20526320.000                    20526328.141
 109622318.699 8  85420094.68946  20860409.531                    20860414.930
 124400724.717 6  96935555.36843  23672657.438                    23672667.414
 118393109.167 7  92254287.50644  22529431.586                    22529441.793
 112391943.023 7  87578250.77345  21387457.492                    21387465.762
 119326992.788 7  92982110.952 7  22707166.055                    22707173.754
 124704238.170 7  97172194.561 6  23730420.195                    23730432.094
 117486077.340 8  91547694.881 7  22356852.227                    22356859.648
 11  8 14  0  0 30.0000000  0  8G04G02G28G09G10G12G05G17
 107921505.009 8  84094808.64546  20536762.219                    20536770.465
 109591727.119 8  85396257.13046  20854588.016                    20854593.664
 124495235.081 6  97009199.69943  23690642.953                    23690652.500
 118443897.611 7  92293862.89844  22539096.188                    22539106.598
 112338385.721 7  87536517.86545  21377265.586                    21377274.164
 119239071.095 7  92913600.572 7  22690434.563                    22690442.207
 124598811.339 7  97090044.059 6  23710357.680                    23710369.723
 117527657.887 7  91580095.292 7  22364765.047                    22364772.684
 11  8 14  0  1  0.0000000  0  8G04G02G28G09G10G12G05G17
 107976725.218 8  84137837.37346  20547270.359                    20547278.508
 109561499.526 8  85372703.20446  20848836.016                    20848841.313
 124590000.288 6  97083042.62643  23708675.742                    23708685.789
 118495142.931 7  92333794.26844  22548848.242                    22548858.188
 112285321.280 8  87495169.00345  21367167.477                    21367176.484
 119151355.535 7  92845250.811 7  22673742.891                    22673750.543
 124493420.027 7  97007921.230 6  23690301.672                    23690313.738
 117569341.827 7  91612576.259 7  22372697.234                    22372704.832
 11  8 14  0  1 30.0000000  0  8G04G02G28G09G10G12G05G17
 108032288.741 8  84181133.62546  20557843.633                    20557851.680
 109531635.678 8  85349432.71646  20843152.672                    20843158.523
 124685018.531 6  97157082.72043  23726757.609                    23726767.410
 118546842.456 7  92374079.58244  22558686.094                    22558695.836
 112232752.214 7  87454206.15845  21357164.086                    21357172.773
 119063848.366 7  92777063.429 7  22657090.383                    22657099.051
 124388067.587 7  96925828.692 6  23670254.078                    23670265.281
 117611130.198 7  91645138.608 7  22380649.141                    22380657.016
 11  8 14  0  2  0.0000000  0  8G04G02G28G09G10G12G05G17
 108088193.347 8  84224695.64746  20568481.992                    20568490.129
 109502135.063 8  85326445.26346  20837539.031                    20837545.105
 124780288.017 6  97231318.55543  23744887.289                    23744897.191
 118598993.515 7  92414716.70444  22568609.984                    22568619.680
 112180681.588 8  87413631.69145  21347255.430                    21347264.184
 118976552.121 7  92709040.373 7  22640478.453                    22640486.480
 124282756.726 7  96843768.552 6  23650213.891                    23650225.547
 117653023.837 7  91677782.982 7  22388621.078                    22388628.844
 11  8 14  0  2 30.0000000  0  8G04G02G28G09G10G12G05G17
 108144436.261 8  84268521.29246  20579184.586                    20579192.227
 109472997.130 8  85303740.42446  20831993.875                    20831999.973
 124875807.024 6  97305748.89143  23763064.422                    23763073.750
 118651592.948 7  92455703.20744  22578619.781                    22578629.211
 112129111.060 8  87373446.91245  21337441.945                    21337450.285
 118889469.327 7  92641183.676 7  22623907.445                    22623915.492
 124177490.065 7  96761742.851 6  23630181.727                    23630193.488
 117695022.888 7  91710509.487 7  22396613.594                    22396620.875
 11  8 14  0  3  0.0000000  0  8G04G02G28G09G10G12G05G17
 108201015.567 8  84312609.05346  20589951.484                    20589959.496
 109444221.970 8  85281318.26546  20826518.539                    20826523.883
 124971574.099 6  97380372.47743  23781287.516                    23781297.332
 118704638.070 7  92497037.00644  22588714.000                    22588723.691
 112078043.862 8  87333654.34345  21327724.008                    21327732.648
 118802603.112 7  92573495.727 7  22607377.297                    22607384.941
 124072270.768 7  96679754.073 6  23610158.438                    23610170.660
 117737128.274 7  91743318.857 7  22404626.070                    22404633.566
 11  8 14  0  3 30.0000000  0  8G04G02G28G09G10G12G05G17
 108257929.345 8  84356957.44546  20600781.883                    20600789.723
 109415809.262 8  85259178.53146  20821111.773                    20821117.215
 125067587.613 6  97455188.14143  23799558.195                    23799568.180
 118758126.355 7  92538716.12444  22598892.469                    22598902.070
 112027482.740 8  87294256.10845  21318102.453                    21318111.164
 118715955.865 7  92505978.400 6  22590889.125                    22590896.461
 123967101.947 7  96597804.640 6  23590145.148                    23590157.832
 117779340.823 7  91776211.729 7  22412658.125                    22412666.578
 11  8 14  0  4  0.0000000  0  8G04G02G28G09G10G12G05G17
 108315174.529 8  84401564.08546  20611675.289                    20611683.332
 109387758.141 8  85237320.55946  20815773.633                    20815779.281
 125163845.377 6  97530194.12243  23817875.758                    23817885.633
 118812054.334 7  92580737.83044  22609154.781                    22609164.277
 111977429.810 8  87255253.87345  21308578.055                    21308586.012
 118629529.664 7  92438633.311 7  22574442.375                    22574450.156
 123861986.082 6  96515896.469 6  23570142.742                    23570154.203
 117821660.581 7  91809188.130 7  22420711.859                    22420719.641
 11  8 14  0  4 30.0000000  0  8G04G02G28G09G10G12G05G17
 108372748.412 8  84446426.84946  20622631.375                    20622639.156
 109360068.010 8  85215743.87346  20810504.516                    20810510.164
 125260345.207 6  97605388.72642  23836238.125                    23836248.160
 118866418.692 7  92623099.61845  22619500.070                    22619509.898
 111927887.025 8  87216649.15445  21299150.375                    21299158.457
 118543326.969 7  92371462.415 7  22558038.594                    22558046.445
 123756925.892 7  96434031.672 6  23550150.031                    23550162.027
 117864088.060 7  91842248.481 7  22428785.508                    22428792.746
 11  8 14  0  5  0.0000000  0  8G04G02G28G09G10G12G05G17
 108430649.239 8  84491544.37946  20633649.297                    20633657.086
 109332738.634 8  85194448.30646  20805303.953                    20805309.539
 125357085.451 6  97680770.69142  23854647.273                    23854658.047
 118921216.564 7  92665799.17444  22629928.430                    22629937.977
 111878857.307 8  87178444.21945  21289820.336                    21289828.461
 118457351.031 7  92304468.194 7  22541677.938                    22541685.305
 123651924.113 7  96352212.380 6  23530168.703                    23530180.324
 117906623.800 7  91875393.186 7  22436879.570                    22436887.102
 11  8 14  0  5 30.0000000  0  8G04G02G28G09G10G12G05G17
 108488874.439 8  84536914.66546  20644729.289                    20644737.621
 109305769.561 8  85173433.48746  20800171.414                    20800177.293
 125454064.306 6  97756338.53442  23873102.688                    23873112.711
 118976445.220 7  92708834.42144  22640437.406                    22640448.090
 111830343.116 8  87140641.00145  21280588.070                    21280596.449
 118371603.748 7  92237652.162 7  22525360.438                    22525368.996
 123546984.028 7  96270441.136 6  23510198.938                    23510210.734
 117949268.515 7  91908622.817 7  22444994.609                    22445002.652
 11  8 14  0  6  0.0000000  0  8G04G02G28G09G10G12G05G17
 108547421.311 8  84582535.60646  20655870.117                    20655878.094
 109279159.806 8  85152698.64946  20795107.984                    20795113.707
 125551279.879 6  97832090.86142  23891601.734                    23891611.703
 119032101.412 6  92752202.80244  22651028.367                    22651038.402
 111782346.456 8  87103241.04745  21271454.469                    21271462.902
 118286087.553 7  92171016.217 7  22509087.617                    22509095.633
 123442108.144 7  96188719.934 6  23490241.539                    23490253.621
 117992022.463 7  91941937.562 7  22453130.414                    22453138.793
 11  8 14  0  6 30.0000000  0  8G04G02G28G09G10G12G05G17
 108606287.725 8  84628405.54346  20667072.297                    20667080.324
 109252909.508 8  85132243.91246  20790112.375                    20790118.387
 125648730.358 6  97908026.21743  23910146.227                    23910155.938
 119088181.863 7  92795901.77844  22661700.250                    22661710.680
 111734869.971 8  87066246.41845  21262420.531                    21262428.363
 118200805.517 7  92104562.707 7  22492859.148                    22492865.941
 123337299.687 7  96107051.273 6  23470296.891                    23470308.813
 118034886.251 7  91975337.912 7  22461287.469                    22461294.730
 11  8 14  0  7  0.0000000  0  8G04G02G28G09G10G12G05G17
 108665471.177 8  84674522.52146  20678334.547                    20678342.004
 109227017.852 8  85112068.63646  20785185.531                    20785191.410
 125746413.746 6  97984143.09443  23928734.883                    23928744.398
 119144683.678 7  92839929.07544  22672452.672                    22672462.590
 111687915.907 8  87029658.87845  21253485.133                    21253493.273
 118115759.921 7  92038293.450 7  22476675.313                    22476682.953
 123232561.450 7  96025437.300 6  23450366.008                    23450377.477
 118077860.514 7  92008824.331 7  22469465.148                    22469472.617
 11  8 14  0  7 30.0000000  0  8G04G02G28G09G10G12G05G17
 108724969.365 8  84720884.75346  20689656.406                    20689664.637
 109201484.482 8  85092172.54446  20780326.391                    20780332.398
 125844328.378 6  98060440.07543  23947368.313                    23947377.434
 119201604.249 6  92884282.68644  22683284.016                    22683293.895
 111641486.835 8  86993480.42346  21244649.797                    21244658.145
 118030953.244 7  91972210.380 7  22460536.758                    22460544.730
 123127896.387 7  95943880.353 6  23430448.648                    23430459.934
 118120945.846 7  92042397.308 7  22477664.344                    22477671.750
 11  8 14  0  8  0.0000000  0  8G04G02G28G09G10G12G05G17
 108784780.246 8  84767490.63846  20701038.250                    20701046.113
 109176309.000 8  85072555.31646  20775535.922                    20775541.727
 125942472.246 6  98136915.77443  23966043.539                    23966053.684
 119258940.432 7  92928960.15444  22694194.703                    22694204.762
 111595585.219 8  86957712.96845  21235915.109                    21235923.508
 117946388.220 7  91906315.595 7  22444444.773                    22444451.930
 123023307.715 7  95862382.918 6  23410546.195                    23410557.070
 118164142.936 7  92076057.368 7  22485884.133                    22485892.262
 11  8 14  0  8 30.0000000  0  8G04G02G28G09G10G12G05G17
 108844901.461 8  84814338.34046  20712478.836                    20712486.445
 109151491.140 8  85053216.75946  20770813.250                    20770819.012
 126040843.554 6  98213568.65743  23984762.906                    23984772.961
 119316689.161 7  92973959.09344  22705183.719                    22705194.023
 111550213.336 8  86922358.30145  21227281.320                    21227289.570
 117862067.631 7  91840611.278 7  22428398.633                    22428407.082
 122918798.169 7  95780947.132 6  23390658.805                    23390669.160
 118207452.502 7  92109805.070 7  22494125.789                    22494133.742
 11  8 14  0  9  0.0000000  0  8G04G02G28G09G10G12G05G17
 108905330.096 8  84861425.58246  20723977.836                    20723985.914
 109127029.586 8  85034155.84246  20766158.219                    20766163.969
 126139439.818 6  98290396.83343  24003525.477                    24003535.629
 119374847.042 7  93019276.83744  22716250.867                    22716261.539
 111505372.867 8  86887417.71145  21218748.297                    21218756.363
 117777993.732 7  91775099.207 7  22412399.664                    22412408.113
 122814370.124 7  95699574.844 6  23370786.727                    23370797.125
 118250874.933 7  92143640.725 7  22502388.742                    22502396.293
 11  8 14  0  9 30.0000000  0  8G04G02G28G09G10G12G05G17
 108966063.908 8  84908750.62546  20735535.102                    20735543.254
 109102923.902 8  85015372.22246  20761571.008                    20761576.855
 126238259.827 6  98367399.32943  24022330.641                    24022340.328
 119433411.153 7  93064911.16444  22727395.203                    22727406.051
 111461066.549 8  86852893.35045  21210317.188                    21210325.047
 117694169.131 7  91709781.364 7  22396449.117                    22396456.242
 122710026.500 7  95618268.348 6  23350930.055                    23350940.793
 118294410.680 7  92177564.650 7  22510673.547                    22510681.348
 11  8 14  0 10  0.0000000  0  8G04G02G28G09G10G12G05G17
 109027100.637 8  84956311.70746  20747150.148                    20747158.031
 109079174.012 8  84996865.83746  20757051.672                    20757057.375
 126337301.653 6  98444574.69743  24041176.672                    24041187.465
 119492378.374 7  93110859.56744  22738617.008                    22738626.988
 111417296.357 8  86818786.75345  21201987.898                    21201995.980
 117610596.341 7  91644659.748 7  22380545.281                    22380553.738
 122605771.013 7  95537030.531 6  23331090.563                    23331101.121
 118338060.278 7  92211577.308 7  22518979.672                    22518987.711
 11  8 14  0 10 30.0000000  0  8G04G02G28G09G10G12G05G17
 109088438.138 8  85004107.15146  20758821.898                    20758830.234
 109055779.130 8  84978636.08246  20752599.750                    20752605.234
 126436563.035 6  98521921.07843  24060067.219                    24060076.379
 119551745.605 7  93157119.68945  22749914.391                    22749923.984
 111374064.770 8  86785099.84845  21193761.258                    21193769.203
 117527278.169 7  91579736.551 7  22364690.570                    22364698.223
 122501606.315 7  95455863.457 6  23311268.422                    23311279.352
 118381824.473 7  92245679.280 7  22527307.219                    22527315.621
 11  8 14  0 11  0.0000000  0  8G04G02G28G09G10G12G05G17
 109150073.854 8  85052134.97846  20770551.445                    20770559.445
 109032738.974 8  84960682.72646  20748215.336                    20748220.898
 126536041.964 6  98599437.05243  24078995.633                    24079007.348
 119611509.770 7  93203689.07844  22761286.680                    22761297.000
 111331373.877 8  86751834.27046  21185637.055                    21185645.414
 117444217.330 7  91515013.855 7  22348884.922                    22348892.586
 122397535.215 7  95374769.302 6  23291464.555                    23291474.992
 118425703.989 7  92279871.092 7  22535657.688                    22535665.980
 11  8 14  0 11 30.0000000  0  8G04G02G28G09G10G12G05G17
 109212005.374 8  85100393.29246  20782336.133                    20782344.512
 109010052.588 8  84943005.04546  20743898.000                    20743903.844
 126635736.760 5  98677121.20543  24097967.469                    24097978.637
 119671667.622 7  93250565.24944  22772734.703                    22772744.383
 111289225.938 8  86718991.76446  21177616.531                    21177624.801
 117361416.209 7  91450493.548 7  22333127.984                    22333136.293
 122293560.690 7  95293750.398 6  23271678.477                    23271689.281
 118469699.321 7  92314153.138 7  22544029.430                    22544037.395
 11  8 14  0 12  0.0000000  0  8G04G02G28G09G10G12G05G17
 109274229.971 8  85148879.98146  20794177.688                    20794185.340
 108987718.983 8  84925602.24846  20739648.250                    20739653.871
 126735644.919 5  98754971.59242  24116980.289                    24116990.523
 119732215.887 7  93297745.65744  22784255.977                    22784266.770
 111247622.527 8  86686573.56145  21169700.070                    21169707.934
 117278877.051 7  91386177.369 7  22317421.430                    22317429.637
 122189685.431 7  95212808.847 7  23251911.578                    23251922.383
 118513810.761 7  92348525.674 7  22552423.414                    22552431.938
 11  8 14  0 12 30.0000000  0  8G04G02G28G09G10G12G05G17
 109336745.837 8  85197593.63346  20806073.727                    20806081.785
 108965737.993 8  84908474.23346  20735465.109                    20735470.758
 126835765.208 5  98832987.30942  24136032.508                    24136042.797
 119793151.863 6  93345228.16944  22795851.930                    22795861.840
 111206566.650 8  86654582.00545  21161886.898                    21161895.109
 117196602.709 7  91322067.537 7  22301764.820                    22301772.348
 122085912.715 7  95131947.193 7  23232164.039                    23232174.730
 118558039.077 7  92382989.259 7  22560840.164                    22560848.168
 11  8 14  0 13  0.0000000  0  8G04G02G28G09G10G12G05G17
 109399550.232 8  85246532.10746  20818024.922                    20818032.703
 108944109.065 8  84891620.53246  20731349.695                    20731355.324
 126936095.474 6  98911166.61943  24155124.508                    24155135.113
 119854472.030 7  93393010.02344  22807521.469                    22807531.320
 111166059.989 8  86623018.41145  21154178.516                    21154186.613
 117114595.841 7  91258166.126 7  22286159.477                    22286167.520
 121982245.229 7  95051167.547 7  23212436.648                    23212447.680
 118602384.778 7  92417544.314 7  22569278.953                    22569287.008
 11  8 14  0 13 30.0000000  0  8G04G02G28G09G10G12G05G17
 109462641.518 8  85295694.14046  20830030.789                    20830039.023
 108922832.005 8  84875041.01946  20727300.648                    20727306.160
 127036633.938 6  98989508.15342  24174256.219                    24174267.695
 119916173.793 7  93441089.27644  22819262.406                    22819273.336
 111126105.080 8  86591884.75046  21146575.453                    21146583.664
 117032859.252 7  91194475.347 7  22270605.594                    22270612.797
 121878686.652 7  94970472.758 7  23192730.258                    23192740.965
 118646848.969 7  92452191.704 7  22577740.336                    22577748.168
 11  8 14  0 14  0.0000000  0  8G04G02G28G09G10G12G05G17
 109526016.637 8  85345077.33246  20842090.930                    20842098.676
 108901905.610 8  84858734.75946  20723318.297                    20723324.184
 127137378.213 6  99068010.12742  24193427.242                    24193438.746
 119978253.178 7  93489462.75344  22831075.539                    22831086.434
 111086703.539 8  86561182.28245  21139077.438                    21139085.344
 116951395.453 7  91130997.113 7  22255103.414                    22255110.887
 121775239.134 7  94889864.506 6  23173044.508                    23173055.477
 118691432.043 7  92486931.728 7  22586223.836                    22586231.910
 11  8 14  0 14 30.0000000  0  8G04G02G28G09G10G12G05G17
 109589673.409 8  85394680.00346  20854204.633                    20854212.133
 108881329.384 8  84842701.35646  20719402.477                    20719408.613
 127238326.464 6  99146671.01643  24212636.828                    24212648.230
 120040707.287 7  93538128.23244  22842960.234                    22842971.234
 111047857.333 8  86530912.54246  21131685.531                    21131693.672
 116870206.656 7  91067733.174 7  22239653.766                    22239661.512
 121671905.881 7  94809345.288 7  23153381.016                    23153391.191
 118736134.542 7  92521764.809 7  22594730.859                    22594738.180
 11  8 14  0 15  0.0000000  0  8G04G02G28G09G10G12G05G17
 109653610.303 8  85444500.94546  20866371.008                    20866379.191
 108861103.085 8  84826940.62646  20715553.906                    20715559.410
 127339477.331 6  99225489.77143  24231886.078                    24231896.266
 120103533.455 6  93587083.60144  22854916.469                    22854926.375
 111009569.119 8  86501077.59545  21124399.273                    21124407.406
 116789296.362 7  91004686.245 7  22224256.852                    22224264.426
 121568690.511 7  94728917.929 7  23133738.875                    23133749.637
 118780957.374 7  92556691.658 7  22603260.906                    22603267.957
 11  8 14  0 15 30.0000000  0  8G04G02G28G09G10G12G05G17
 109717823.638 8  85494537.29246  20878590.648                    20878598.578
 108841225.171 8  84811451.37746  20711771.313                    20711776.805
 127440827.702 6  99304463.97643  24251172.375                    24251182.320
 120166727.537 7  93636325.68444  22866941.836                    22866952.008
 110971839.850 8  86471678.20446  21117219.688                    21117228.078
 116708666.463 7  90941857.810 7  22208913.719                    22208921.492
 121465595.027 7  94648583.971 7  23114120.617                    23114130.980
 118825900.372 7  92591712.139 7  22611812.477                    22611820.488
 11  8 14  0 16  0.0000000  0  8G04G02G28G09G10G12G05G17
 109782311.454 8  85544787.52246  20890862.211                    20890870.609
 108821695.282 8  84796233.29646  20708054.641                    20708060.488
 127542376.136 6  99383592.51943  24270496.406                    24270506.957
 120230286.629 7  93685852.16544  22879036.813                    22879047.016
 110934672.096 8  86442716.34046  21110147.000                    21110155.223
 116628319.131 7  90879249.552 7  22193624.148                    22193631.309
 121362622.659 7  94568345.947 6  23094525.781                    23094535.672
 118870964.341 7  92626826.883 7  22620388.125                    22620395.250
 11  8 14  0 16 30.0000000  0  8G04G02G28G09G10G12G05G17
 109847071.783 8  85595250.10546  20903185.633                    20903193.734
 108802513.336 8  84781286.35546  20704404.734                    20704410.340
 127644120.848 6  99462873.97943  24289857.828                    24289868.414
 120294207.910 7  93735660.89544  22891200.438                    22891210.836
 110898068.182 8  86414193.83546  21103181.688                    21103189.777
 116548257.499 7  90816863.907 7  22178388.500                    22178396.344
 121259776.694 7  94488206.405 6  23074954.563                    23074965.125
 118916150.088 7  92662036.530 7  22628987.039                    22628994.461
 11  8 14  0 17  0.0000000  0  8G04G02G28G09G10G12G05G17
 109912101.595 8  85645922.67146  20915560.445                    20915568.543
 108783677.621 8  84766609.20246  20700820.258                    20700826.145
 127746059.417 6  99542306.52743  24309255.820                    24309267.004
 120358487.462 7  93785748.79344  22903432.227                    22903443.129
 110862029.419 8  86386111.70746  21096323.289                    21096331.680
 116468483.827 7  90754702.656 7  22163208.336                    22163215.914
 121157059.448 7  94408167.161 7  23055408.086                    23055418.328
 118961457.888 7  92697341.273 7  22637608.930                    22637615.871
 11  8 14  0 17 30.0000000  0  7G04G02G09G10G12G05G17
 109977399.658 8  85696804.26646  20927986.250                    20927994.359
 108765188.384 8  84752202.02646  20697301.836                    20697307.469
 120423122.895 7  93836113.98444  22915732.102                    22915743.141
 110826558.577 8  86358472.11746  21089574.180                    21089581.949
 116389001.734 8  90692768.588 7  22148083.406                    22148090.457
 121054474.804 7  94328231.239 6  23035886.508                    23035896.594
 119006889.444 7  92732742.442 7  22646253.906                    22646261.586
 11  8 14  0 18  0.0000000  0  7G04G02G09G10G12G05G17
 110042962.838 8  85747892.44246  20940462.453                    20940470.813
 108747044.408 8  84738063.90346  20693849.203                    20693854.703
 120488110.325 7  93886753.46144  22928099.164                    22928109.813
 110791656.808 8  86331275.95546  21082931.789                    21082939.598
 116309812.680 7  90631062.869 7  22133013.789                    22133021.922
 120952025.295 7  94248400.603 6  23016391.141                    23016401.363
 119052444.605 7  92768239.947 7  22654922.656                    22654930.406
 11  8 14  0 18 30.0000000  0  7G04G02G09G10G12G05G17
 110108788.710 8  85799185.31946  20952988.695                    20952997.117
 108729244.896 8  84724194.17746  20690462.188                    20690467.770
 120553446.726 7  93937664.86944  22940532.234                    22940542.543
 110757325.925 8  86304524.64946  21076398.484                    21076407.109
 116230919.684 7  90569587.842 7  22118001.305                    22118008.324
 120849713.512 7  94168677.310 7  22996921.891                    22996931.918
 119098123.558 7  92803833.910 7  22663614.898                    22663622.965
 11  8 14  0 19  0.0000000  0  7G04G02G09G10G12G05G17
 110174874.933 8  85850681.06646  20965564.570                    20965572.977
 108711788.994 8  84710592.21646  20687140.242                    20687145.660
 120619128.429 7  93988845.34944  22953031.242                    22953041.648
 110723567.580 8  86278219.46846  21069975.148                    21069983.516
 116152325.017 8  90508345.258 7  22103044.852                    22103052.266
 120747542.503 7  94089063.699 7  22977478.969                    22977489.309
 119143927.027 7  92839524.893 7  22672331.555                    22672339.207
 11  8 14  0 19 30.0000000  0  7G04G02G09G10G12G05G17
 110241219.610 8  85902378.20546  20978189.625                    20978197.609
 108694676.433 8  84697257.78546  20683883.789                    20683889.387
 120685152.573 7  94040292.65444  22965594.977                    22965605.777
 110690383.958 7  86252362.14446  21063660.656                    21063668.871
 116074031.540 7  90447337.385 7  22088146.852                    22088154.445
 120645515.447 7  94009562.261 7  22958063.414                    22958073.867
 119189856.029 7  92875313.703 7  22681071.281                    22681079.027
 11  8 14  0 20  0.0000000  0  8G04G30G02G09G10G12G05G17
 110307820.129 8  85954274.69946  20990863.352                    20990871.348
 127086138.31415                  24183688.070
 108677906.556 8  84684190.39246  20680692.766                    20680698.383
 120751515.801 7  94092004.16444  22978224.133                    22978234.070
 110657776.741 8  86226953.95646  21057455.344                    21057463.504
 115996041.878 8  90386566.236 7  22073305.773                    22073313.309
 120543635.964 7  93930175.830 7  22938676.313                    22938687.086
 119235910.824 7  92911200.531 7  22689834.898                    22689843.184
 11  8 14  0 20 30.0000000  0  8G04G30G02G09G10G12G05G17
 110374674.118 8  86006368.70846  21003584.867                    21003592.992
 126981060.498 5                  24163693.211
 108661477.860 8  84671388.84346  20677566.180                    20677572.305
 120818214.229 7  94143976.89044  22990916.359                    22990926.828
 110625747.246 8  86201995.93346  21051360.367                    21051368.445
 115918358.479 7  90326033.729 7  22058523.016                    22058530.074
 120441905.836 7  93850905.755 7  22919318.375                    22919328.203
 119282092.076 7  92947185.901 7  22698623.156                    22698631.324
 11  8 14  0 21  0.0000000  0  8G04G30G02G09G10G12G05G17
 110441779.019 8  86058658.22446  21016354.383                    21016362.723
 126876153.282 5                  24143730.063
 108645389.594 8  84658852.56146  20674504.977                    20674510.523
 120885244.809 7  94196208.43644  23003671.758                    23003682.066
 110594297.373 8  86177489.57046  21045375.852                    21045384.180
 115840983.680 7  90265741.679 7  22043798.883                    22043806.293
 120340328.444 7  93771754.710 7  22899988.227                    22899998.223
 119328400.236 7  92983270.145 7  22707434.766                    22707443.957
 11  8 14  0 21 30.0000000  0  8G04G30G02G09G10G12G05G17
 110509132.306 8  86111141.29946  21029171.383                    21029179.539
 126771419.101 5                  24123800.242
 108629640.672 8  84646580.70146  20671508.102                    20671513.668
 120952603.977 7  94248696.02844  23016489.367                    23016500.434
 110563428.288 8  86153435.76846  21039501.281                    21039509.668
 115763919.820 8  90205691.938 7  22029134.055                    22029141.953
 120238906.615 7  93692724.878 7  22880688.320                    22880698.496
 119374835.727 7  93019453.612 7  22716271.531                    22716280.023
 11  8 14  0 22  0.0000000  0  8G04G30G02G09G10G12G05G17
 110576731.617 8  86163816.08546  21042035.406                    21042043.398
 126666860.67715                  24103902.477
 108614230.451 8  84634572.76446  20668575.492                    20668581.051
 121020288.622 7  94301437.21744  23029370.047                    23029380.379
 110533141.926 8  86129836.03846  21033737.914                    21033746.488
 115687169.649 8  90145886.629 7  22014528.773                    22014536.516
 120137643.135 7  93613818.442 7  22861417.844                    22861428.254
 119421399.417 7  93055736.973 7  22725132.586                    22725140.777
 11  8 14  0 22 30.0000000  0  8G04G30G02G09G10G12G05G17
 110644575.704 8  86216681.58846  21054945.383                    21054953.641
 126562481.705 5                  24084039.633
 108599159.106 8  84622828.88546  20665707.461                    20665712.832
 121088296.088 7  94354429.97344  23042311.227                    23042321.484
 110503440.778 8  86106692.31546  21028086.336                    21028094.289
 115610736.319 8  90086328.194 7  21999984.055                    21999991.695
 120036541.753 7  93535038.320 7  22842178.883                    22842188.730
 119468092.179 7  93092120.895 7  22734018.047                    22734025.945
 11  8 14  0 23  0.0000000  0  8G04G30G02G09G10G12G05G17
 110712661.591 8  86269735.51446  21067901.875                    21067909.656
 126458284.53615                  24064211.141
 108584425.526 8  84611348.19746  20662903.563                    20662909.340
 121156622.807 7  94407671.47444  23055313.102                    23055323.750
 110474325.911 8  86084005.43846  21022545.859                    21022554.211
 115534622.448 7  90027018.705 7  21985500.250                    21985507.930
 119935605.307 7  93456386.692 7  22822970.945                    22822980.949
 119514914.353 7  93128605.676 7  22742927.578                    22742936.250
 11  8 14  0 23 30.0000000  0  8G04G30G02G09G10G12G05G17
 110780986.713 8  86322975.85646  21080904.039                    21080912.016
 126354271.430 6  98457907.56352  24044418.391                    24044427.590
 108570027.965 8  84600129.34146  20660163.820                    20660169.523
 121225264.800 7  94461158.65144  23068375.859                    23068386.031
 110445798.877 7  86061776.62046  21017117.219                    21017125.645
 115458830.111 7  89967959.772 7  21971076.992                    21971084.324
 119834836.273 7  93377865.520 7  22803795.680                    22803805.211
 119561866.331 7  93165191.600 7  22751862.234                    22751870.816
 11  8 14  0 24  0.0000000  0  8G04G30G02G09G10G12G05G17
 110849549.204 8  86376401.16346  21093950.367                    21093958.496
 126250445.462 6  98377004.30242  24024661.188                    24024670.156
 108555966.106 8  84589172.07146  20657487.938                    20657493.465
 121294219.064 7  94514889.17044  23081497.641                    23081507.656
 110417861.297 7  86040007.10446  21011801.000                    21011809.066
 115383361.743 8  89909153.266 7  21956715.945                    21956723.648
 119734237.825 7  93299477.262 7  22784652.156                    22784661.648
 119608949.001 7  93201879.364 7  22760822.508                    22760830.582
 11  8 14  0 24 30.0000000  0  8G04G30G02G09G10G12G05G17
 110918346.950 8  86430009.77846  21107042.805                    21107050.371
 126146809.981 5  98296249.54342  24004938.750                    24004948.672
 108542239.987 8  84578476.40146  20654876.156                    20654881.578
 121363482.677 7  94568860.75244  23094677.742                    23094688.668
 110390515.346 8  86018698.61746  21006597.195                    21006605.445
 115308220.606 7  89850601.755 7  21942417.180                    21942424.902
 119633813.616 7  93221224.776 7  22765542.320                    22765551.398
 119656163.407 7  93238669.782 7  22769806.664                    22769815.027
 11  8 14  0 25  0.0000000  0  7G04G02G09G10G12G05G17
 110987377.435 8  86483799.76546  21120178.891                    21120186.992
 108528848.108 8  84568041.18446  20652327.398                    20652333.168
 121433051.820 7  94623070.38644  23107916.188                    23107927.273
 110363761.763 7  85997851.71246  21001505.938                    21001514.191
 115233409.022 7  89792307.049 7  21928181.148                    21928188.746
 119533566.058 7  93143109.936 7  22746466.102                    22746475.344
 119703509.784 7  93275563.033 7  22778816.297                    22778824.816
 11  8 14  0 25 30.0000000  0  8G04G30G02G09G10G12G05G17
 111056637.758 8  86537768.83646  21133358.492                    21133366.621
 125940121.07715                  23965606.797
 108515788.751 8  84557865.07746  20649842.516                    20649848.059
 121502922.652 7  94677515.14244  23121211.984                    23121223.219
 110337601.531 8  85977467.13946  20996527.594                    20996536.098
 115158928.948 7  89734270.646 7  21914007.961                    21914015.445
 119433498.014 7  93065134.974 7  22727423.313                    22727432.656
 119750988.348 7  93312559.268 7  22787851.750                    22787859.758
 11  8 14  0 26  0.0000000  0  8G04G30G02G09G10G12G05G17
 111126126.385 8  86591915.80846  21146581.867                    21146589.840
 125837071.576 6                  23945998.398
 108503062.013 8  84547948.15046  20647420.797                    20647426.047
 121573092.511 7  94732192.88344  23134565.023                    23134575.707
 110312037.110 8  85957546.84546  20991663.172                    20991671.246
 115084783.794 7  89676495.228 7  21899898.109                    21899906.574
 119333612.759 7  92987302.455 7  22708415.578                    22708425.223
 119798600.026 7  93349659.258 6  22796911.875                    22796919.496
 11  8 14  0 26 30.0000000  0  8G04G30G02G09G10G12G05G17
 111195841.313 8  86646239.12246  21159847.844                    21159856.148
 125734223.527 6  97974748.39952  23926425.539                    23926435.250
 108490667.473 8  84538290.07446  20645061.797                    20645067.563
 121643558.435 7  94787101.32744  23147974.500                    23147984.863
 110287070.433 8  85938092.32246  20986911.750                    20986919.957
 115010976.106 8  89618982.787 7  21885853.445                    21885860.988
 119233913.352 7  92909614.752 7  22689442.922                    22689452.590
 119846345.795 7  93386863.733 6  22805997.656                    22806005.344
 11  8 14  0 27  0.0000000  0  8G04G30G02G09G10G12G05G17
 111265779.957 8  86700736.76846  21173157.641                    21173165.094
 125631579.52115  97894766.10752  23906894.914                    23906903.414
 108478604.106 8  84528890.05846  20642766.570                    20642771.785
 121714316.896 7  94842237.73844  23161439.453                    23161450.281
 110262702.271 8  85919104.18146  20982274.508                    20982283.016
 114937508.272 8  89561735.144 7  21871872.898                    21871880.195
 119134402.658 7  92832074.095 7  22670506.953                    22670516.055
 119894226.104 7  93424173.011 6  22815108.766                    22815116.723
 11  8 14  0 27 30.0000000  0  8G04G30G02G09G10G12G05G17
 111335939.619 8  86755406.62846  21186508.141                    21186516.156
 125529141.93915  97814944.68552  23887399.969                    23887410.344
 108466870.114 8  84519746.68746  20640533.383                    20640539.063
 121785364.024 7  94897599.06744  23174959.930                    23174970.203
 110238933.613 8  85900583.17546  20977751.383                    20977759.758
 114864382.725 7  89504754.210 7  21857957.852                    21857965.328
 119035083.568 7  92754682.741 7  22651606.344                    22651616.160
 119942240.981 7  93461587.163 6  22824245.820                    22824253.590
 11  8 14  0 28  0.0000000  0  8G04G30G02G09G10G12G05G17
 111406318.415 8  86810247.25246  21199900.578                    21199908.867
 125426913.769 6  97735286.44142  23867947.055                    23867957.059
 108455464.898 8  84510859.50146  20638363.000                    20638368.926
 121856696.698 6  94953182.91344  23188534.430                    23188544.223
 110215765.922 8  85882530.45546  20973343.133                    20973351.160
 114791601.725 7  89448041.769 7  21844108.141                    21844115.809
 118935959.065 7  92677443.016 7  22632744.266                    22632754.148
 119990391.254 7  93499106.814 6  22833408.492                    22833416.336
 11  8 14  0 28 30.0000000  0  8G04G30G02G09G10G12G05G17
 111476913.661 8  86865256.52946  21213334.461                    21213342.551
 125324897.730 6  97655793.49043  23848534.617                    23848543.516
 108444387.458 8  84502227.73046  20636255.359                    20636260.891
 121928311.120 7  95008986.30744  23202161.281                    23202172.035
 110193200.488 7  85864947.03546  20969048.938                    20969057.141
 114719167.539 7  89391599.561 7  21830324.078                    21830331.535
 118837032.188 7  92600357.290 7  22613918.656                    22613928.133
 120038677.863 7  93536732.718 6  22842597.250                    22842605.289
 11  8 14  0 29  0.0000000  0  8G04G30G02G09G10G12G05G17
 111547723.720 8  86920433.20946  21226809.547                    21226817.199
 125223097.013 6  97576468.31742  23829161.688                    23829171.910
 108433637.703 8  84493851.29546  20634209.438                    20634215.059
 122000204.426 7  95065006.99144  23215842.805                    23215853.531
 110171239.004 8  85847834.21446  20964869.758                    20964877.863
 114647083.834 7  89335430.461 7  21816607.078                    21816614.512
 118738306.276 7  92523428.154 7  22595131.828                    22595141.082
 120087101.412 7  93574465.306 6  22851811.914                    22851819.660
 11  8 14  0 29 30.0000000  0  8G04G30G02G09G10G12G05G17
 111618746.305 8  86975775.48845  21240324.188                    21240331.828
 125121514.305 6  97497312.97342  23809831.641                    23809840.805
 108423214.040 8  84485728.95646  20632226.055                    20632231.559
 122072372.771 7  95121242.00344  23229575.492                    23229586.469
 110149882.646 8  85831192.91846  20960805.984                    20960814.164
 114575352.786 7  89279536.162 7  21802956.977                    21802964.273
 118639783.764 7  92446657.505 7  22576383.539                    22576393.070
 120135662.361 7  93612304.962 6  22861052.656                    22861060.488
 11  8 14  0 30  0.0000000  0  8G04G30G02G09G10G12G05G17
 111689979.038 8  87031281.51245  21253879.984                    21253887.074
 125020152.436 6  97418329.74542  23790542.617                    23790552.414
 108413115.937 8  84477860.30546  20630304.258                    20630309.949
 122144813.193 7  95177689.03144  23243360.250                    23243371.016
 110129132.848 7  85815024.26946  20956857.391                    20956865.445
 114503976.743 8  89223918.463 7  21789374.836                    21789381.836
 118541468.142 7  92370048.067 7  22557674.625                    22557683.594
 120184361.429 7  93650252.225 6  22870319.859                    22870328.270
 11  8 14  0 30 30.0000000  0  8G04G30G02G09G10G12G05G17
 111761419.722 7  87086949.58045  21267473.688                    21267481.988
 124919014.159 6  97339520.78143  23771297.016                    23771306.098
 108403342.483 8  84470244.63346  20628444.547                    20628450.281
 122217522.407 6  95234345.49344  23257196.141                    23257207.801
 110108990.461 8  85799328.92046  20953024.281                    20953031.844
 114432958.308 8  89168579.445 7  21775860.445                    21775867.641
 118443361.925 7  92293601.789 7  22539005.516                    22539014.383
 120233199.122 7  93688307.527 6  22879613.320                    22879621.223
 11  8 14  0 31  0.0000000  0  8G04G30G02G09G10G12G05G17
 111833065.480 8  87142777.44645  21281107.445                    21281115.484
 124818101.718 6  97260887.80243  23752094.070                    23752103.320
 108393891.777 8  84462880.43946  20626645.922                    20626651.773
 122290496.335 6  95291208.21044  23271083.492                    23271093.914
 110089456.174 8  85784107.42046  20949306.883                    20949314.918
 114362299.265 8  89113520.473 7  21762414.078                    21762421.777
 118345467.729 7  92217320.733 7  22520376.938                    22520385.820
 120282175.619 7  93726470.968 7  22888933.727                    22888941.859
 11  8 14  0 31 30.0000000  0  8G04G30G02G09G10G12G05G17
 111904914.602 8  87198763.76745  21294780.266                    21294788.012
 124717418.405 6  97182433.34143  23732934.695                    23732943.230
 108384763.600 8  84455767.58646  20624909.000                    20624914.582
 122363732.093 7  95348274.97944  23285019.586                    23285030.152
 110070531.665 8  85769361.06746  20945705.984                    20945713.805
 114292002.838 7  89058744.046 7  21749037.242                    21749044.148
 118247789.272 7  92141207.768 7  22501789.016                    22501797.688
 120331291.836 7  93764743.283 6  22898280.344                    22898288.059
 11  8 14  0 32  0.0000000  0  8G04G30G02G09G10G12G05G17
 111976965.507 8  87254907.32346  21308491.234                    21308499.020
 124616967.750 6  97104160.15043  23713818.914                    23713828.680
 108375957.863 8  84448905.97446  20623233.391                    20623239.063
 122437226.693 7  95405543.43644  23299005.125                    23299016.230
 110052218.900 8  85755091.40446  20942220.820                    20942228.680
 114222072.127 8  89004252.624 7  21735729.930                    21735737.023
 118150330.155 7  92065265.712 7  22483242.984                    22483251.848
 120380548.894 7  93803125.356 7  22907653.102                    22907661.543
 11  8 14  0 32 30.0000000  0  8G04G30G02G09G10G12G05G17
 112049215.158 8  87311205.75245  21322240.172                    21322247.445
 124516751.459 6  97026069.58843  23694748.195                    23694757.559
 108367472.120 8  84442293.70646  20621618.609                    20621624.352
 122510975.643 7  95463010.06844  23313038.977                    23313050.125
 110034517.703 8  85741298.28146  20938852.539                    20938860.621
 114152508.863 7  88950047.501 7  21722492.211                    21722499.719
 118053092.107 7  91989495.922 7  22464739.773                    22464748.047
 120429946.648 7  93841617.049 7  22917052.875                    22917061.793
 11  8 14  0 33  0.0000000  0  8G04G30G02G09G10G12G05G17
 112121661.713 8  87367657.60245  21336025.672                    21336033.609
 124416772.967 6  96948164.32843  23675723.477                    23675732.352
 108359306.254 8  84435930.71246  20620065.000                    20620070.582
 122584976.169 7  95520672.72944  23327121.352                    23327132.539
 110017429.697 8  85727982.96646  20935600.891                    20935608.375
 114083316.128 7  88896131.118 7  21709325.188                    21709332.844
 117956078.567 7  91913901.062 7  22446277.688                    22446287.148
 120479486.189 7  93880219.241 7  22926481.016                    22926489.016
 11  8 14  0 33 30.0000000  0  8G04G30G02G09G10G12G05G17
 112194302.940 8  87424261.13345  21349848.773                    21349857.191
 124317035.077 6  96870446.55343  23656742.766                    23656753.156
 108351459.418 8  84429816.30946  20618571.492                    20618577.270
 122659225.054 6  95578528.92344  23341250.133                    23341260.273
 110000956.234 8  85715146.51546  20932465.594                    20932473.355
 114014496.065 8  88842505.145 7  21696229.328                    21696236.672
 117859292.883 7  91838483.751 7  22427859.805                    22427869.027
 120529168.045 7  93918932.330 7  22935934.617                    22935943.629
 11  8 14  0 34  0.0000000  0  8G04G30G02G09G10G12G05G17
 112267136.613 8  87481014.63145  21363709.047                    21363717.031
 124217540.474 6  96792918.40043  23637810.070                    23637820.234
 108343930.110 8  84423949.34346  20617138.617                    20617144.309
 122733718.550 7  95636575.69344  23355426.016                    23355436.520
 109985098.112 8  85702789.55746  20929448.375                    20929456.273
 113946051.132 7  88789171.479 7  21683204.469                    21683212.047
 117762737.466 7  91763245.869 7  22409486.500                    22409495.059
 120578992.703 7  93957756.706 7  22945416.039                    22945424.305
 11  8 14  0 34 30.0000000  0  8G04G30G02G09G10G12G05G17
 112340160.228 8  87537916.12745  21377604.734                    21377612.828
 124118291.825 7  96715581.77843  23618924.508                    23618932.848
 108336717.230 8  84418328.93746  20615766.281                    20615771.746
 122808453.129 7  95694810.32544  23369646.758                    23369657.938
 109969855.948 8  85690912.56546  20926547.727                    20926555.328
 113877983.497 8  88736131.824 7  21670251.945                    21670259.195
 117666415.341 7  91688189.780 7  22391156.586                    22391165.535
 120628960.692 7  93996692.755 6  22954924.344                    22954933.020
 11  8 14  0 35  0.0000000  0  9G04G30G25G02G09G10G12G05G17
 112413371.795 8  87594964.07345  21391536.570                    21391545.180
 124019292.119 6  96638439.18943  23600084.859                    23600093.891
 128760032.62815 100332557.47615  24502223.148
 108329820.006 8  84412954.49846  20614453.469                    20614459.188
 122883425.630 7  95753230.35544  23383913.961                    23383925.305
 109955230.673 8  85679516.27046  20923764.469                    20923772.422
 113810295.736 7  88683388.181 7  21657371.219                    21657378.648
 117570329.329 7  91613317.671 7  22372871.711                    22372880.996
 120679072.636 7  94035740.998 7  22964460.961                    22964469.344
 11  8 14  0 35 30.0000000  0  9G04G30G25G02G09G10G12G05G17
 112486769.126 8  87652156.77645  21405503.445                    21405511.602
 123920543.996 6  96561492.69543  23581293.359                    23581303.414
 128657651.574 5 100252780.101 5  24482740.594
 108323237.486 8  84407825.28746  20613200.977                    20613206.074
 122958632.275 7  95811832.83844  23398226.000                    23398236.730
 109941223.654 8  85668601.73046  20921098.938                    20921107.129
 113742990.567 8  88630942.652 7  21644563.336                    21644570.656
 117474482.671 7  91538632.069 7  22354632.766                    22354642.168
 120729328.876 7  94074901.691 7  22974024.453                    22974032.930
 11  8 14  0 36  0.0000000  0  9G04G30G25G02G09G10G12G05G17
 112560349.678 8  87709492.24045  21419505.430                    21419513.539
 123822050.070 6  96484744.26043  23562550.383                    23562559.934
 128555394.633 5 100173099.371 4  24463280.719
 108316968.461 8  84402940.36146  20612008.078                    20612013.793
 123034069.490 6  95870614.94244  23412581.063                    23412592.582
 109927835.143 8  85658169.14746  20918551.422                    20918559.223
 113676069.923 7  88578796.761 7  21631828.633                    21631836.211
 117378878.078 7  91464135.096 7  22336439.828                    22336448.641
 120779729.694 7  94114175.030 6  22983615.461                    22983623.340
 11  8 14  0 36 30.0000000  0  9G04G30G25G02G09G10G12G05G17
 112634111.992 8  87766969.32245  21433542.242                    21433550.348
 123723813.835 6  96408196.64344  23543857.039                    23543866.543
 128453265.221 6 100093518.019 5  24443847.047
 108311012.275 8  84398299.20746  20610874.539                    20610880.035
 123109734.669 6  95929574.70843  23426979.305                    23426990.781
 109915066.547 8  85648219.61346  20916121.563                    20916130.043
 113609537.094 8  88526953.060 7  21619167.961                    21619175.270
 117283518.949 7  91389829.389 7  22318293.859                    22318302.320
 120830276.374 7  94153562.026 6  22993234.023                    22993241.824
 11  8 14  0 37  0.0000000  0  9G04G30G25G02G09G10G12G05G17
 112708053.967 8  87824586.41445  21447612.961                    21447620.809
 123625838.115 6  96331852.02643  23525212.727                    23525222.145
 128351265.774 6 100014037.943 5  24424436.844
 108305368.081 8  84393901.15646  20609800.422                    20609806.398
 123185624.154 6  95988709.22944  23441421.555                    23441432.016
 109902918.783 8  85638753.83546  20913810.242                    20913817.660
 113543394.284 8  88475413.274 7  21606581.266                    21606588.160
 117188408.295 7  91315717.300 7  22300194.383                    22300203.500
 120880969.512 7  94193063.144 6  23002880.531                    23002888.832
 11  8 14  0 37 30.0000000  0  9G04G30G25G02G09G10G12G05G17
 112782173.345 8  87882341.73245  21461717.430                    21461725.496
 123528125.738 6  96255712.63744  23506618.617                    23506628.488
 128249398.714 6  99934661.020 5  24405052.250                    24405064.566
 108300034.664 8  84389745.27646  20608785.383                    20608791.234
 123261734.528 6  96048015.90344  23455905.023                    23455915.949
 109891392.544 8  85629772.36346  20911616.523                    20911624.457
 113477644.119 8  88424179.440 7  21594069.078                    21594076.930
 117093548.670 7  91241800.820 7  22282142.945                    22282151.836
 120931809.754 7  94232678.914 7  23012554.688                    23012563.676
 11  8 14  0 38  0.0000000  0  9G04G30G25G02G09G10G12G05G17
 112856467.988 8  87940233.61845  21475854.867                    21475863.746
 123430679.397 6  96179780.53344  23488075.414                    23488084.465
 128147666.441 6  99855389.158 5  24385693.359                    24385705.313
 108295010.866 8  84385830.65046  20607829.555                    20607834.984
 123338062.431 6  96107492.05044  23470429.445                    23470440.844
 109880488.516 8  85621275.73846  20909541.344                    20909549.254
 113412289.143 8  88373253.532 7  21581632.898                    21581640.191
 116998943.394 7  91168082.529 7  22264140.391                    22264149.246
 120982797.479 7  94272409.600 6  23022257.711                    23022265.988
 11  8 14  0 38 30.0000000  0  9G04G30G25G02G09G10G12G05G17
 112930935.730 8  87998260.38045  21490025.555                    21490034.293
 123333501.901 6  96104057.91444  23469583.070                    23469592.215
 128046071.631 6  99776224.367 6  24366360.711                    24366372.441
 108290295.777 8  84382156.58046  20606932.180                    20606937.887
 123414604.213 6  96167134.86044  23484995.008                    23485006.434
 109870207.908 8  85613264.89446  20907584.984                    20907593.055
 113347331.420 8  88322637.164 7  21569271.609                    21569278.938
 116904595.488 7  91094564.793 7  22246186.594                    22246195.238
 121033933.468 7  94312255.804 6  23031988.391                    23031996.820
 11  8 14  0 39  0.0000000  0  9G04G30G25G02G09G10G12G05G17
 113005574.234 8  88056420.21845  21504228.875                    21504237.305
 123236595.995 6  96028546.91543  23451141.977                    23451151.273
 127944616.787 6  99697168.638 6  24347054.250                    24347066.227
 108285888.243 8  84378722.16146  20606093.563                    20606098.977
 123491356.442 7  96226941.66144  23499601.266                    23499611.859
 109860550.961 8  85605740.00446  20905747.836                    20905755.469
 113282773.385 8  88272332.234 7  21556986.734                    21556994.027
 116810507.285 7  91021249.418 7  22228281.922                    22228291.234
 121085218.229 7  94352217.942 6  23041748.102                    23041756.016
 11  8 14  0 39 30.0000000  0  9G04G30G25G02G09G10G12G05G17
 113080381.692 8  88114711.69345  21518464.492                    21518472.918
 123139964.946 6  95953250.10743  23432753.492                    23432762.844
 127843304.471 6  99618224.017 6  24327775.469                    24327787.512
 108281787.661 8  84375526.91846  20605313.047                    20605318.887
 123568315.879 7  96286909.92844  23514245.156                    23514256.844
 109851518.726 8  85598701.91846  20904028.766                    20904036.957
 113218617.686 8  88222340.815 7  21544778.109                    21544785.148
 116716682.262 7  90948139.120 7  22210427.344                    22210436.402
 121136652.423 7  94392296.517 6  23051535.414                    23051543.680
 11  8 14  0 40  0.0000000  0  9G04G30G25G02G09G10G12G05G17
 113155356.093 8  88173133.25645  21532731.516                    21532739.805
 123043611.426 6  95878169.53244  23414418.469                    23414427.551
 127742137.443 6  99539392.621 6  24308523.703                    24308535.914
 108277992.992 8  84372570.05146  20604591.203                    20604596.695
 123645479.349 7  96347037.16143  23528929.313                    23528940.508
 109843111.893 8  85592151.15346  20902428.836                    20902436.668
 113154866.760 8  88172664.781 7  21532646.563                    21532654.547
 116623123.449 7  90875236.256 7  22192624.016                    22192632.777
 121188236.333 7  94432491.740 6  23061352.000                    23061360.090
 11  8 14  0 40 30.0000000  0  9G04G30G25G02G09G10G12G05G17
 113230495.057 8  88231683.05645  21547030.445                    21547038.605
 122947538.085 6  95803307.30343  23396135.898                    23396145.582
 127641117.903 5  99460676.186 6  24289298.297                    24289312.426
 108274502.559 8  84369850.25046  20603927.148                    20603932.410
 123722843.163 6  96407320.53344  23543651.281                    23543663.035
 109835330.818 8  85586088.00346  20900948.352                    20900955.895
 113091522.884 8  88123305.939 7  21520593.367                    21520600.648
 116529833.627 7  90802542.997 7  22174871.070                    22174880.270
 121239970.531 7  94472804.071 6  23071196.438                    23071204.777
 11  8 14  0 41  0.0000000  0  9G04G30G25G02G09G10G12G05G17
 113305797.016 8  88290359.86545  21561359.172                    21561368.109
 122851748.306 6  95728666.00443  23377908.398                    23377916.746
 127540248.916 6  99382077.108 6  24270105.773                    24270117.766
 108271315.911 8  84367367.16446  20603320.664                    20603326.086
 123800404.223 7  96467757.62344  23558410.352                    23558422.188
 109828176.682 8  85580513.36046  20899587.172                    20899595.160
 113028588.873 8  88074266.451 7  21508616.555                    21508624.129
 116436816.063 7  90730061.882 7  22157170.813                    22157179.207
 121291856.026 7  94513234.277 6  23081069.789                    23081077.871
 11  8 14  0 41 30.0000000  0  9G04G30G25G02G09G10G12G05G17
 113381259.060 8  88349161.42645  21575719.773                    21575728.258
 122756243.959 6  95654247.13944  23359733.445                    23359743.184
 127439532.255 6  99303596.641 6  24250940.234                    24250951.758
 108268431.264 8  84365119.40046  20602771.391                    20602776.762
 123878158.402 7  96528345.17744  23573207.125                    23573217.785
 109821648.864 7  85575426.75646  20898344.875                    20898352.719
 112966066.195 8  88025547.492 7  21496719.078                    21496726.273
 116344072.971 7  90657794.639 7  22139522.195                    22139530.969
 121343892.598 7  94553782.220 6  23090971.781                    23090980.590
 11  8 14  0 42  0.0000000  0  9G04G30G25G02G09G10G12G05G17
 113456879.479 8  88408086.39345  21590110.023                    21590118.273
 122661028.474 6  95580053.34544  23341614.523                    23341624.332
 127338970.983 5  99225237.284 6  24231802.828                    24231815.969
 108265848.148 8  84363106.59446  20602280.203                    20602285.484
 123956102.808 6  96589080.95343  23588039.648                    23588050.570
 109815748.919 8  85570829.42046  20897222.227                    20897229.957
 112903957.711 8  87977151.250 7  21484900.133                    21484908.031
 116251607.516 7  90585743.735 7  22121926.523                    22121935.297
 121396081.305 7  94594448.697 6  23100903.430                    23100912.059
 11  8 14  0 42 30.0000000  0  9G04G30G25G02G09G10G12G05G17
 113532656.250 8  88467133.18945  21604529.773                    21604537.977
 122566104.610 6  95506086.78844  23323551.258                    23323560.488
 127238567.449 6  99147000.849 6  24212696.594                    24212709.777
 108263565.076 8  84361327.58446  20601845.211                    20601851.043
 124034233.632 7  96649961.99644  23602907.750                    23602918.754
 109810476.911 7  85566721.38346  20896218.727                    20896226.855
 112842266.116 7  87929079.874 7  21473160.758                    21473168.496
 116159422.802 7  90513911.595 7  22104384.430                    22104392.559
 121448422.704 7  94635234.151 7  23110864.000                    23110871.984
 11  8 14  0 43  0.0000000  0  9G04G30G25G02G09G10G12G05G17
 113608587.683 8  88526300.52145  21618978.648                    21618987.141
 122471475.451 6  95432349.87844  23305543.313                    23305553.563
 127138324.684 6  99068889.751 6  24193621.781                    24193633.336
 108261581.559 8  84359781.99346  20601468.063                    20601473.371
 124112547.943 7  96710986.00844  23617809.969                    23617821.566
 109805833.772 7  85563103.37046  20895335.094                    20895343.238
 112780993.639 8  87881335.076 7  21461501.445                    21461508.805
 116067521.694 7  90442300.440 7  22086895.984                    22086904.609
 121500917.444 7  94676139.080 6  23120852.922                    23120861.613
 11  8 14  0 43 30.0000000  0  9G04G30G25G02G09G10G12G05G17
 113684671.205 7  88585586.36445  21633457.297                    21633465.789
 122377143.487 6  95358844.50144  23287593.031                    23287602.402
 127038244.977 6  98990905.669 6  24174577.555                    24174589.098
 108259895.970 8  84358468.55446  20601147.453                    20601152.695
 124191041.838 6  96772149.98544  23632746.922                    23632758.719
 109801819.548 7  85559975.41846  20894571.492                    20894579.320
 112720142.177 8  87833918.344 7  21449921.617                    21449929.043
 115975906.913 7  90370912.400 7  22069461.969                    22069470.813
 121553565.833 7  94717163.737 7  23130871.914                    23130880.777
 11  8 14  0 44  0.0000000  0  9G04G30G25G02G09G10G12G05G17
 113760905.011 8  88644989.31245  21647964.164                    21647972.711
 122283111.714 6  95285573.05343  23269699.922                    23269708.934
 126938330.821 6  98913050.589 6  24155563.703                    24155575.945
 108258507.318 8  84357386.49246  20600883.102                    20600888.383
 124269712.004 7  96833451.30243  23647718.273                    23647728.770
 109798434.743 8  85557337.93046  20893926.977                    20893934.949
 112659714.454 7  87786831.800 7  21438422.398                    21438430.039
 115884581.479 7  90299749.821 7  22052083.492                    22052091.934
 121606368.514 7  94758308.630 6  23140920.016                    23140928.473
 11  8 14  0 44 30.0000000  0  9G04G30G25G02G09G10G12G05G17
 113837286.971 8  88704507.71045  21662499.063                    21662508.090
 122189382.944 6  95212537.72643  23251863.242                    23251872.293
 126838585.033 6  98835326.691 5  24136582.914                    24136594.586
 108257414.752 8  84356535.14846  20600675.180                    20600680.367
 124348555.347 6  96894887.55044  23662721.164                    23662732.738
 109795680.151 7  85555191.50746  20893402.766                    20893410.926
 112599712.798 7  87740077.250 7  21427004.469                    21427012.059
 115793548.205 7  90228814.902 7  22034760.977                    22034768.973
 121659326.106 7  94799574.231 7  23150997.656                    23151005.980
 11  8 14  0 45  0.0000000  0  9G04G30G25G02G09G10G12G05G17
 113913814.896 7  88764139.85445  21677061.875                    21677070.414
 122095959.875 6  95139740.61144  23234085.242                    23234094.801
 126739009.776 6  98757735.680 6  24117633.875                    24117646.379
 108256616.515 8  84355913.14846  20600523.664                    20600528.871
 124427568.038 6  96956455.77244  23677756.367                    23677768.320
 109793555.613 7  85553536.04646  20892998.883                    20893006.387
 112540139.204 7  87693656.269 7  21415668.055                    21415675.059
 115702810.021 7  90158109.912 7  22017493.289                    22017501.758
 121712438.982 7  94840960.814 6  23161104.367                    23161112.895
 11  8 14  0 45 30.0000000  0  9G04G30G25G02G09G10G12G05G17
 113990486.861 8  88823884.23345  21691652.016                    21691660.336
 122002845.410 6  95067183.97944  23216365.828                    23216374.961
 126639607.815 6  98680279.711 6  24098718.898                    24098730.230
 108256111.952 8  84355519.99246  20600427.273                    20600432.848
 124506747.077 7  97018153.61144  23692824.016                    23692835.938
 109792061.461 7  85552371.78646  20892714.484                    20892722.012
 112480996.217 7  87647570.832 7  21404413.258                    21404421.094
 115612369.910 7  90087637.193 7  22000282.758                    22000291.438
 121765707.671 7  94882468.831 7  23171241.234                    23171249.715
 11  8 14  0 46  0.0000000  0  9G04G30G25G02G09G10G12G05G17
 114067300.998 8  88883739.40345  21706269.352                    21706277.715
 121910042.597 6  94994870.19044  23198706.594                    23198715.426
 126540381.954 6  98602960.947 6  24079836.039                    24079847.973
 108255900.215 8  84355355.01046  20600386.953                    20600392.621
 124586088.982 7  97079978.36744  23707922.109                    23707933.973
 109791198.266 8  85551699.18346  20892550.273                    20892557.914
 112422286.359 7  87601822.898 7  21393241.523                    21393248.469
 115522230.734 7  90017398.967 7  21983130.508                    21983138.840
 121819133.077 7  94924098.960 7  23181407.625                    23181416.383
 11  8 14  0 46 30.0000000  0  9G04G30G25G02G09G10G12G05G17
 114144255.286 8  88943703.78245  21720913.344                    21720921.563
 121817553.971 6  94922801.21844  23181106.586                    23181115.086
 126441334.619 6  98525781.340 6  24060988.047                    24061000.059
 108255979.914 8  84355417.12046  20600402.047                    20600407.645
 124665590.334 6  97141927.35244  23723051.188                    23723062.930
 109790966.262 8  85551518.42246  20892506.031                    20892513.695
 112364011.711 7  87556414.093 7  21382152.023                    21382159.508
 115432395.374 7  89947397.473 7  21966034.781                    21966043.563
 121872715.441 7  94965851.421 7  23191603.828                    23191612.781
 11  8 14  0 47  0.0000000  0  9G04G30G25G02G09G10G12G05G17
 114221347.856 8  89003775.90545  21735583.273                    21735592.109
 121725382.609 6  94850979.46644  23163566.391                    23163576.059
 126342468.617 6  98448742.997 6  24042174.125                    24042186.418
 108256350.163 8  84355705.64146  20600472.227                    20600477.852
 124745247.596 7  97203997.84844  23738209.461                    23738221.180
 109791365.862 8  85551829.81746  20892581.664                    20892589.660
 112306174.813 7  87511346.399 7  21371146.313                    21371153.031
 115342866.893 7  89877635.120 7  21948997.961                    21949006.383
 121926455.541 7  95007726.779 6  23201830.242                    23201839.227
 11  8 14  0 47 30.0000000  0  9G04G30G25G02G09G10G12G05G17
 114298576.467 8  89063954.05945  21750279.727                    21750287.867
 121633531.366 6  94779407.15444  23146087.422                    23146097.285
 126243786.540 6  98371847.946 6  24023394.844                    24023407.270
 108257009.844 8  84356219.69146  20600598.016                    20600603.832
 124825057.596 7  97266187.35244  23753396.367                    23753408.418
 109792396.977 8  85552633.30346  20892777.875                    20892785.742
 112248777.822 7  87466621.479 7  21360223.867                    21360231.191
 115253648.004 7  89808113.997 7  21932020.281                    21932028.664
 121980353.691 7  95049725.311 6  23212086.961                    23212095.348
 11  8 14  0 48  0.0000000  0  9G04G30G25G02G09G10G12G05G17
 114375939.325 7  89124236.79645  21765001.281                    21765009.453
 121542002.944 6  94708086.35944  23128670.281                    23128679.508
 126145290.878 7  98295098.134 6  24004653.469                    24004664.203
 108257957.612 8  84356958.23246  20600778.039                    20600783.992
 124905016.830 7  97328493.11943  23768612.742                    23768624.293
 109794060.080 7  85553929.24546  20893094.375                    20893102.246
 112191822.958 7  87422241.093 7  21349385.688                    21349393.012
 115164741.276 7  89738836.109 7  21915101.945                    21915110.277
 122034410.579 7  95091847.539 7  23222373.508                    23222382.535
 11  8 14  0 48 30.0000000  0  9G04G30G25G02G09G10G12G05G17
 114453434.486 8  89184622.63745  21779748.180                    21779756.379
 121450800.210 6  94637019.35543  23111314.758                    23111323.703
 126046984.414 7  98218495.786 6  23985944.648                    23985957.098
 108259192.381 8  84357920.40946  20601013.227                    20601018.883
 124985121.915 6  97390912.56044  23783856.234                    23783868.430
 109796355.408 7  85555717.83646  20893531.359                    20893539.004
 112135312.422 7  87378206.913 7  21338631.969                    21338638.938
 115076149.824 7  89669803.909 7  21898243.477                    21898251.824
 122088626.608 7  95134093.792 6  23232691.008                    23232699.438
 11  8 14  0 49  0.0000000  0  9G04G30G25G02G09G10G12G05G17
 114531059.859 8  89245109.93145  21794519.758                    21794528.117
 121359926.006 6  94566208.34143  23094021.914                    23094030.852
 125948869.742 6  98142042.884 6  23967275.055                    23967286.711
 108260713.181 8  84359105.46446  20601302.414                    20601308.102
 125065369.438 7  97453443.00743  23799127.016                    23799138.891
 109799283.054 7  85557999.14146  20894088.227                    20894096.441
 112079248.425 7  87334520.699 7  21327963.281                    21327970.539
 114987876.804 7  89601019.812 7  21881445.500                    21881453.453
 122143002.307 7  95176464.456 6  23243038.242                    23243046.734
 11  8 14  0 49 30.0000000  0  9G04G30G25G02G09G10G12G05G17
 114608813.403 8  89305697.11145  21809315.656                    21809323.953
 121269382.885 6  94495655.33144  23076792.711                    23076800.934
 125850949.200 6  98065741.299 6  23948640.922                    23948653.027
 108262518.608 7  84360512.31546  20601646.188                    20601651.777
 125145755.801 7  97516081.64643  23814424.344                    23814436.039
 109802842.465 8  85560772.73546  20894765.828                    20894773.590
 112023633.093 8  87291184.102 7  21317379.977                    21317387.313
 114899924.262 7  89532485.449 7  21864708.617                    21864716.813
 122197538.478 7  95218960.162 6  23253415.500                    23253424.762
 11  8 14  0 50  0.0000000  0  9G04G30G25G02G09G10G12G05G17
 114686693.458 8  89366382.86545  21824136.078                    21824144.438
 121179174.106 7  94425362.77843  23059626.500                    23059634.797
 125753225.896 7  97989593.321 6  23930044.656                    23930055.969
 108264607.852 8  84362140.31146  20602043.914                    20602049.098
 125226278.080 6  97578826.19043  23829746.969                    23829758.691
 109807034.298 7  85564039.12346  20895563.320                    20895571.410
 111968468.889 7  87248199.021 7  21306882.539                    21306890.059
 114812295.700 7  89464203.530 7  21848033.523                    21848041.742
 122252235.104 7  95261580.897 6  23263823.891                    23263832.996
 11  8 14  0 50 30.0000000  0  9G04G30G25G02G09G10G12G05G17
 114764697.850 8  89427165.49545  21838979.703                    21838988.289
 121089302.036 6  94355332.62644  23042524.289                    23042533.117
 125655702.031 7  97913600.802 6  23911486.852                    23911498.324
 108266979.263 8  84363988.17346  20602494.898                    20602500.527
 125306932.543 7  97641673.72543  23845095.422                    23845107.238
 109811858.193 7  85567798.02246  20896481.766                    20896489.156
 111913758.228 8  87205567.352 7  21296471.453                    21296478.926
 114724993.737 7  89396176.101 7  21831420.023                    21831428.828
 122307092.896 7  95304327.234 6  23274262.813                    23274271.617
 11  8 14  0 51  0.0000000  0  9G04G30G25G02G09G10G12G05G17
 114842824.833 8  89488043.65245  21853846.695                    21853854.746
 120999769.867 7  94285567.35044  23025486.648                    23025495.859
 125558380.582 7  97837766.032 6  23892966.164                    23892978.223
 108269632.134 7  84366055.36246  20602999.773                    20603005.316
 125387715.925 7  97704621.72344  23860467.781                    23860479.684
 109817314.774 7  85572049.93346  20897519.703                    20897527.438
 111859502.881 8  87163290.469 7  21286147.063                    21286154.121
 114638021.260 7  89328405.427 7  21814870.023                    21814877.973
 122362112.516 7  95347199.662 6  23284733.680                    23284741.941
 11  8 14  0 51 30.0000000  0  9G04G30G25G02G09G10G12G05G17
 114921072.456 7  89549015.80645  21868736.508                    21868745.410
 120910580.249 7  94216068.96944  23008514.992                    23008523.258
 125461264.038 7  97762090.913 6  23874486.555                    23874497.383
 108272565.125 8  84368340.82546  20603557.844                    20603563.723
 125468624.821 6  97767667.49744  23875864.453                    23875875.707
 109823403.762 8  85576794.61746  20898678.367                    20898686.531
 111805705.034 8  87121370.082 7  21275909.859                    21275917.148
 114551381.009 7  89260893.618 7  21798382.617                    21798391.387
 122417294.328 7  95390198.477 6  23295234.008                    23295242.539
 11  8 14  0 52  0.0000000  0  9G04G30G25G02G09G10G12G05G17
 114999438.658 8  89610080.37245  21883649.344                    21883657.840
 120821736.055 7  94146839.75844  22991608.156                    22991617.066
 125364355.135 7  97686577.595 6  23856045.391                    23856056.266
 108275776.967 8  84370843.56446  20604169.156                    20604175.148
 125549655.821 6  97830808.44144  23891284.164                    23891295.953
 109830125.099 7  85582032.04846  20899957.531                    20899965.148
 111752366.943 8  87079807.944 7  21265759.695                    21265766.949
 114465075.755 7  89193642.842 7  21781959.203                    21781967.945
 122472638.795 7  95433324.029 6  23305765.875                    23305774.250
 11  8 14  0 52 30.0000000  0  9G04G30G25G02G09G10G12G05G17
 115077921.821 8  89671236.05545  21898584.086                    21898592.340
 120733240.025 7  94077881.84944  22974768.117                    22974776.688
 125267656.506 7  97611228.135 6  23837643.859                    23837654.715
 108279266.908 8  84373563.01246  20604833.344                    20604838.852
 125630805.631 7  97894041.95644  23906726.625                    23906738.672
 109837478.596 8  85587762.07646  20901356.758                    20901364.883
 111699490.848 8  87038605.805 7  21255697.844                    21255704.875
 114379108.199 7  89126655.224 7  21765600.266                    21765608.715
 122528146.620 7  95476576.855 6  23316328.617                    23316337.125
 11  8 14  0 53  0.0000000  0  9G04G30G25G02G09G10G12G05G17
 115156520.124 8  89732481.47145  21913541.211                    21913549.535
 120645095.195 7  94009197.59744  22957994.617                    22958003.219
 125171170.993 7  97536044.689 6  23819282.875                    23819293.664
 108283034.002 8  84376498.42246  20605550.094                    20605555.344
 125712071.065 7  97957365.55144  23922191.227                    23922202.719
 109845464.520 8  85593984.90846  20902876.359                    20902884.523
 111647079.177 8  86997765.556 7  21245724.352                    21245731.273
 114293481.540 7  89059933.216 7  21749305.805                    21749313.965
 122583818.167 7  95519957.267 6  23326922.852                    23326931.281
 11  8 14  0 53 30.0000000  0  9G04G30G25G02G09G10G12G05G17
 115235231.385 8  89793814.89445  21928519.352                    21928527.746
 120557304.054 7  93940788.98744  22941287.945                    22941297.176
 125074900.865 7  97461029.119 6  23800963.430                    23800974.426
 108287076.619 8  84379648.52846  20606319.523                    20606324.867
 125793448.595 7  98020776.50143  23937676.648                    23937688.824
 109854082.326 8  85600700.10146  20904516.250                    20904524.625
 111595133.838 8  86957288.679 7  21235839.594                    21235846.586
 114208198.251 8  88993478.772 7  21733076.969                    21733084.953
 122639653.981 7  95563465.676 6  23337548.273                    23337556.695
 11  8 14  0 54  0.0000000  0  9G04G30G25G02G09G10G12G05G17
 115314053.789 7  89855234.91845  21943518.852                    21943527.047
 120469869.240 7  93872658.01644  22924650.250                    22924658.832
 124978848.694 7  97386183.348 7  23782685.609                    23782696.273
 108291393.325 8  84383012.21146  20607140.789                    20607146.453
 125874934.750 7  98084272.10744  23953183.359                    23953195.246
 109863331.671 8  85607907.40746  20906276.414                    20906284.219
 111543656.535 8  86917176.509 7  21226043.781                    21226051.172
 114123261.047 7  88927294.013 7  21716913.938                    21716922.402
 122695654.336 7  95607102.308 6  23348204.664                    23348212.887
 11  8 14  0 54 30.0000000  0  9G04G30G25G02G09G10G12G05G17
 115392985.202 7  89916739.89345  21958538.664                    21958547.188
 120382793.499 6  93804806.85144  22908079.672                    22908088.805
 124883017.087 7  97311509.454 7  23764448.898                    23764460.371
 108295983.008 8  84386588.60446  20608014.328                    20608019.863
 125956525.839 6  98147849.46143  23968709.305                    23968721.344
 109873212.486 8  85615606.76546  20908156.523                    20908164.230
 111492649.435 8  86877430.722 7  21216337.078                    21216344.492
 114038672.416 7  88861380.867 7  21700816.930                    21700825.363
 122751819.676 7  95650867.503 6  23358892.094                    23358900.914
 11  8 14  0 55  0.0000000  0  9G04G30G25G02G09G10G12G05G17
 115472024.148 7  89978328.66245  21973579.477                    21973587.832
 120296079.950 7  93737237.93344  22891578.398                    22891587.133
 124787409.111 7  97237009.823 6  23746255.281                    23746266.445
 108300845.079 8  84390377.24746  20608939.398                    20608945.000
 126038219.143 7  98211506.47343  23984255.336                    23984267.086
 109883725.111 8  85623798.44146  20910156.844                    20910164.727
 111442115.075 8  86838053.307 7  21206720.797                    21206727.910
 113954435.600 7  88795741.861 7  21684787.461                    21684795.527
 122808150.812 7  95694761.866 6  23369612.016                    23369620.688
 11  8 14  0 55 30.0000000  0  9G04G30G25G02G09G10G12G05G17
 115551169.003 7  90039999.95445  21988640.328                    21988648.777
 120209731.527 6  93669953.49944  22875147.203                    22875156.012
 124692027.490 7  97162686.538 7  23728104.422                    23728115.945
 108305978.168 8  84394377.07046  20609916.086                    20609921.836
 126120011.461 6  98275240.63443  23999820.180                    23999832.039
 109894868.930 8  85632481.95446  20912277.531                    20912285.586
 111392055.708 8  86799046.014 7  21197195.023                    21197201.777
 113870553.495 7  88730379.251 7  21668824.547                    21668833.219
 122864647.895 7  95738785.533 6  23380363.188                    23380371.770
 11  8 14  0 56  0.0000000  0  9G04G30G25G02G09G10G12G05G17
 115630417.649 8  90101752.12045  22003721.023                    22003729.367
 120123750.621 7  93602955.47244  22858785.297                    22858794.715
 124596874.626 7  97088541.492 6  23709998.086                    23710009.359
 108311380.984 8  84398587.07246  20610944.047                    20610949.887
 126201899.114 6  98339049.10843  24015402.242                    24015414.586
 109906643.590 8  85641657.03146  20914518.016                    20914525.902
 111342472.830 8  86760410.012 7  21187759.305                    21187766.547
 113787028.529 7  88665294.927 7  21652930.492                    21652939.043
 122921311.738 7  95782939.164 7  23391145.492                    23391154.598
 11  8 14  0 56 30.0000000  0  9G04G30G25G02G09G10G12G05G17
 115709768.420 8  90163583.86145  22018820.820                    22018829.156
 120038140.272 7  93536246.15744  22842493.734                    22842502.906
 124501953.342 7  97014576.915 6  23691934.609                    23691945.988
 108317052.590 8  84403006.52746  20612023.906                    20612028.953
 126283878.887 6  98402929.34143  24031003.344                    24031015.453
 109919048.968 8  85651323.58646  20916878.703                    20916886.922
 111293368.790 8  86722147.138 7  21178415.258                    21178422.648
 113703863.675 7  88600491.217 7  21637104.820                    21637113.043
 122978142.819 7  95827223.107 7  23401959.570                    23401969.637
 11  8 14  0 57  0.0000000  0  9G04G30G25G02G09G10G12G05G17
 115789219.445 7  90225493.73545  22033939.750                    22033947.977
 119952903.225 7  93469827.78044  22826273.742                    22826282.738
 124407266.353 7  96940794.883 6  23673916.172                    23673927.445
 108322991.837 8  84407634.53146  20613153.953                    20613159.078
 126365947.567 6  98466878.90143  24046619.555                    24046632.203
 109932084.882 8  85661481.44946  20919359.344                    20919367.508
 111244745.834 7  86684259.132 7  21169162.141                    21169169.500
 113621061.666 8  88535970.233 7  21621348.484                    21621356.469
 123035141.757 6  95871637.854 6  23412806.195                    23412815.090
 11  8 14  0 57 30.0000000  0  9G04G30G25G02G09G10G12G05G17
 115868769.067 8  90287480.43845  22049077.625                    22049086.121
 119868042.106 7  93403702.30644  22810126.211                    22810133.984
 124312816.257 7  96867197.434 6  23655943.453                    23655954.340
 108329197.167 8  84412469.88146  20614334.617                    20614339.926
 126448101.767 6  98530895.06743  24062253.969                    24062265.203
 109945750.445 8  85672129.95846  20921960.219                    20921967.945
 111196605.789 8  86646747.422 7  21160001.539                    21160009.402
 113538625.161 8  88471734.076 7  21605661.047                    21605669.371
 123092308.525 6  95916183.376 7  23423685.297                    23423693.762
 11  8 14  0 58  0.0000000  0  9G04G30G25G02G09G10G12G05G17
 115948415.212 8  90349542.34845  22064233.875                    22064241.910
 119783559.598 7  93337871.85344  22794049.617                    22794057.707
 124218605.605 7  96793786.578 6  23638015.273                    23638026.848
 108335667.579 8  84417511.77846  20615565.805                    20615571.176
 126530338.009 6  98594975.16443  24077902.156                    24077914.559
 109960045.496 8  85683268.97946  20924680.078                    20924687.727
 111148950.506 7  86609613.460 7  21150933.367                    21150940.547
 113456556.442 7  88407784.491 7  21590044.055                    21590052.008
 123149643.723 7  95960860.155 7  23434595.836                    23434604.898
 11  8 14  0 58 30.0000000  0  9G04G30G25G02G09G10G12G05G17
 116028156.166 7  90411678.13445  22079408.523                    22079416.805
 119699458.482 7  93272338.58244  22778045.172                    22778053.520
 124124637.159 7  96720564.475 6  23620133.594                    23620145.016
 108342401.767 8  84422759.21846  20616847.281                    20616853.035
 126612652.954 6  98659116.60743  24093566.336                    24093579.398
 109974969.740 8  85694898.28146  20927520.391                    20927527.895
 111101781.908 8  86572858.721 7  21141957.438                    21141964.945
 113374858.244 8  88344123.616 7  21574497.500                    21574505.262
 123207147.804 6  96005668.524 6  23445538.172                    23445547.215
 11  8 14  0 59  0.0000000  0  9G04G30G25G02G09G10G12G05G17
 116107990.185 7  90473886.43845  22094600.211                    22094608.313
 119615741.390 7  93207104.57844  22762113.711                    22762123.270
 124030913.474 7  96647533.095 6  23602298.789                    23602309.656
 108349398.409 8  84428211.17646  20618178.500                    20618183.926
 126695043.419 6  98723316.89643  24109244.945                    24109257.508
 109990522.654 8  85707017.45046  20930480.289                    20930487.535
 111055101.933 8  86536484.750 7  21133074.305                    21133081.488
 113293533.507 8  88280753.763 7  21559021.484                    21559029.402
 123264820.978 6  96050608.660 6  23456513.094                    23456522.031
 11  8 14  0 59 30.0000000  0  9G04G30G25G02G09G10G12G05G17
 116187915.739 7  90536166.08345  22109809.102                    22109817.879
 119532411.259 7  93142172.07944  22746257.320                    22746265.559
 123937437.538 7  96574694.762 6  23584510.922                    23584522.031
 108356656.852 8  84433867.11446  20619559.984                    20619565.297
 126777506.291 6  98787573.57743  24124937.070                    24124949.609
 110006703.653 7  85719626.03946  20933559.039                    20933566.805
 111008913.006 8  86500493.403 7  21124285.156                    21124292.250
 113212584.991 8  88217677.063 7  21543617.727                    21543625.211
 123322663.964 7  96095681.124 6  23467520.789                    23467529.242
 11  8 14  1  0  0.0000000  0  9G04G30G25G02G09G10G12G05G17
 116267930.656 7  90598515.36645  22125035.633                    22125043.832
 119449470.698 7  93077543.15044  22730473.766                    22730482.574
 123844211.904 7  96502051.473 6  23566770.617                    23566781.746
 108364175.542 8  84439725.85146  20620990.688                    20620996.082
 126860037.935 6  98851883.88143  24140642.305                    24140655.008
 110023512.147 8  85732723.58046  20936757.797                    20936765.434
 110963216.889 8  86464886.083 7  21115589.578                    21115596.629
 113132015.433 8  88154895.659 7  21528285.586                    21528293.527
 123380677.383 7  96140886.371 6  23478560.297                    23478568.492
 11  8 14  1  0 30.0000000  0  9G04G30G25G02G09G10G12G05G17
 116348033.527 7  90660933.16745  22140278.672                    22140286.711
 119366922.597 7  93013220.02744  22714765.563                    22714773.957
 123751239.255 7  96429605.321 6  23549078.820                    23549089.488
 108371953.758 8  84445786.82246  20622470.727                    20622476.211
 126942635.427 6  98916245.44143  24156360.227                    24156373.461
 110040947.614 7  85746309.67446  20940075.188                    20940083.035
 110918015.565 8  86429664.297 7  21106988.164                    21106995.508
 113051827.412 7  88092411.558 7  21513025.945                    21513034.082
 123438861.362 7  96186224.553 6  23489631.703                    23489641.043
 11  8 14  1  1  0.0000000  0  9G04G30G25G02G09G10G12G05G17
 116428222.581 7  90723418.13445  22155538.031                    22155546.488
 119284769.399 7  92949204.59744  22699132.336                    22699140.422
 123658522.128 7  96357358.250 6  23531434.992                    23531445.711
 108379989.697 8  84452048.60546  20624000.055                    20624005.199
 127025295.227 6  98980655.58543  24172089.945                    24172103.516
 110059009.584 8  85760383.94946  20943512.063                    20943519.902
 110873310.770 8  86394829.446 7  21098481.031                    21098488.027
 112972023.326 7  88030226.611 7  21497839.828                    21497848.039
 123497216.229 7  96231695.885 6  23500736.219                    23500744.922
 11  8 14  1  1 30.0000000  0  9G04G30G25G02G09G10G12G05G17
 116508495.952 7  90785968.80245  22170813.492                    22170821.602
 119203013.870 6  92885499.04544  22683574.492                    22683582.855
 123566063.276 7  96285312.446 6  23513839.945                    23513851.215
 108388282.483 8  84458510.53046  20625578.188                    20625583.781
 127108014.235 6  99045111.81243  24187830.750                    24187843.848
 110077697.371 8  85774945.86746  20947068.594                    20947076.625
 110829104.498 8  86360383.043 7  21090068.578                    21090075.523
 112892605.940 7  87968342.999 7  21482727.070                    21482735.426
 123555742.559 7  96277300.802 6  23511873.680                    23511882.395
 11  8 14  1  2  0.0000000  0  9G04G30G25G02G09G10G12G05G17
 116588851.948 7  90848583.85145  22186104.945                    22186113.902
 119121658.728 7  92822105.47544  22668093.398                    22668102.031
 123473865.307 7  96213469.933 6  23496295.773                    23496306.867
 108396830.747 8  84465171.53146  20627204.859                    20627209.988
 127190788.993 6  99109611.49043  24203583.359                    24203595.305
 110097010.273 8  85789994.89646  20950743.633                    20950751.676
 110785398.620 8  86326326.556 7  21081751.484                    21081758.355
 112813577.820 7  87906762.714 7  21467688.531                    21467696.395
 123614440.736 7  96323039.644 6  23523043.773                    23523052.242
 11  8 14  1  2 30.0000000  0  9G04G30G25G02G09G10G12G05G17
 116669288.864 7  90911261.96845  22201411.289                    22201420.070
 119040706.643 7  92759025.99044  22652688.969                    22652697.301
 123381930.995 7  96141832.872 6  23478801.344                    23478812.238
 108405633.342 8  84472030.71246  20628879.813                    20628884.754
 127273616.369 6  99174152.14043  24219344.070                    24219356.527
 110116947.978 8  85805530.79146  20954537.859                    20954545.246
 110742195.029 8  86292661.465 7  21073530.289                    21073537.258
 112734941.727 8  87845487.899 7  21452724.227                    21452732.785
 123673311.235 7  96368912.770 6  23534246.406                    23534254.668
 11  8 14  1  3  0.0000000  0  9G04G30G25G02G09G10G12G05G17
 116749805.294 7  90974002.02845  22216733.617                    22216741.469
 118960160.473 7  92696262.79544  22637361.289                    22637369.676
 123290263.128 7  96070403.430 6  23461357.133                    23461368.461
 108414689.358 8  84479087.35446  20630603.211                    20630608.465
 127356493.114 6  99238731.23843  24235115.703                    24235128.156
 110137509.704 8  85821552.93146  20958450.727                    20958458.090
 110699495.660 8  86259389.264 7  21065404.727                    21065411.941
 112656700.221 7  87784520.557 7  21437835.672                    21437844.098
 123732354.424 7  96414920.435 6  23545482.297                    23545490.051
 11  8 14  1  3 30.0000000  0  9G04G30G25G02G09G10G12G05G17
 116830399.350 7  91036802.59445  22232069.719                    22232078.199
 118880022.672 7  92633817.78544  22622111.250                    22622119.008
 123198864.195 7  95999183.558 7  23443964.172                    23443975.707
 108423997.424 8  84486340.40046  20632374.156                    20632379.563
 127439415.739 6  99303346.04844  24250895.578                    24250907.973
 110158694.638 8  85838060.68446  20962482.102                    20962489.547
 110657301.998 8  86226511.132 7  21057375.516                    21057382.836
 112578855.867 8  87723862.683 7  21423022.422                    21423029.984
 123791570.826 7  96461063.076 6  23556750.266                    23556758.609
 11  8 14  1  4  0.0000000  0  9G04G30G25G02G09G10G12G05G17
 116911069.453 7  91099662.40945  22247420.563                    22247428.641
 118800296.101 7  92571693.22544  22606939.930                    22606947.965
 123107737.095 7  95928175.498 6  23426623.344                    23426635.445
 108433556.510 8  84493789.04046  20634193.156                    20634198.465
 127522381.345 6  99367994.33643  24266683.320                    24266695.941
 110180502.084 8  85855053.50846  20966631.625                    20966639.316
 110615616.183 8  86194028.709 7  21049442.711                    21049449.965
 112501411.134 7  87663516.194 7  21408285.016                    21408293.055
 123850960.708 7  96507340.905 6  23568051.859                    23568060.055
 11  8 14  1  4 30.0000000  0  9G04G30G25G02G09G10G12G05G17
 116991813.829 7  91162580.09144  22262785.750                    22262794.129
 118720983.173 7  92509890.99144  22591847.344                    22591855.176
 123016884.286 7  95857381.148 6  23409335.016                    23409345.777
 108443365.234 8  84501432.20946  20636059.945                    20636065.594
 127605386.534 6  99432673.44143  24282479.320                    24282491.688
 110202930.995 8  85872530.59246  20970899.680                    20970907.328
 110574440.046 8  86161943.440 7  21041607.414                    21041614.613
 112424368.736 8  87603483.226 7  21393624.414                    21393632.156
 123910524.492 7  96553754.223 6  23579386.797                    23579395.160
 11  8 14  1  5  0.0000000  0  9G04G30G25G02G09G10G12G05G17
 117072630.581 7  91225554.17544  22278164.313                    22278172.871
 118642086.378 7  92448413.00544  22576833.805                    22576842.160
 122926308.260 7  95786802.497 6  23392098.484                    23392109.570
 108453421.904 8  84509268.58246  20637973.633                    20637978.766
 127688427.960 7  99497380.76543  24298281.891                    24298294.387
 110225980.727 8  85890491.43846  20975286.242                    20975293.824
 110533775.058 8  86130256.455 7  21033868.859                    21033876.105
 112347731.072 8  87543765.623 7  21379040.563                    21379048.176
 123970262.572 7  96600303.377 6  23590754.305                    23590762.473
 11  8 14  1  5 30.0000000  0  9G04G30G25G02G09G10G12G05G17
 117153518.567 7  91288583.77144  22293557.641                    22293565.219
 118563609.075 7  92387261.92444  22561899.242                    22561908.082
 122836012.280 7  95716442.058 6  23374915.867                    23374926.879
 108463726.432 8  84517298.09046  20639934.352                    20639940.129
 127771502.743 6  99562114.09943  24314090.383                    24314103.293
 110249651.008 8  85908935.82046  20979790.438                    20979797.793
 110493623.576 8  86098969.602 7  21026228.422                    21026235.668
 112271501.071 8  87484365.676 7  21364534.617                    21364542.254
 124030175.209 6  96646988.542 6  23602154.945                    23602163.637
 11  8 14  1  6  0.0000000  0  9G04G30G25G02G09G10G12G05G17
 117234476.030 7  91351667.50045  22308963.109                    22308971.395
 118485553.385 7  92326439.37244  22547046.000                    22547054.074
 122745998.733 7  95646301.695 6  23357786.305                    23357798.078
 108474276.942 8  84525519.27046  20641942.219                    20641947.578
 127854607.307 6  99626870.59043  24329904.883                    24329918.168
 110273940.268 8  85927862.52746  20984412.125                    20984419.840
 110453986.984 8  86068083.962 7  21018686.031                    21018692.918
 112195680.930 8  87425285.106 7  21350106.148                    21350114.250
 124090262.798 6  96693810.023 6  23613589.805                    23613597.738
 11  8 14  1  6 30.0000000  0  9G04G30G25G02G09G10G12G05G17
 117315501.386 7  91414804.13045  22324381.516                    22324389.723
 118407922.076 7  92265947.44944  22532273.430                    22532281.375
 122656270.313 7  95576383.523 6  23340711.734                    23340723.152
 108485072.450 8  84533931.37046  20643996.523                    20644001.719
 127937738.635 6  99691647.94743  24345724.602                    24345737.566
 110298848.114 8  85947271.24146  20989152.195                    20989160.039
 110414866.964 8  86037600.840 7  21011241.305                    21011248.426
 112120273.400 8  87366526.048 7  21335756.945                    21335764.754
 124150526.024 6  96740768.361 6  23625056.500                    23625065.789
 11  8 14  1  7  0.0000000  0  9G04G30G25G02G09G10G12G05G17
 117396592.918 7  91477992.32044  22339812.781                    22339821.527
 118330717.571 7  92205788.11944  22517581.758                    22517589.707
 122566829.536 7  95506689.486 6  23323691.898                    23323703.332
 108496111.641 8  84542533.34446  20646097.281                    20646102.324
 128020893.572 6  99756443.64143  24361548.711                    24361561.391
 110324373.311 8  85967161.01346  20994009.563                    20994016.652
 110376264.973 8  86007521.371 7  21003895.461                    21003903.109
 112045280.562 8  87308090.127 7  21321485.758                    21321493.582
 124210964.883 7  96787863.546 6  23636558.484                    23636567.086
 11  8 14  1  7 30.0000000  0  9G04G30G25G02G09G10G12G05G17
 117477748.763 7  91541230.61645  22355256.602                    22355264.902
 118253942.361 7  92145963.35445  22502971.609                    22502980.355
 122477679.089 7  95437221.654 6  23306727.336                    23306738.246
 108507393.135 8  84551324.13246  20648244.063                    20648249.195
 128104068.797 6  99821255.18043  24377376.242                    24377389.051
 110350514.712 8  85987530.94546  20998983.602                    20998991.340
 110338183.161 8  85977847.230 7  20996649.242                    20996655.980
 111970705.031 8  87249979.372 7  21307295.133                    21307302.996
 124271579.887 6  96835096.009 6  23648092.641                    23648101.875
 11  8 14  1  8  0.0000000  0  9G04G30G25G02G09G10G12G05G17
 117558967.663 7  91604518.05745  22370711.570                    22370720.316
 118177599.247 7  92086475.28345  22488444.211                    22488453.066
 122388821.713 7  95367982.185 6  23289818.102                    23289829.012
 108518915.824 8  84560302.85946  20650436.805                    20650441.641
 128187261.258 6  99886080.16943  24393207.563                    24393220.180
 110377271.586 8  86008380.47146  21004075.641                    21004083.195
 110300623.350 8  85948579.845 7  20989502.000                    20989508.836
 111896549.319 8  87192195.758 7  21293183.281                    21293191.363
 124332371.150 6  96882465.803 6  23659661.578                    23659670.141
 11  8 14  1  8 30.0000000  0  9G04G30G25G02G09G10G12G05G17
 117640247.915 7  91667853.30945  22386179.391                    22386187.520
 118101690.720 7  92027325.79444  22473999.445                    22474007.117
 122300260.057 7  95298973.173 7  23272965.313                    23272976.328
 108530678.607 8  84569468.68046  20652674.953                    20652680.059
 128270467.806 6  99950916.16743  24409041.484                    24409054.340
 110404643.035 8  86029708.88346  21009284.164                    21009291.883
 110263586.643 8  85919720.069 7  20982453.828                    20982460.750
 111822815.980 8  87134741.260 7  21279152.156                    21279160.055
 124393339.081 6  96929973.291 6  23671263.320                    23671271.555
 11  8 14  1  9  0.0000000  0  9G04G30G25G02G09G10G12G05G17
 117721587.850 7  91731235.05645  22401657.750                    22401666.211
 118026219.166 7  91968516.78144  22459637.148                    22459645.949
 122211996.625 7  95230196.521 6  23256169.602                    23256180.285
 108542680.161 8  84578820.54746  20654959.023                    20654963.816
 128353684.962 6 100015760.39843  24424877.188                    24424889.680
 110432627.811 8  86051515.21145  21014609.391                    21014617.051
 110227074.662 8  85891269.172 7  20975505.500                    20975512.902
 111749507.333 8  87077617.685 7  21265202.133                    21265210.137
 124454484.106 6  96977618.750 6  23682898.398                    23682906.637
 11  8 14  1  9 30.0000000  0  9G04G30G25G02G09G10G12G05G17
 117802985.957 7  91794662.14945  22417146.805                    22417155.453
 117951187.427 7  91910050.54445  22445359.016                    22445368.480
 122124034.379 7  95161654.579 7  23239430.758                    23239441.172
 108554919.441 8  84588357.67446  20657287.992                    20657293.039
 128436909.906 6 100080610.73442  24440715.695                    24440727.652
 110461225.226 8  86073798.92146  21020051.141                    21020059.266
 110191089.370 8  85863228.676 7  20968658.117                    20968665.098
 111676626.015 8  87020827.107 7  21251332.898                    21251341.375
 124515806.561 6  97025402.461 6  23694568.094                    23694576.129
 11  8 14  1 10  0.0000000  0  9G04G30G25G02G09G10G12G05G17
 117884440.858 7  91858133.48644  22432647.266                    22432655.457
 117876598.031 7  91851928.98145  22431165.414                    22431174.605
 122036375.877 7  95093349.304 6  23222750.109                    23222760.629
 108567395.367 8  84598079.18846  20659661.781                    20659667.145
 128520139.297 6 100145464.57142  24456552.992                    24456566.406
 110490434.087 8  86096559.08846  21025609.594                    21025617.098
 110155632.273 8  85835599.765 7  20961910.695                    20961917.887
 111604174.136 8  86964371.145 7  21237546.570                    21237553.941
 124577306.748 6  97073324.672 6  23706271.008                    23706279.297
 11  8 14  1 10 30.0000000  0  9G04G30G25G02G09G10G12G05G17
 117965951.249 7  91921648.08344  22448158.117                    22448166.379
 117802453.732 7  91794154.20744  22417055.844                    22417064.414
 121949024.003 7  95025282.969 7  23206127.227                    23206138.258
 108580106.859 8  84607984.25646  20662080.961                    20662086.039
 128603370.27115 100210319.63952  24472391.109                    24472405.188
 110520253.272 8  86119794.83545  21031283.750                    21031291.480
 110120705.301 8  85808383.939 7  20955264.398                    20955271.520
 111532154.548 8  86908252.039 7  21223841.070                    21223848.590
 124638985.259 6  97121385.830 6  23718008.398                    23718016.891
 11  8 14  1 11  0.0000000  0  9G04G30G25G02G09G10G12G05G17
 118047514.804 7  91985204.09944  22463679.250                    22463687.660
 117728756.259 7  91736727.58244  22403031.867                    22403039.387
 121861980.795 7  94957457.159 6  23189563.328                    23189574.953
 108593051.967 8  84618071.37546  20664544.102                    20664549.113
 128686599.004 6 100275173.02543  24488229.227                    24488243.465
 110550681.089 8  86143504.84246  21037074.094                    21037081.953
 110086309.110 8  85781581.719 7  20948719.039                    20948726.273
 111460568.965 8  86852471.116 7  21210218.781                    21210226.379
 124700841.852 6  97169585.751 6  23729779.555                    23729787.828
 11  8 14  1 11 30.0000000  0  9G04G30G25G02G09G10G12G05G17
 118129130.265 7  92048800.57944  22479210.117                    22479218.441
 117655508.440 7  91679651.36345  22389093.492                    22389102.285
 121775249.029 7  94889874.017 6  23173058.602                    23173069.563
 108606229.685 8  84628339.74046  20667051.898                    20667056.961
 128769822.739 5 100340022.39542  24504065.422                    24504080.293
 110581716.608 7  86167688.38346  21042980.172                    21042987.781
 110052445.799 8  85755194.726 7  20942275.219                    20942282.188
 111389420.150 7  86797030.529 7  21196679.547                    21196687.203
 124762876.846 6  97217924.700 6  23741583.875                    23741592.051
 11  8 14  1 12  0.0000000  0  9G04G30G25G02G09G10G12G05G17
 118210796.274 7  92112436.46044  22494751.133                    22494758.840
 117582713.049 7  91622927.68345  22375241.531                    22375250.203
 121688831.723 7  94822535.908 6  23156614.188                    23156624.520
 108619639.223 8  84638788.73946  20669603.680                    20669609.000
 128853038.536 5 100404865.63342  24519901.961                    24519915.820
 110613358.986 8  86192344.79846  21049000.891                    21049009.016
 110019116.866 8  85729224.154 7  20935932.781                    20935939.988
 111318710.599 8  86741932.222 7  21183224.328                    21183231.668
 124825091.114 7  97266403.345 6  23753423.242                    23753431.219
 11  8 14  1 12 30.0000000  0  9G04G30G25G02G09G10G12G05G17
 118292511.667 7  92176110.80844  22510300.906                    22510308.820
 117510372.506 7  91566558.44745  22361474.797                    22361484.102
 121602731.414 7  94755444.816 6  23140229.523                    23140240.504
 108633279.245 8  84649417.33746  20672199.516                    20672204.371
 128936243.186 5 100469700.20943  24535734.703                    24535749.219
 110645606.769 8  86217472.96546  21055137.813                    21055145.590
 109986324.041 8  85703671.319 7  20929692.344                    20929699.715
 111248442.855 8  86687178.180 7  21169852.398                    21169860.172
 124887484.386 7  97315021.467 6  23765295.969                    23765304.590
 11  8 14  1 13  0.0000000  0  9G04G30G25G02G09G10G12G05G17
 118374274.592 7  92239822.20244  22525859.664                    22525868.184
 117438489.186 7  91510545.47844  22347795.375                    22347803.496
 121516950.780 7  94688602.806 6  23123906.313                    23123916.418
 108647148.685 8  84660224.70146  20674838.516                    20674843.887
 129019433.707 6 100534523.75343  24551567.000                    24551580.281
 110678458.973 8  86243072.10346  21061389.273                    21061396.785
 109954068.546 8  85678537.195 7  20923554.492                    20923561.359
 111178618.622 8  86632769.738 7  21156565.281                    21156572.941
 124950057.046 7  97363779.382 6  23777203.211                    23777211.641
 11  8 14  1 13 30.0000000  0  9G04G30G25G02G09G10G12G05G17
 118456083.386 7  92303569.33745  22541427.781                    22541435.770
 117367065.586 7  91454890.65844  22334205.008                    22334212.043
 121431492.290 7  94622011.818 7  23107644.859                    23107654.488
 108661246.050 8  84671209.66046  20677521.031                    20677526.527
 129102606.709 6 100599333.67543  24567393.711                    24567408.398
 110711914.111 8  86269141.06946  21067755.406                    21067762.930
 109922351.753 8  85653822.824 7  20917518.883                    20917526.109
 111109240.340 8  86578708.786 7  21143363.164                    21143370.793
 125012809.603 6  97412677.459 6  23789144.977                    23789152.691
 11  8 14  1 14  0.0000000  0  9G04G30G25G02G09G10G12G05G17
 118537937.092 7  92367351.46344  22557003.992                    22557012.047
 117296104.381 7  91399596.18545  22320701.805                    22320710.488
 121346358.871 7  94555674.141 6  23091443.016                    23091454.203
 108675570.729 8  84682371.75446  20680247.227                    20680252.398
 129185759.526 6 100664127.88043  24583218.344                    24583232.477
 110745971.147 8  86295679.05246  21074236.320                    21074244.008
 109891175.624 8  85629529.766 7  20911586.297                    20911593.047
 111040310.842 8  86524997.526 7  21130246.172                    21130253.813
 125075742.329 6  97461715.944 6  23801119.797                    23801128.668
 11  8 14  1 14 30.0000000  0  9G04G30G25G02G09G10G12G05G17
 118619833.903 7  92431167.17045  22572587.828                    22572596.367
 117225607.715 7  91344663.77345  22307285.813                    22307295.695
 121261552.868 7  94489591.574 7  23075305.211                    23075315.641
 108690120.735 8  84693709.43246  20683015.633                    20683021.113
 129268888.730 6 100728903.66843  24599037.219                    24599051.375
 110780628.790 8  86322685.02746  21080831.867                    21080839.512
 109860541.100 8  85605658.730 7  20905756.625                    20905763.867
 110971831.954 8  86471637.402 7  21117214.992                    21117222.863
 125138855.343 6  97510894.910 6  23813130.383                    23813138.656
 11  8 14  1 15  0.0000000  0  9G04G30G25G02G09G10G12G05G17
 118701772.463 7  92495015.39744  22588180.516                    22588188.895
 117155578.047 7  91290095.26545  22293959.922                    22293968.551
 121177077.038 7  94423766.304 7  23059230.141                    23059240.660
 108704895.138 8  84705221.95246  20685827.406                    20685832.297
 129351991.257 6 100793658.69844  24614850.961                    24614865.445
 110815885.549 8  86350157.84746  21087540.711                    21087548.477
 109830449.545 8  85582210.796 7  20900030.523                    20900037.742
 110903806.004 8  86418630.211 7  21104269.852                    21104277.594
 125202149.024 6  97560214.653 6  23825174.406                    23825183.574
 11  8 14  1 15 30.0000000  0  9G04G30G25G02G09G10G12G05G17
 118783751.507 7  92558895.18344  22603779.703                    22603788.902
 117086018.219 7  91235892.77745  22280723.109                    22280730.879
 121092934.252 7  94358200.544 7  23043218.711                    23043229.066
 108719893.376 8  84716908.90146  20688681.148                    20688686.609
 129435064.191 6 100858390.62744  24630659.453                    24630673.938
 110851740.443 8  86378096.74646  21094363.492                    21094371.121
 109800902.640 8  85559187.265 7  20894408.133                    20894414.961
 110836235.891 8  86365978.229 7  21091411.727                    21091419.777
 125265623.829 6  97609675.569 6  23837253.148                    23837262.133
 11  8 14  1 16  0.0000000  0  9G04G30G25G02G09G10G12G05G17
 118865769.514 7  92622805.31044  22619387.633                    22619396.309
 117016930.297 7  91182058.03445  22267576.133                    22267584.418
 121009126.927 7  94292896.186 7  23027270.078                    23027281.184
 108735113.678 8  84728768.87246  20691577.625                    20691582.555
 129518104.251 6 100923096.96944  24646461.805                    24646475.926
 110888191.637 8  86406500.29246  21101300.344                    21101308.039
 109771901.541 8  85536589.026 7  20888889.031                    20888896.461
 110769123.118 8  86313682.607 7  21078640.594                    21078648.160
 125329279.863 6  97659277.671 6  23849367.219                    23849375.633
 11  8 14  1 16 30.0000000  0  9G04G30G25G02G09G10G12G05G17
 118947824.926 7  92686744.60044  22635002.234                    22635011.148
 116948316.584 6  91128592.87945  22254519.148                    22254528.477
 120925657.645 7  94227855.220 7  23011386.281                    23011396.797
 108750555.019 8  84740801.09546  20694516.109                    20694521.379
 129601108.464 7 100987775.35044  24662257.094                    24662270.637
 110925237.889 8  86435367.51746  21108350.055                    21108357.477
 109743447.922 8  85514417.402 7  20883474.438                    20883481.695
 110702470.184 7  86261745.301 7  21065956.672                    21065964.492
 125393117.651 6  97709021.399 6  23861514.547                    23861522.945
 11  8 14  1 17  0.0000000  0  9G04G30G25G02G09G10G12G05G17
 119029916.643 7  92750712.15744  22650624.258                    22650632.500
 116880179.848 7  91075499.40745  22241553.383                    22241561.844
 120842529.299 7  94163079.905 7  22995568.109                    22995578.867
 108766216.546 8  84753004.88146  20697496.352                    20697501.406
 129684074.236 7 101052423.78844  24678045.289                    24678058.566
 110962877.935 8  86464697.45346  21115512.375                    21115519.957
 109715543.090 8  85492673.395 7  20878164.086                    20878171.047
 110636279.431 8  86210168.132 7  21053361.461                    21053368.992
 125457136.895 6  97758906.500 6  23873697.172                    23873705.652
 11  8 14  1 17 30.0000000  0  9G04G30G25G02G09G10G12G05G17
 119112042.992 7  92814706.72444  22666251.898                    22666260.332
 116812522.057 7  91022779.10345  22228678.469                    22228686.809
 120759744.162 7  94098572.027 7  22979814.359                    22979824.949
 108782096.835 8  84765379.13746  20700518.203                    20700523.375
 129766998.204 6 101117039.61644  24693824.914                    24693838.883
 111001110.100 8  86494488.76745  21122787.430                    21122795.445
 109688187.871 8  85471357.657 7  20872958.875                    20872966.020
 110570552.707 8  86158952.541 7  21040854.102                    21040861.551
 125521337.948 6  97808933.308 6  23885914.297                    23885922.813
 11  8 14  1 18  0.0000000  0  9G04G30G25G02G09G10G12G05G17
 119194202.692 7  92878727.25844  22681886.711                    22681894.414
 116745345.547 7  90970433.79445  22215894.602                    22215902.602
 120677304.869 7  94034333.663 7  22964126.758                    22964137.461
 108798194.543 8  84777922.81446  20703581.539                    20703586.539
 129849877.452 6 101181620.62343  24709597.195                    24709610.555
 111039932.801 8  86524740.23746  21130175.422                    21130183.004
 109661383.678 8  85450471.282 7  20867858.195                    20867865.516
 110505292.326 8  86108100.349 7  21028435.211                    21028442.945
 125585721.044 6  97859101.951 6  23898166.109                    23898174.973
 11  8 14  1 18 30.0000000  0  9G04G30G25G02G09G10G12G05G17
 119276394.304 7  92942772.67944  22697527.453                    22697535.406
 116678652.804 7  90918465.49145  22203203.273                    22203212.035
 120595214.128 7  93970366.871 6  22948505.445                    22948515.512
 108814508.266 8  84790634.80046  20706685.797                    20706691.227
 129932708.676 6 101246164.20843  24725359.008                    24725373.102
 111079344.611 8  86555450.75146  21137675.383                    21137682.914
 109635131.953 8  85430015.417 7  20862862.563                    20862869.535
 110440500.347 7  86057613.136 7  21016105.984                    21016113.078
 125650286.569 6  97909412.755 6  23910452.352                    23910461.434
 11  8 14  1 19  0.0000000  0  9G04G30G25G02G09G10G12G05G17
 119358616.553 7  93006841.95044  22713173.867                    22713182.164
 116612446.256 7  90866876.05945  22190605.328                    22190614.223
 120513474.686 7  93906673.800 6  22932950.172                    22932960.844
 108831037.480 8  84803514.72146  20709831.734                    20709836.527
 130015489.165 6 101310668.24544  24741112.148                    24741126.176
 111119344.285 8  86586619.34345  21145286.664                    21145294.699
 109609434.125 8  85409991.142 7  20857972.633                    20857979.832
 110376179.395 8  86007492.955 7  21003865.680                    21003873.223
 125715034.613 6  97959865.761 6  23922773.648                    23922782.352
 11  8 14  1 19 30.0000000  0  9G04G30G25G02G09G10G12G05G17
 119440868.220 7  93070934.15144  22728825.555                    22728833.887
 116546727.993 7  90815667.09045  22178099.375                    22178107.711
 120432088.868 7  93843256.290 6  22917463.359                    22917473.703
 108847780.583 8  84816561.30246  20713017.344                    20713022.699
 130098215.549 6 101375130.13243  24756854.539                    24756868.652
 111159929.817 8  86618244.45046  21153010.055                    21153017.766
 109584291.021 8  85390399.118 7  20853188.039                    20853195.164
 110312331.321 8  85957741.249 7  20991715.703                    20991723.551
 125779965.447 6  98010461.185 6  23935130.039                    23935138.762
 11  8 14  1 20  0.0000000  0  9G04G30G25G02G09G10G12G05G17
 119523147.765 7  93135048.06244  22744483.203                    22744490.996
 116481500.252 7  90764840.35044  22165686.781                    22165694.406
 120351059.313 7  93780116.392 7  22902044.250                    22902054.758
 108864736.450 8  84829773.66846  20716244.219                    20716249.359
 130180885.100 6 101439547.71743  24772586.219                    24772600.957
 111201099.703 8  86650324.88745  21160844.547                    21160852.102
 109559703.900 8  85371240.332 7  20848508.969                    20848515.945
 110248957.989 8  85908359.473 7  20979656.320                    20979663.742
 125845079.115 6  98061199.103 6  23947520.258                    23947528.719
 11  8 14  1 20 30.0000000  0  9G04G30G25G02G09G10G12G05G17
 119605453.960 7  93199182.74044  22760145.219                    22760153.543
 116416765.486 7  90714397.72945  22153367.375                    22153375.727
 120270388.724 7  93717256.209 7  22886692.953                    22886703.480
 108881904.084 8  84843151.05946  20719510.883                    20719516.246
 130263494.830 6 101503918.71443  24788304.516                    24788321.313
 111242852.870 7  86682859.84145  21168789.617                    21168797.355
 109535673.955 8  85352515.709 7  20843936.469                    20843943.617
 110186061.896 8  85859349.573 7  20967687.547                    20967694.902
 125910376.044 7  98112079.822 6  23959945.977                    23959954.676
 11  8 14  1 21  0.0000000  0  9G04G30G25G02G09G10G12G05G17
 119687785.455 7  93263337.11644  22775811.477                    22775820.840
 116352525.834 7  90664340.92645  22141143.625                    22141152.223
 120190079.616 7  93654677.703 7  22871410.563                    22871421.531
 108899282.207 8  84856692.46646  20722817.828                    20722823.305
 130346041.768 6 101568240.76143  24804014.156                    24804029.902
 111285187.127 8  86715847.58145  21176845.813                    21176853.504
 109512202.373 8  85334226.171 7  20839469.883                    20839476.832
 110123644.878 7  85810712.985 7  20955809.984                    20955817.680
 125975856.185 7  98163103.269 6  23972406.531                    23972415.125
 11  8 14  1 21 30.0000000  0  9G04G30G25G02G09G10G12G05G17
 119770140.814 7  93327510.08244  22791484.445                    22791492.977
 116288783.533 7  90614671.67345  22129014.273                    22129022.805
 120110134.476 7  93592382.836 7  22856197.602                    22856208.563
 108916869.382 8  84870396.77546  20726164.805                    20726170.059
 130428522.903 6 101632511.47442  24819710.336                    24819725.836
 111328100.939 8  86749286.92446  21185012.078                    21185019.605
 109489290.127 8  85316372.477 7  20835109.891                    20835116.738
 110061709.128 8  85762451.402 7  20944024.320                    20944031.637
 126041519.744 6  98214269.681 6  23984902.367                    23984910.590
 11  8 14  1 22  0.0000000  0  9G04G30G25G02G09G10G12G05G17
 119852518.781 7  93391700.64844  22807159.664                    22807168.504
 116225540.790 7  90565391.67345  22116978.945                    22116987.867
 120030555.912 7  93530373.556 7  22841054.000                    22841064.191
 108934664.676 8  84884263.25646  20729550.531                    20729556.117
 130510935.273 5 101696728.73142  24835392.633                    24835408.645
 111371592.648 8  86783176.57645  21193288.242                    21193295.875
 109466938.345 8  85298955.511 7  20830856.625                    20830863.621
 110000256.358 8  85714566.158 7  20932329.961                    20932337.430
 126107366.802 7  98265579.066 6  23997432.820                    23997440.703
 11  8 14  1 22 30.0000000  0  9G04G30G25G02G09G10G12G05G17
 119934918.137 7  93455907.90844  22822839.898                    22822848.465
 116162799.786 7  90516502.63945  22105039.648                    22105047.387
 119951346.503 7  93468651.968 7  22825980.977                    22825991.949
 108952667.130 8  84898291.16146  20732976.273                    20732982.328
 130593275.871 5 101760889.90342  24851060.875                    24851077.313
 111415660.334 7  86817515.04946  21201673.875                    21201681.430
 109445148.093 8  85281976.086 7  20826710.047                    20826717.117
 109939288.802 8  85667059.024 7  20920728.102                    20920735.449
 126173397.746 6  98317031.719 6  24009997.469                    24010005.977
 11  8 14  1 23  0.0000000  0  8G04G30G25G02G10G12G05G17
 120017338.162 7  93520131.27344  22838524.258                    22838532.785
 116100563.494 7  90468006.86045  22093197.125                    22093204.992
 119872509.426 7  93407220.538 7  22810978.297                    22810989.648
 108970876.179 8  84912480.03646  20736441.719                    20736447.086
 111460303.315 7  86852301.79445  21210168.977                    21210176.621
 109423921.351 8  85265435.777 7  20822670.422                    20822677.387
 109878808.991 8  85619931.937 7  20909219.289                    20909226.742
 126239613.553 6  98368628.427 6  24022597.500                    24022606.176
 11  8 14  1 23 30.0000000  0  8G04G30G25G02G10G12G05G17
 120099777.655 7  93584369.79244  22854212.297                    22854220.418
 116038833.972 7  90419905.98345  22081449.758                    22081458.691
 119794047.255 7  93346081.241 7  22796048.102                    22796058.477
 108989290.420 8  84926828.80746  20739945.773                    20739950.770
 111505519.860 7  86887535.47045  21218773.570                    21218781.387
 109403258.912 8  85249335.172 7  20818738.742                    20818745.762
 109818819.103 8  85573186.603 7  20897803.539                    20897811.184
 126306013.769 6  98420368.855 6  24035233.297                    24035241.793
 11  8 14  1 24  0.0000000  0  8G04G30G25G02G10G12G05G17
 120182234.340 7  93648621.73044  22869903.203                    22869911.340
 115977612.503 7  90372201.02445  22069799.742                    22069808.477
 119715961.529 7  93285235.270 6  22781189.109                    22781199.055
 109007907.747 8  84941335.82546  20743489.000                    20743493.941
 111551307.042 7  86923213.80545  21227486.859                    21227494.043
 109383160.905 8  85233674.384 7  20814914.328                    20814921.230
 109759319.925 8  85526823.644 7  20886480.852                    20886488.387
 126372598.134 6  98472252.755 6  24047903.680                    24047912.945
 11  8 14  1 24 30.0000000  0  8G04G30G25G02G10G12G05G17
 120264707.225 7  93712886.30544  22885597.594                    22885605.586
 115916901.317 7  90324893.63345  22058246.953                    22058254.797
 119638254.944 7  93224684.719 7  22766401.820                    22766412.309
 109026727.216 8  84956000.36346  20747069.570                    20747074.672
 111597663.284 8  86959335.57045  21236308.063                    21236315.219
 109363628.471 8  85218454.315 7  20811197.430                    20811204.465
 109700314.027 8  85480845.063 8  20875252.484                    20875260.531
 126439366.497 6  98524280.057 6  24060610.023                    24060618.066
 11  8 14  1 25  0.0000000  0  8G04G30G25G02G10G12G05G17
 120347194.949 7  93777162.44844  22901294.094                    22901302.184
 115856702.587 7  90277985.54545  22046791.492                    22046799.141
 119560929.978 7  93164431.597 7  22751687.203                    22751698.172
 109045747.280 8  84970821.20446  20750689.109                    20750694.324
 111644586.860 8  86995899.40545  21245236.953                    21245244.527
 109344662.359 8  85203675.525 7  20807588.039                    20807594.988
 109641802.978 8  85435252.074 7  20864118.344                    20864125.902
 126506319.196 6  98576450.962 6  24073350.227                    24073359.297
 11  8 14  1 25 30.0000000  0  8G04G30G25G02G10G12G05G17
 120429696.630 7  93841449.46644  22916993.852                    22917001.727
 115797018.628 7  90231478.62945  22035433.727                    22035442.324
 119483989.523 8  93104478.092 7  22737046.055                    22737057.152
 109064967.968 8  84985798.37846  20754346.492                    20754351.797
 111692076.238 8  87032904.13145  21254273.945                    21254281.492
 109326263.837 8  85189339.023 7  20804087.133                    20804093.848
 109583788.791 8  85390046.254 8  20853078.391                    20853086.078
 126573456.674 6  98628765.858 6  24086126.094                    24086134.586
 11  8 14  1 26  0.0000000  0  8G04G30G25G02G10G12G05G17
 120512210.971 7  93905746.35344  22932695.961                    22932703.805
 115737851.348 7  90185374.29845  22024174.664                    22024182.898
 119407435.800 7  93044825.906 7  22722478.133                    22722488.855
 109084387.604 8  85000930.58046  20758042.273                    20758047.559
 111740129.065 8  87070347.91045  21263418.031                    21263425.695
 109308433.832 8  85175445.513 7  20800694.219                    20800701.406
 109526273.234 8  85345228.978 8  20842133.367                    20842141.215
 126640778.827 6  98681224.672 6  24098936.797                    24098945.715
 11  8 14  1 26 30.0000000  0  8G04G30G25G02G10G12G05G17
 120594736.299 6  93970051.78944  22948399.484                    22948407.742
 115679202.598 7  90139674.00845  22013014.305                    22013021.836
 119331270.990 7  92985476.775 6  22707983.891                    22707994.406
 109104004.564 8  85016216.54146  20761774.938                    20761780.520
 111788743.497 8  87108229.30745  21272669.086                    21272676.469
 109291172.912 8  85161995.456 7  20797409.445                    20797416.277
 109469258.316 8  85300801.809 8  20831283.836                    20831291.563
 126708285.723 6  98733827.445 6  24111782.195                    24111791.625
 11  8 14  1 27  0.0000000  0  8G04G30G25G02G10G12G05G17
 120677272.024 6  94034365.30944  22964105.648                    22964113.867
 115621075.040 7  90094379.85145  22001952.664                    22001960.180
 119255498.287 7  92926433.166 7  22693565.172                    22693576.086
 109123818.328 8  85031655.84746  20765545.336                    20765550.531
 111837918.182 8  87146547.24445  21282027.109                    21282034.277
 109274482.260 8  85148989.757 7  20794233.188                    20794240.246
 109412746.319 8  85256766.524 7  20820530.188                    20820537.957
 126775977.322 6  98786574.138 6  24124663.367                    24124672.875
 11  8 14  1 27 30.0000000  0  8G04G30G25G02G10G12G05G17
 120759816.872 6  94098685.96544  22979813.477                    22979821.547
 115563470.445 7  90049493.18145  21990990.500                    21990998.578
 119180119.935 8  92867696.864 7  22679221.461                    22679232.629
 109143827.873 8  85047247.71146  20769353.289                    20769358.250
 111887650.958 8  87185300.08745  21291490.820                    21291497.863
 109258362.768 8  85136429.124 7  20791165.500                    20791172.965
 109356738.853 7  85213124.383 7  20809872.180                    20809879.672
 126843853.995 6  98839465.069 6  24137580.727                    24137589.949
 11  8 14  1 28  0.0000000  0  8G04G30G25G02G10G12G05G17
 120842369.554 6  94163012.70744  22995522.484                    22995531.348
 115506390.732 7  90005015.51945  21980128.719                    21980137.418
 119105138.178 7  92809269.604 7  22664952.313                    22664963.801
 109164031.525 8  85062990.82546  20773198.070                    20773202.848
 111937939.702 8  87224486.14645  21301060.180                    21301067.316
 109242815.175 8  85124314.115 7  20788207.539                    20788214.254
 109301237.072 8  85169876.285 8  20799310.625                    20799317.797
 126911915.766 6  98892500.197 6  24150531.992                    24150541.047
 11  8 14  1 28 30.0000000  0  8G04G30G25G02G10G12G05G17
 120924928.902 7  94227344.64844  23011233.398                    23011241.848
 115449838.083 7  89960948.57845  21969367.219                    21969375.832
 119030555.776 7  92751153.540 7  22650759.750                    22650770.352
 109184428.445 8  85078884.54246  20777079.289                    20777084.219
 111988782.888 8  87264104.23245  21310735.234                    21310742.898
 109227840.538 8  85112645.580 7  20785357.844                    20785364.766
 109246243.428 8  85127024.131 7  20788845.477                    20788853.277
 126980162.902 6  98945679.764 6  24163519.109                    24163528.117
 11  8 14  1 29  0.0000000  0  8G04G30G25G02G10G12G05G17
 121007493.819 7  94291680.91644  23026945.266                    23026953.516
 115393814.321 7  89917293.72545  21958706.594                    21958714.605
 118956374.998 7  92693350.377 7  22636644.078                    22636653.535
 109205017.507 8  85094927.97646  20780996.844                    20781002.090
 112040178.407 7  87304152.70645  21320515.594                    21320523.547
 109213439.111 8  85101423.711 7  20782617.219                    20782623.957
 109191759.597 8  85084569.240 8  20778477.836                    20778485.141
 127048595.068 6  98999003.540 5  24176541.961                    24176549.848
 11  8 14  1 29 30.0000000  0  8G04G30G25G02G10G12G05G17
 121090063.327 7  94356020.78944  23042657.109                    23042665.883
 115338321.720 7  89874052.74945  21948146.445                    21948154.156
 118882598.655 8  92635862.350 7  22622604.922                    22622615.031
 109225797.908 8  85111120.50946  20784951.289                    20784956.504
 112092124.368 8  87344630.09845  21330400.422                    21330408.117
 109199612.065 8  85090649.396 8  20779985.844                    20779992.852
 109137787.607 8  85042513.183 8  20768207.070                    20768214.695
 127117212.536 6  99052471.702 5  24189599.180                    24189607.039
 11  8 14  1 30  0.0000000  0  8G04G30G25G02G10G12G05G17
 121172636.003 7  94420363.12744  23058370.430                    23058378.465
 115283361.787 7  89831226.86645  21937687.875                    21937695.715
 118809228.657 7  92578691.007 7  22608642.320                    22608653.820
 109246767.843 8  85127460.72546  20788941.945                    20788947.117
 112144618.332 7  87385534.51245  21340389.930                    21340397.387
 109186359.748 8  85080322.935 7  20777464.125                    20777470.813
 109084328.716 8  85000856.946 8  20758034.352                    20758041.563
 127186015.318 6  99106084.271 5  24202692.148                    24202699.840
 11  8 14  1 30 30.0000000  0  8G04G30G25G02G10G12G05G17
 121255210.834 7  94484707.12744  23074084.180                    23074092.133
 115228936.778 7  89788817.83045  21927331.172                    21927339.367
 118736267.709 7  92521838.422 7  22594758.555                    22594769.449
 109267926.768 8  85143948.21546  20792968.359                    20792973.359
 112197658.526 7  87426864.55345  21350483.203                    21350490.766
 109173683.033 8  85070444.997 8  20775051.750                    20775058.898
 109031384.779 8  84959601.983 7  20747959.156                    20747966.152
 127255003.465 6  99159841.264 6  24215819.875                    24215828.328
 11  8 14  1 31  0.0000000  0  8G04G30G25G02G10G12G05G17
 121337786.813 7  94549052.03444  23089797.797                    23089805.602
 115175048.460 7  89746826.97845  21917076.852                    21917084.543
 118663718.213 8  92465306.378 7  22580953.125                    22580962.586
 109289273.386 8  85160581.95446  20797030.711                    20797035.914
 112251242.802 8  87468618.55445  21360679.797                    21360687.063
 109161582.981 8  85061016.405 7  20772749.484                    20772756.539
 108978957.626 8  84918749.686 8  20737982.492                    20737989.859
 127324177.108 6  99213742.827 6  24228983.453                    24228991.609
 11  8 14  1 31 30.0000000  0  8G04G30G25G02G10G12G05G17
 121420362.828 7  94613396.98244  23105510.805                    23105519.145
 115121699.059 7  89705256.04545  21906924.398                    21906932.105
 118591582.848 7  92409096.983 7  22567226.508                    22567235.387
 109310806.894 7  85177361.31746  20801128.352                    20801133.395
 112305369.274 7  87510795.03645  21370979.781                    21370987.262
 109150059.785 8  85052037.316 8  20770556.398                    20770563.473
 108927049.289 8  84878301.668 7  20728105.031                    20728112.207
 127393536.262 6  99267788.917 6  24242182.023                    24242190.637
 11  8 14  1 32  0.0000000  0  8G04G30G25G02G10G12G05G17
 121502937.692 6  94677740.99544  23121224.633                    23121232.867
 115068889.857 7  89664106.05945  21896874.734                    21896882.738
 118519863.490 7  92353211.835 7  22553577.961                    22553589.074
 109332525.351 8  85194284.81146  20805261.320                    20805265.824
 112360035.308 7  87553391.95945  21381382.375                    21381389.703
 109139113.900 8  85043508.078 8  20768473.555                    20768480.699
 108875660.624 8  84838258.589 8  20718325.945                    20718333.414
 127463080.534 6  99321979.250 6  24255415.766                    24255424.566
 11  8 14  1 32 30.0000000  0  9G04G30G29G25G02G10G12G05G17
 121585510.406 7  94742083.35744  23136937.898                    23136946.371
 115016622.985 7  89623378.66845  21886928.750                    21886937.336
 129572860.88916 100965916.81216  24656903.273
 118448562.778 7  92297652.927 7  22540010.344                    22540020.938
 109354428.485 8  85211352.19946  20809429.125                    20809434.137
 112415239.538 7  87596408.24845  21391887.227                    21391894.941
 109128746.142 8  85035429.332 8  20766500.758                    20766507.492
 108824793.659 8  84798622.038 8  20708646.156                    20708653.957
 127532810.440 6  99376314.231 6  24268684.305                    24268693.504
 11  8 14  1 33  0.0000000  0  9G04G30G29G25G02G10G12G05G17
 121668079.769 6  94806423.07843  23152650.438                    23152658.512
 114964900.361 7  89583075.38545  21877086.781                    21877095.008
 129493277.167 6 100903903.642 6  24641759.844                    24641769.262
 118377683.255 7  92242422.154 7  22526522.891                    22526532.473
 109376515.042 8  85228562.52546  20813632.063                    20813637.016
 112470979.565 7  87639842.05345  21402494.141                    21402501.578
 109118957.396 8  85027801.756 8  20764637.734                    20764644.836
 108774450.213 8  84759393.413 8  20699066.297                    20699073.348
 127602725.902 6  99430793.810 6  24281989.633                    24281998.398
 11  8 14  1 33 30.0000000  0  9G04G30G29G25G02G10G12G05G17
 121750645.009 7  94870759.62944  23168362.133                    23168370.121
 114913723.922 7  89543197.68845  21867347.617                    21867355.785
 129413618.342 7 100841831.970 6  24626601.086                    24626610.953
 118307227.284 7  92187521.428 6  22513114.477                    22513123.926
 109398784.065 8  85245915.01846  20817869.594                    20817874.645
 112527253.447 7  87683691.84545  21413202.492                    21413210.285
 109109748.008 8  85020625.629 8  20762885.383                    20762892.262
 108724631.676 8  84720573.812 8  20689585.906                    20689592.793
 127672827.058 6  99485418.118 6  24295329.297                    24295338.523
 11  8 14  1 34  0.0000000  0  9G04G30G29G25G02G10G12G05G17
 121833204.614 7  94935091.75844  23184073.063                    23184080.824
 114863095.006 8  89503746.63045  21857713.492                    21857721.195
 129333884.558 7 100779701.778 5  24611428.484                    24611437.813
 118237196.848 7  92132952.296 7  22499788.008                    22499798.098
 109421233.763 8  85263408.30146  20822141.844                    20822146.801
 112584058.556 7  87727955.56645  21424012.438                    21424019.867
 109101118.207 8  85013901.128 7  20761242.820                    20761249.930
 108675339.164 8  84682164.088 8  20680206.023                    20680213.152
 127743113.603 6  99540186.855 6  24308703.805                    24308712.992
 11  8 14  1 34 30.0000000  0  9G04G30G29G25G02G10G12G05G17
 121915758.035 7  94999419.07144  23199782.547                    23199790.527
 114813015.874 8  89464723.96945  21848184.141                    21848191.648
 129254076.520 6 100717513.831 5  24596240.453                    24596250.477
 118167594.816 7  92078716.995 7  22486543.508                    22486554.277
 109443863.863 8  85281042.15946  20826448.109                    20826453.453
 112641393.229 7  87772631.94945  21434922.930                    21434930.137
 109093069.247 8  85007629.226 7  20759711.539                    20759718.477
 108626574.908 8  84644165.998 8  20670926.391                    20670933.938
 127813585.735 6  99595100.179 6  24322114.750                    24322123.613
 11  8 14  1 35  0.0000000  0  9G04G30G29G25G02G10G12G05G17
 121998303.834 7  95063740.46544  23215490.063                    23215498.543
 114763487.838 8  89426130.74945  21838759.055                    21838767.055
 129174194.518 6 100655268.225 5  24581040.070                    24581049.543
 118098423.156 7  92024817.054 7  22473380.781                    22473391.453
 109466672.811 8  85298815.37546  20830788.383                    20830793.605
 112699254.877 7  87817718.95945  21445933.992                    21445940.871
 109085600.766 8  85001809.644 7  20758290.695                    20758297.461
 108578339.953 8  84606580.352 8  20661747.578                    20661754.688
 127884243.159 6  99650157.922 6  24335561.211                    24335569.078
 11  8 14  1 35 30.0000000  0  9G04G30G29G25G02G10G12G05G17
 122080841.156 7  95128055.23644  23231195.813                    23231204.840
 114714512.884 8  89387968.50545  21829439.109                    21829446.977
 129094239.378 6 100592965.609 5  24565824.320                    24565833.816
 118029684.343 7  91971254.424 7  22460299.641                    22460310.305
 109489659.779 8  85316727.30946  20835162.875                    20835167.711
 112757641.543 7  87863215.07545  21457044.297                    21457051.504
 109078713.367 8  84996442.860 7  20756979.359                    20756986.316
 108530636.185 8  84569408.621 8  20652669.867                    20652677.230
 127955085.996 6  99705360.156 6  24349041.109                    24349050.027
 11  8 14  1 36  0.0000000  0  9G04G30G29G25G02G10G12G05G17
 122163369.067 7  95192362.65744  23246901.023                    23246909.418
 114666092.675 8  89350238.50245  21820224.977                    21820232.949
 129014211.484 5 100530606.316 5  24550594.672                    24550605.832
 117961380.681 7  91918030.837 7  22447302.188                    22447311.813
 109512823.344 8  85334776.85246  20839570.672                    20839575.270
 112816551.002 8  87909118.56245  21468254.094                    21468261.430
 109072407.765 8  84991529.417 8  20755779.961                    20755786.707
 108483465.010 8  84532651.897 8  20643693.188                    20643700.855
 128026114.111 6  99760706.743 6  24362557.211                    24362565.895
 11  8 14  1 36 30.0000000  0  9G04G30G29G25G02G10G12G05G17
 122245886.495 6  95256661.90944  23262603.234                    23262612.395
 114618228.742 7  89312941.96745  21811116.859                    21811125.219
 128934111.501 6 100468190.813 5  24535352.750                    24535362.824
 117893514.371 7  91865148.030 7  22434387.594                    22434397.590
 109536162.743 8  85352963.38946  20844011.617                    20844017.039
 112875980.826 7  87955427.51845  21479563.594                    21479570.984
 109066684.195 8  84987069.492 8  20754690.719                    20754697.184
 108436827.685 8  84496311.149 8  20634818.391                    20634826.090
 128097327.417 6  99816197.605 6  24376109.898                    24376117.910
 11  8 14  1 37  0.0000000  0  9G04G30G29G25G02G10G12G05G17
 122328392.540 6  95320952.30644  23278303.766                    23278312.508
 114570922.962 8  89276080.36045  21802114.813                    21802122.988
 128853940.089 6 100405719.604 5  24520096.023                    24520107.195
 117826087.974 7  91812608.045 7  22421556.930                    22421567.492
 109559677.142 8  85371286.30146  20848486.328                    20848491.539
 112935928.926 7  88002140.33245  21490971.188                    21490978.738
 109061542.941 8  84983063.336 8  20753712.070                    20753718.930
 108390725.811 8  84460387.648 8  20626045.609                    20626052.801
 128168726.131 6  99871832.932 6  24389696.102                    24389704.871
 11  8 14  1 37 30.0000000  0  9G04G30G29G25G02G10G12G05G17
 122410886.200 6  95385233.04044  23294002.211                    23294010.605
 114524176.861 8  89239654.84645  21793219.359                    21793226.922
 128773697.824 6 100343193.192 6  24504826.828                    24504836.941
 117759103.465 7  91760412.427 7  22408809.523                    22408820.484
 109583365.171 8  85389744.50946  20852994.078                    20852999.449
 112996392.661 7  88049254.93345  21502477.000                    21502484.672
 109056984.369 8  84979511.198 8  20752844.727                    20752851.867
 108345160.658 8  84424882.371 8  20617375.063                    20617381.957
 128240309.953 5  99927612.557 6  24403317.875                    24403326.453
 11  8 14  1 38  0.0000000  0  9G04G30G29G25G02G10G12G05G17
 122493366.412 6  95449503.27744  23309697.492                    23309706.316
 114477992.062 7  89203666.69745  21784430.945                    21784438.926
 128693385.215 6 100280611.986 6  24489544.266                    24489553.961
 117692563.231 7  91708562.950 7  22396147.617                    22396157.238
 109607225.730 8  85408337.15246  20857534.891                    20857539.840
 113057370.019 7  88096769.76745  21514080.750                    21514087.895
 109053008.861 8  84976413.399 8  20752087.977                    20752095.230
 108300133.874 8  84389796.590 8  20608806.711                    20608814.027
 128312078.892 6  99983536.374 6  24416974.328                    24416982.883
 11  8 14  1 38 30.0000000  0  9G04G30G29G25G02G10G12G05G17
 122575832.235 6  95513762.34144  23325389.938                    23325398.797
 114432370.131 8  89168117.16545  21775749.070                    21775756.828
 128613002.915 7 100217976.523 6  24474248.047                    24474258.555
 117626469.564 7  91657061.425 7  22383570.414                    22383580.449
 109631257.938 8  85427063.55546  20862107.984                    20862112.867
 113118858.683 7  88144683.01445  21525781.852                    21525789.078
 109049616.809 8  84973770.250 8  20751442.680                    20751449.398
 108255646.685 8  84355131.281 8  20600340.781                    20600348.500
 128384032.717 6 100039604.269 6  24430667.117                    24430675.926
 11  8 14  1 39  0.0000000  0  9G04G30G29G25G02G10G12G05G17
 122658282.658 6  95578009.38344  23341079.805                    23341088.750
 114387312.621 8  89133007.42145  21767174.953                    21767182.863
 128532551.373 6 100155287.083 6  24458938.852                    24458948.762
 117560824.566 7  91605909.540 7  22371078.625                    22371088.707
 109655460.610 8  85445922.77446  20866713.164                    20866718.668
 113180855.926 7  88192992.56845  21537579.219                    21537586.598
 109046808.560 8  84971581.999 7  20750908.180                    20750915.266
 108211700.375 8  84320887.433 8  20591978.063                    20591985.023
 128456171.424 6 100095816.221 6  24444395.391                    24444403.648
 11  8 14  1 39 30.0000000  0  9G04G30G29G25G02G10G12G05G17
 122740716.823 7  95642243.75644  23356766.977                    23356775.402
 114342820.964 8  89098338.58945  21758708.711                    21758716.809
 128452031.090 7 100092544.091 6  24443616.172                    24443625.633
 117495630.448 7  91555109.024 7  22358672.094                    22358682.957
 109679832.615 8  85464913.94446  20871351.336                    20871356.672
 113243359.551 7  88241696.69745  21549472.938                    21549480.453
 109044583.776 7  84969848.397 8  20750484.828                    20750491.742
 108168295.853 8  84287065.765 8  20583718.523                    20583725.785
 128528494.929 6 100152172.194 6  24458158.180                    24458166.148
 11  8 14  1 40  0.0000000  0  9G04G30G29G25G02G10G12G05G17
 122823133.542 7  95706464.54944  23372450.336                    23372458.570
 114298896.872 8  89064112.00745  21750350.305                    21750358.223
 128371442.777 7 100029748.069 6  24428280.492                    24428290.563
 117430889.496 7  91504661.574 7  22346352.633                    22346362.773
 109704373.005 8  85484036.33446  20876021.406                    20876026.246
 113306367.351 7  88290793.68745  21561463.016                    21561470.422
 109042943.059 8  84968569.922 7  20750172.586                    20750179.512
 108125435.032 8  84253667.753 8  20575562.281                    20575569.820
 128601003.149 6 100208672.091 6  24471955.008                    24471964.109
 11  8 14  1 40 30.0000000  0  9G04G30G29G25G02G10G12G05G17
 122905532.312 7  95770671.36944  23388130.023                    23388138.586
 114255541.831 8  89030328.84945  21742099.914                    21742107.785
 128290787.463 6  99966899.876 6  24412931.727                    24412941.957
 117366604.038 7  91454569.061 7  22334119.648                    22334129.379
 109729081.157 8  85503289.43146  20880723.102                    20880728.250
 113369877.123 7  88340281.82045  21573548.727                    21573555.988
 109041886.705 8  84967746.783 8  20749971.516                    20749978.652
 108083119.053 8  84220694.299 8  20567509.609                    20567517.098
 128673696.016 6 100265315.890 5  24485788.539                    24485796.816
 11  8 14  1 41  0.0000000  0  9G04G30G29G25G02G10G12G05G17
 122987912.049 7  95834863.35944  23403806.555                    23403814.609
 114212757.324 8  88996990.24045  21733958.219                    21733966.477
 128210065.438 7  99903999.714 6  24397571.516                    24397581.008
 117302776.153 7  91404833.078 7  22321973.445                    22321983.340
 109753955.695 8  85522672.19346  20885456.570                    20885461.836
 113433886.486 7  88390159.25445  21585729.234                    21585737.020
 109041414.876 8  84967379.124 7  20749881.633                    20749888.516
 108041349.219 8  84188146.411 8  20559560.977                    20559568.469
 128746573.201 6 100322103.335 5  24499656.242                    24499664.828
 11  8 14  1 41 30.0000000  0  8G04G30G29G25G02G10G12G05
 123070272.623 7  95899040.39544  23419478.953                    23419487.316
 114170545.482 7  88964097.87745  21725925.352                    21725933.781
 128129278.125 6  99841048.667 6  24382197.391                    24382207.922
 117239408.718 7  91355455.891 7  22309915.289                    22309925.500
 109778996.321 8  85542184.38446  20890221.266                    20890226.789
 113498393.635 7  88440424.57945  21598004.078                    21598011.656
 109041528.098 8  84967467.348 8  20749903.141                    20749909.926
 108000127.359 8  84156025.513 8  20551716.750                    20551724.461
 11  8 14  1 42  0.0000000  0  8G04G30G29G25G02G10G12G05
 123152612.531 6  95963201.32344  23435147.500                    23435156.418
 114128907.210 7  88931652.43145  21718002.391                    21718010.121
 128048425.485 7  99778046.738 6  24366811.820                    24366822.332
 117176503.348 7  91306438.758 7  22297944.977                    22297955.035
 109804201.441 8  85561824.73746  20895017.695                    20895023.301
 113563395.531 7  88491075.41445  21610373.953                    21610381.023
 109042226.131 8  84968011.277 8  20750036.508                    20750042.922
 107959454.057 8  84124332.060 8  20543977.047                    20543983.934
 11  8 14  1 42 30.0000000  0  8G04G30G29G25G02G10G12G05
 123234930.550 6  96027345.20344  23450812.141                    23450821.391
 114087843.489 7  88899654.68945  21710188.148                    21710195.875
 127967507.816 6  99714994.131 6  24351414.188                    24351423.699
 117114061.754 7  91257782.982 7  22286062.516                    22286072.492
 109829569.615 8  85581592.16346  20899845.438                    20899850.453
 113628889.016 7  88542109.30345  21622837.117                    21622844.176
 109043508.443 8  84969010.484 7  20750279.930                    20750287.543
 107919330.517 8  84093066.997 8  20536341.602                    20536348.895
 11  8 14  1 43  0.0000000  0  8G04G30G29G25G02G10G12G05
 123317226.203 6  96091471.66344  23466473.148                    23466481.719
 114047356.290 8  88868106.18545  21702483.445                    21702491.590
 127886526.499 6  99651891.922 6  24336003.258                    24336013.480
 117052086.657 7  91209490.703 7  22274268.719                    22274278.297
 109855100.566 8  85601486.42846  20904703.984                    20904709.328
 113694872.507 7  88593525.01945  21635393.375                    21635400.629
 109045376.055 7  84970465.765 7  20750635.398                    20750642.777
 107879758.019 8  84062231.320 8  20528811.477                    20528818.590
 11  8 14  1 43 30.0000000  0  8G04G30G29G25G02G10G12G05
 123399498.408 6  96155579.83644  23482128.625                    23482137.492
 114007446.460 8  88837007.59745  21694888.750                    21694897.258
 127805481.789 6  99588740.289 6  24320581.039                    24320590.266
 116990579.717 7  91161563.231 7  22262564.617                    22262574.441
 109880792.426 8  85621506.08246  20909592.383                    20909597.898
 113761343.413 7  88645320.53945  21648042.047                    21648049.723
 109047828.178 8  84972376.516 8  20751102.766                    20751109.441
 107840737.019 8  84031825.380 8  20521385.633                    20521392.570
 11  8 14  1 44  0.0000000  0  8G04G30G29G25G02G10G12G05
 123481746.505 6  96219669.24643  23497779.727                    23497788.699
 113968115.634 8  88806360.17945  21687404.359                    21687412.250
 127724374.383 6  99525539.822 6  24305146.914                    24305156.004
 116929543.204 8  91114002.298 7  22250949.680                    22250959.586
 109906644.722 8  85641650.74246  20914512.117                    20914517.188
 113828299.170 7  88697493.85445  21660783.992                    21660790.992
 109050865.027 8  84974742.893 7  20751680.328                    20751687.016
 107802269.104 8  84001850.412 8  20514065.930                    20514072.973
 11  8 14  1 44 30.0000000  0  8G04G30G29G25G02G10G12G05
 123563969.331 6  96283738.93543  23513425.797                    23513435.469
 113929364.900 7  88776164.79545  21680030.672                    21680038.738
 127643204.937 6  99462290.993 6  24289700.602                    24289710.137
 116868979.145 8  91066809.501 7  22239424.680                    22239434.426
 109932656.401 8  85661919.61946  20919461.914                    20919466.945
 113895737.088 7  88750042.90445  21673616.836                    21673623.727
 109054486.612 8  84977564.927 8  20752369.281                    20752376.328
 107764355.316 8  83972307.236 8  20506850.391                    20506857.766
 11  8 14  1 45  0.0000000  0  8G04G30G29G25G02G10G12G05
 123646166.376 6  96347788.53343  23529067.141                    23529076.910
 113891196.115 7  88746422.90145  21672767.242                    21672775.117
 127561974.748 6  99398994.822 6  24274242.898                    24274253.328
 116808890.037 8  91019986.786 7  22227989.680                    22227999.977
 109958826.945 8  85682312.27146  20924441.852                    20924446.879
 113963655.126 7  88802966.06845  21686540.859                    21686548.512
 109058693.256 8  84980842.838 7  20753169.539                    20753176.555
 107726997.182 8  83943197.035 8  20499741.594                    20499748.859
 11  8 14  1 45 30.0000000  0  8G04G30G29G25G02G10G12G05
 123728336.662 6  96411817.32343  23544704.570                    23544713.270
 113853610.002 8  88717135.05145  21665615.109                    21665622.602
 127480684.066 6  99335651.500 6  24258774.148                    24258783.785
 116749277.501 8  90973535.430 7  22216646.148                    22216656.387
 109985154.571 8  85702827.32446  20929452.078                    20929456.953
 114032050.345 7  88856261.05545  21699556.031                    21699563.410
 109063484.773 8  84984576.495 8  20754081.359                    20754088.359
 107690195.035 8  83914520.066 8  20492738.586                    20492745.949
 11  8 14  1 46  0.0000000  0  8G04G30G29G25G02G10G12G05
 123810479.458 6  96475824.63343  23560336.250                    23560344.867
 113816608.027 7  88688302.36845  21658573.766                    21658581.359
 127399333.513 6  99272261.528 6  24243293.148                    24243302.496
 116690143.823 8  90927457.196 7  22205393.461                    22205403.480
 110011638.774 8  85723464.39546  20934491.750                    20934496.703
 114100920.355 7  88909926.00345  21712661.273                    21712669.063
 109068860.731 8  84988765.555 7  20755104.523                    20755111.363
 107653950.150 8  83886277.332 8  20485841.469                    20485848.523
 11  8 14  1 46 30.0000000  0  8G04G30G29G25G02G10G12G05
 123892593.995 6  96539809.99943  23575961.742                    23575970.855
 113780191.460 7  88659925.87045  21651643.641                    21651651.492
 127317924.181 6  99208825.737 6  24227802.070                    24227811.160
 116631490.974 7  90881753.665 7  22194231.859                    22194241.984
 110038278.710 8  85744222.82246  20939560.938                    20939566.281
 114170262.694 7  88963958.99945  21725857.055                    21725864.488
 109074821.277 8  84993410.144 7  20756238.914                    20756245.402
 107618263.873 8  83858469.877 8  20479050.500                    20479057.527
 11  8 14  1 47  0.0000000  0  8G04G30G29G25G02G10G12G05
 123974679.610 6  96603772.80944  23591582.297                    23591590.770
 113744361.470 8  88632006.46645  21644825.578                    21644833.313
 127236456.478 6  99145344.464 6  24212298.523                    24212307.965
 116573321.054 8  90836426.440 7  22183162.492                    22183172.500
 110065073.261 8  85765101.72146  20944659.711                    20944665.020
 114240074.807 7  89018358.06845  21739141.797                    21739149.258
 109081366.047 8  84998509.966 7  20757484.477                    20757491.195
 107583136.995 8  83831098.322 8  20472365.844                    20472373.066
 11  8 14  1 47 30.0000000  0  8G04G30G29G25G02G10G12G05
 124056734.938 7  96667712.03844  23607197.164                    23607205.531
 113709118.881 7  88604544.75945  21638119.336                    21638126.543
 127154931.253 6  99081818.353 6  24196785.438                    24196794.715
 116515635.723 8  90791476.824 7  22172185.750                    22172195.703
 110092021.059 8  85786100.02746  20949787.953                    20949793.168
 114310353.577 7  89073120.73845  21752515.516                    21752522.844
 109088494.633 8  85004064.712 8  20758840.664                    20758847.934
 107548570.211 8  83804163.190 8  20465788.141                    20465795.094
 11  8 14  1 48  0.0000000  0  8G04G30G29G25G02G10G12G05
 124138759.915 7  96731627.57743  23622805.969                    23622813.563
 113674465.506 7  88577542.18845  21631524.617                    21631532.891
 127073349.807 6  99018248.429 6  24181260.828                    24181270.348
 116458437.709 8  90746906.928 7  22161301.000                    22161311.035
 110119122.100 8  85807217.74046  20954945.031                    20954949.992
 114381097.464 7  89128245.84545  21765977.586                    21765984.840
 109096207.551 8  85010074.787 7  20760308.539                    20760315.086
 107514564.836 8  83777665.529 8  20459317.234                    20459324.051
 11  8 14  1 48 30.0000000  0  8G04G30G29G25G02G10G12G05
 124220753.518 7  96795518.71943  23638408.391                    23638417.070
 113640402.020 7  88550999.27145  21625042.867                    21625050.488
 126991712.657 7  98954635.117 6  24165726.203                    24165734.926
 116401728.411 8  90702717.892 7  22150509.477                    22150520.523
 110146374.792 8  85828453.62946  20960131.016                    20960136.332
 114452303.301 7  89183730.92245  21779527.188                    21779535.223
 109104504.174 8  85016539.686 8  20761887.297                    20761894.414
 107481121.497 8  83751605.817 8  20452952.781                    20452960.059
 11  8 14  1 49  0.0000000  0  8G04G30G29G25G02G10G12G05
 124302715.091 7  96859384.89843  23654005.070                    23654013.832
 113606929.816 7  88524917.09045  21618673.289                    21618680.719
 126910020.585 6  98890978.990 5  24150180.078                    24150189.117
 116345510.125 8  90658911.480 7  22139811.891                    22139822.563
 110173778.619 8  85849807.29046  20965345.563                    20965350.754
 114523968.474 7  89239573.91545  21793165.008                    21793172.574
 109113384.778 8  85023459.644 7  20763577.438                    20763584.398
 107448241.280 8  83725984.885 8  20446696.125                    20446703.574
 11  8 14  1 49 30.0000000  0  8G04G30G29G25G02G10G12G05
 124384643.422 7  96923225.17143  23669595.656                    23669604.621
 113574049.145 7  88499295.85345  21612415.875                    21612423.535
 126828273.733 6  98827280.120 5  24134623.781                    24134633.145
 116289784.090 8  90615488.611 7  22129207.820                    22129217.531
 110201331.622 8  85871277.18846  20970588.711                    20970593.785
 114596089.817 7  89295772.37045  21806889.344                    21806896.844
 109122848.117 8  85030833.685 7  20765378.055                    20765385.289
 107415924.568 8  83700803.068 8  20440546.180                    20440553.699
 11  8 14  1 50  0.0000000  0  8G04G30G29G25G02G10G12G05
 124466538.318 7  96987039.37643  23685179.984                    23685188.613
 113541761.759 7  88474136.89645  21606271.789                    21606279.770
 126746473.614 6  98763539.801 6  24119057.734                    24119067.293
 116234552.752 8  90572451.251 7  22118697.367                    22118707.531
 110229033.728 8  85892863.26246  20975860.391                    20975865.598
 114668665.653 7  89352324.96545  21820699.594                    21820707.629
 109132894.211 8  85038661.817 7  20767289.711                    20767297.063
 107384172.626 8  83676061.320 8  20434503.969                    20434511.477
 11  8 14  1 50 30.0000000  0  8G04G30G29G25G02G10G12G05
 124548398.934 6  97050826.87443  23700757.273                    23700766.266
 113510068.831 7  88449441.17245  21600240.711                    21600248.672
 126664621.055 6  98699758.642 6  24103481.672                    24103491.934
 116179818.180 8  90529801.010 7  22108281.633                    22108292.012
 110256884.143 7  85914564.91646  20981160.297                    20981165.332
 114741693.151 7  89409229.49745  21834596.445                    21834604.102
 109143522.997 8  85046943.994 7  20769312.313                    20769319.578
 107352986.174 8  83651760.222 8  20428569.352                    20428576.641
 11  8 14  1 51  0.0000000  0  8G04G30G29G25G02G10G12G05
 124630224.452 7  97114587.01743  23716327.922                    23716337.582
 113478970.985 7  88425209.12045  21594322.758                    21594330.414
 126582716.756 7  98635937.176 6  24087896.742                    24087905.934
 116125582.001 8  90487539.123 7  22097960.773                    22097970.980
 110284881.548 7  85936381.09546  20986488.109                    20986492.988
 114815169.780 7  89466484.01045  21848578.570                    21848586.449
 109154733.888 8  85055679.756 7  20771445.703                    20771452.391
 107322365.792 8  83627900.215 8  20422742.531                    20422749.617
 11  8 14  1 51 30.0000000  0  8G04G30G29G25G02G10G12G05
 124712014.309 6  97178319.36043  23731891.992                    23731901.180
 113448469.292 8  88401441.59945  21588518.828                    21588526.605
 126500761.613 7  98572076.064 6  24072301.031                    24072310.484
 116071846.231 8  90445667.150 7  22087735.328                    22087745.461
 110313025.186 8  85958311.21746  20991843.359                    20991848.859
 114889092.834 7  89524086.39345  21862645.961                    21862653.223
 109166526.805 8  85064869.042 7  20773689.609                    20773696.309
 107292312.520 8  83604482.110 8  20417024.000                    20417030.738
 11  8 14  1 52  0.0000000  0  8G04G30G29G25G02G10G12G05
 124793767.903 6  97242023.45143  23747449.523                    23747458.980
 113418564.910 8  88378139.51645  21582828.039                    21582835.586
 126418756.578 6  98508176.081 6  24056695.375                    24056704.832
 116018612.807 8  90404186.636 7  22077605.133                    22077615.105
 110341314.458 8  85980354.82646  20997226.508                    20997231.801
 114963459.486 7  89582034.43245  21876797.422                    21876804.328
 109178901.124 8  85074511.363 7  20776044.352                    20776051.113
 107262827.153 8  83581506.525 8  20411412.875                    20411419.859
 11  8 14  1 52 30.0000000  0  8G04G30G29G25G02G10G12G05
 124875484.085 6  97305698.38543  23762999.711                    23763008.684
 113389257.957 7  88355302.95745  21577251.297                    21577258.992
 126336701.998 6  98444237.510 6  24041080.766                    24041090.836
 115965882.824 8  90363098.415 7  22067570.898                    22067581.637
 110369747.548 7  86002510.49646  21002637.422                    21002642.305
 115038266.357 7  89640325.48945  21891032.688                    21891040.184
 109191855.871 8  85084605.975 7  20778509.766                    20778516.980
 107233909.771 8  83558973.533 8  20405910.141                    20405917.238
 11  8 14  1 53  0.0000000  0  8G04G30G29G25G02G10G12G05
 124957162.631 7  97369343.99343  23778542.695                    23778551.723
 113360550.247 7  88332933.33545  21571787.945                    21571796.004
 126254599.427 6  98380261.543 6  24025457.156                    24025467.117
 115913659.100 8  90322404.653 7  22057633.016                    22057642.875
 110398324.595 8  86024778.35146  21008075.305                    21008080.637
 115113511.532 7  89698958.09145  21905351.445                    21905358.523
 109205391.352 8  85095153.105 7  20781085.461                    20781092.211
 107205561.910 7  83536884.327 8  20400515.727                    20400522.449
 11  8 14  1 53 30.0000000  0  8G04G30G29G25G02G10G12G05
 125038803.173 7  97432959.99144  23794078.320                    23794086.875
 113332442.792 7  88311031.43445  21566439.523                    21566447.840
 126172449.962 6  98316249.044 6  24009823.383                    24009833.965
 115861943.474 8  90282106.824 7  22047791.664                    22047801.621
 110427045.021 8  86047157.91646  21013540.711                    21013546.188
 115189192.729 7  89757930.45045  21919752.852                    21919760.316
 109219507.688 8  85106152.863 8  20783771.961                    20783778.492
 107177784.070 8  83515239.285 8  20395229.906                    20395236.691
 11  8 14  1 54  0.0000000  0  8G04G30G29G25G02G10G12G05
 125120404.488 7  97496545.46344  23809606.953                    23809614.953
 113304935.897 8  88289597.51245  21561205.188                    21561212.711
 126090253.934 6  98252200.260 6  23994182.891                    23994193.621
 115810737.154 8  90242205.860 7  22038047.625                    22038057.582
 110455907.146 8  86069647.89146  21019033.031                    21019038.531
 115265306.681 7  89817240.02245  21934237.133                    21934243.844
 109234203.414 8  85117604.080 7  20786568.352                    20786575.262
 107150576.480 8  83494038.603 8  20390052.063                    20390059.230
 11  8 14  1 54 30.0000000  0  8G04G30G29G25G02G10G12G05
 125201965.980 7  97560099.87043  23825127.438                    23825135.340
 113278030.203 8  88268632.05245  21556085.094                    21556093.004
 126008012.299 6  98188115.906 6  23978533.063                    23978542.371
 115760041.870 8  90202703.079 7  22028400.391                    22028410.453
 110484910.020 8  86092247.54546  21024551.906                    21024557.078
 115341850.673 7  89876884.68345  21948802.352                    21948810.023
 109249477.759 8  85129506.184 7  20789474.602                    20789481.527
 107123939.724 8  83473282.713 8  20384983.516                    20384990.184
 11  8 14  1 55  0.0000000  0  8G04G30G29G25G02G10G12G05
 125283486.975 7  97623622.75843  23840640.008                    23840648.551
 113251726.674 7  88248135.81145  21551079.367                    21551087.258
 125925725.715 6  98123996.537 6  23962875.031                    23962883.551
 115709859.409 8  90163599.917 7  22018850.984                    22018860.859
 110514052.758 8  86114956.17746  21030097.594                    21030102.355
 115418821.967 7  89936862.30245  21963449.836                    21963457.113
 109265330.002 8  85141858.576 7  20792491.523                    20792498.281
 107097874.490 8  83452972.180 8  20380023.469                    20380030.637
 11  8 14  1 55 30.0000000  0  8G04G30G29G25G02G10G12G05
 125364967.242 7  97687113.86543  23856144.680                    23856153.313
 113226026.315 8  88228109.57446  21546188.992                    21546196.777
 125843395.667 6  98059843.329 6  23947207.883                    23947216.918
 115660191.792 8  90124897.939 7  22009399.492                    22009409.711
 110543334.993 8  86137773.50746  21035669.813                    21035674.918
 115496218.394 7  89997171.18945  21978177.844                    21978185.313
 109281760.254 8  85154661.387 7  20795617.867                    20795624.859
 107072381.384 8  83433107.461 8  20375171.953                    20375179.215
 11  8 14  1 56  0.0000000  0  8G04G30G29G25G02G10G12G05
 125446405.632 7  97750572.35843  23871642.992                    23871650.883
 113200929.257 8  88208553.44145  21541413.297                    21541420.977
 125761022.804 6  97995656.780 6  23931532.023                    23931542.141
 115611040.291 8  90086598.111 7  22000045.961                    22000056.051
 110572755.256 8  86160698.39946  21041268.531                    21041273.668
 115574036.613 7  90057808.75045  21992986.156                    21992993.656
 109298767.380 8  85167913.697 7  20798854.297                    20798861.531
 107047460.670 8  83413688.755 8  20370429.734                    20370436.918
 11  8 14  1 56 30.0000000  0  8G04G30G29G25G02G10G12G05
 125527801.741 6  97813997.94743  23887131.836                    23887140.004
 113176436.640 8  88189468.29445  21536752.609                    21536760.379
 125678608.149 6  97931437.671 6  23915849.281                    23915859.375
 115562406.868 8  90048701.978 7  21990791.602                    21990801.570
 110602313.107 8  86183730.49446  21046893.078                    21046898.695
 115652274.179 7  90118773.08045  22007874.563                    22007882.148
 109316351.291 8  85181615.461 7  20802200.422                    20802207.328
 107023113.200 8  83394716.737 8  20365796.375                    20365803.719
 11  8 14  1 57  0.0000000  0  8G04G30G29G25G02G10G12G05
 125609155.002 6  97877390.08543  23902612.367                    23902620.832
 113152549.142 8  88170854.68046  21532206.539                    21532214.348
 125596152.562 6  97867186.663 6  23900158.570                    23900167.594
 115514293.243 8  90011210.885 7  21981635.898                    21981646.129
 110632007.635 8  86206869.08946  21052543.672                    21052549.000
 115730927.891 7  90180061.67345  22022841.383                    22022849.355
 109334511.417 8  85195766.216 7  20805656.102                    20805662.957
 106999339.362 8  83376191.695 8  20361272.633                    20361279.637
 11  8 14  1 57 30.0000000  0  8G04G30G29G25G02G10G12G05
 125690464.980 6  97940748.52743  23918085.039                    23918093.375
 113129267.455 8  88152713.11546  21527776.391                    21527784.441
 125513657.161 7  97802904.641 6  23884460.008                    23884469.629
 115466701.093 8  89974126.133 7  21972579.383                    21972589.719
 110661837.968 8  86230113.51446  21058220.055                    21058225.586
 115809995.148 7  90241672.52045  22037888.234                    22037895.250
 109353246.555 8  85210365.026 7  20809221.063                    20809228.402
 106976139.597 8  83358113.991 8  20356857.539                    20356864.496
 11  8 14  1 58  0.0000000  0  8G04G30G29G25G02G10G12G05
 125771730.791 6  98004072.56043  23933549.672                    23933557.914
 113106591.967 8  88135043.92446  21523461.484                    21523469.188
 125431123.039 7  97738592.421 6  23868754.359                    23868763.406
 115419631.801 8  89937448.800 7  21963622.227                    21963632.391
 110691803.139 8  86253462.99746  21063922.188                    21063927.383
 115889473.238 7  90303603.49045  22053011.922                    22053019.184
 109372555.844 8  85225411.245 7  20812895.719                    20812902.895
 106953514.184 8  83340483.832 8  20352552.367                    20352559.086
 11  8 14  1 58 30.0000000  0  8G04G30G29G25G02G10G12G05
 125852952.336 6  98067362.03743  23949005.359                    23949013.977
 113084523.724 8  88117847.89545  21519262.063                    21519269.711
 125348551.182 7  97674250.825 6  23853041.492                    23853050.773
 115373087.516 8  89901180.563 7  21954765.000                    21954774.992
 110721903.002 8  86276917.44346  21069650.227                    21069655.301
 115969359.734 7  90365852.71045  22068214.398                    22068221.152
 109392438.903 8  85240904.544 7  20816679.320                    20816686.184
 106931463.982 8  83323301.884 8  20348355.898                    20348363.133
 11  8 14  1 59  0.0000000  0  8G04G30G29G25G02G10G12G05
 125934129.051 6  98130616.65143  23964452.766                    23964461.324
 113063063.229 8  88101125.45946  21515177.742                    21515185.887
 125265942.459 6  97609880.518 6  23837321.258                    23837330.309
 115327069.728 8  89865322.580 7  21946008.078                    21946018.563
 110752136.459 8  86300475.98746  21075403.219                    21075408.555
 116049651.669 7  90428417.84545  22083492.906                    22083500.309
 109412895.365 8  85256844.658 7  20820571.961                    20820578.523
 106909989.221 8  83306568.331 8  20344269.508                    20344276.887
 11  8 14  1 59 30.0000000  0  8G04G30G29G25G02G10G12G05
 126015259.844 6  98193835.43843  23979891.383                    23979899.918
 113042210.369 8  88084876.50245  21511210.133                    21511217.633
 125183297.384 6  97545481.911 6  23821593.477                    23821603.590
 115281579.314 8  89829875.533 7  21937351.727                    21937361.375
 110782501.973 8  86324137.43246  21081182.047                    21081186.840
 116130346.187 7  90491296.68445  22098849.000                    22098856.047
 109433923.235 8  85273230.007 7  20824573.555                    20824580.313
 106889089.516 8  83290282.876 8  20340292.383                    20340299.543
 11  8 14  2  0  0.0000000  0  8G04G30G29G25G02G10G12G05
 126096344.693 6  98257018.40643  23995321.336                    23995330.469
 113021966.531 8  88069102.10745  21507357.461                    21507364.895
 125100617.738 6  97481056.330 6  23805860.828                    23805869.766
 115236618.697 8  89794841.309 7  21928795.930                    21928806.277
 110812999.872 8  86347902.02746  21086985.563                    21086990.777
 116211440.810 7  90554487.29745  22114280.594                    22114287.535
 109455522.650 8  85290060.725 7  20828683.852                    20828690.930
 106868766.294 8  83274446.620 8  20336425.172                    20336432.348
 11  8 14  2  0 30.0000000  0  8G04G30G29G25G02G10G12G05
 126177383.011 6  98320165.17043  24010742.664                    24010751.715
 113002331.870 8  88053802.38746  21503621.453                    21503628.676
 125017904.577 6  97416604.624 6  23790120.359                    23790129.941
 115192189.198 8  89760220.962 7  21920341.188                    21920350.855
 110843629.051 8  86371768.93846  21092813.961                    21092819.199
 116292932.649 7  90617987.43245  22129787.289                    22129794.766
 109477692.803 8  85307336.180 7  20832902.789                    20832909.496
 106849019.377 8  83259059.443 8  20332667.438                    20332674.324
 11  8 14  2  1  0.0000000  0  8G04G30G29G25G02G10G12G05
 126258373.963 6  98383275.01943  24026155.086                    24026163.738
 112983306.731 8  88038977.61845  21500000.945                    21500008.887
 124935158.543 6  97352127.334 6  23774374.906                    23774383.980
 115148292.122 8  89726015.450 7  21911987.844                    21911997.922
 110874388.249 8  86395737.15646  21098666.906                    21098672.578
 116374818.792 7  90681794.82245  22145370.203                    22145377.547
 109500432.470 8  85325055.400 7  20837229.711                    20837236.785
 106829849.118 8  83244121.598 8  20329019.180                    20329026.441
 11  8 14  2  1 30.0000000  0  8G04G30G29G25G02G10G12G05
 126339317.513 6  98446347.89743  24041558.336                    24041566.816
 112964891.770 8  88024628.30846  21496496.484                    21496504.113
 124852380.401 7  97287624.988 6  23758622.734                    23758631.637
 115104929.237 8  89692226.230 7  21903736.141                    21903746.570
 110905277.344 8  86419806.58746  21104544.953                    21104550.449
 116457096.623 7  90745907.42245  22161026.742                    22161034.195
 109523740.992 8  85343217.889 7  20841665.102                    20841672.219
 106811255.844 8  83229633.363 8  20325480.930                    20325488.379
 11  8 14  2  2  0.0000000  0  8G04G30G29G25G02G10G12G05
 126420212.607 6  98509383.06343  24056951.531                    24056960.395
 112947087.020 8  88010754.47445  21493108.133                    21493115.934
 124769571.831 7  97223098.956 6  23742864.742                    23742873.492
 115062101.729 8  89658854.166 7  21895586.766                    21895596.242
 110936294.803 8  86443976.04746  21110447.563                    21110452.984
 116539762.759 7  90810322.60445  22176758.086                    22176765.133
 109547617.356 8  85361822.845 7  20846208.875                    20846215.836
 106793239.555 8  83215594.727 8  20322052.742                    20322060.012
 11  8 14  2  2 30.0000000  0  8G04G30G29G25G02G10G12G05
 126501058.722 6  98572380.06443  24072336.367                    24072344.781
 112929892.751 8  87997356.35246  21489836.828                    21489844.848
 124686733.464 7  97158549.664 6  23727100.898                    23727109.773
 115019810.783 8  89625900.198 7  21887538.648                    21887548.172
 110967439.881 8  86468244.95646  21116374.430                    21116379.664
 116622814.515 7  90875038.25845  22192562.242                    22192569.445
 109572060.059 8  85380869.117 7  20850860.141                    20850866.648
 106775800.074 8  83202005.541 8  20318734.281                    20318741.297
 11  8 14  2  3  0.0000000  0  8G04G30G29G25G02G10G12G05
 126581855.484 6  98635338.61943  24087711.422                    24087720.258
 112913309.590 8  87984434.40745  21486680.844                    21486688.363
 124603866.571 7  97093978.131 6  23711331.828                    23711341.387
 114978058.184 8  89593365.734 7  21879593.398                    21879603.430
 110998711.997 8  86492612.85646  21122324.828                    21122330.727
 116706249.346 7  90940052.42145  22208439.156                    22208446.473
 109597068.519 8  85400356.235 7  20855619.164                    20855625.902
 106758938.002 8  83188866.293 8  20315525.313                    20315532.543
 11  8 14  2  3 30.0000000  0  8G04G30G29G25G02G10G12G05
 126662602.681 6  98698258.53143  24103077.219                    24103085.844
 112897337.931 8  87971988.94545  21483642.148                    21483649.469
 124520972.240 7  97029385.236 6  23695557.148                    23695566.016
 114936845.420 8  89561251.906 7  21871751.422                    21871760.875
 111030110.894 8  86517079.53146  21128299.695                    21128305.238
 116790064.272 7  91005362.75645  22224389.102                    22224396.086
 109622641.878 8  85420283.523 7  20860485.453                    20860492.508
 106742653.467 8  83176177.064 8  20312426.719                    20312433.820
 11  8 14  2  4  0.0000000  0  8G04G30G29G25G02G10G12G05
 126743299.893 7  98761139.52843  24118433.914                    24118441.898
 112881978.018 7  87960020.20045  21480718.227                    21480726.762
 124438051.598 7  96964771.826 6  23679778.242                    23679786.805
 114896173.891 8  89529559.827 7  21864011.438                    21864021.570
 111061635.707 8  86541644.34646  21134299.297                    21134304.129
 116874256.532 7  91070967.12844  22240409.750                    22240417.281
 109648778.913 8  85440650.043 7  20865459.211                    20865466.160
 106726946.724 8  83163938.072 8  20309437.828                    20309444.629
 11  8 14  2  4 30.0000000  0  8G04G30G29G25G02G10G12G05
 126823946.433 7  98823981.02043  24133779.719                    24133788.473
 112867230.238 7  87948528.40745  21477912.141                    21477919.617
 124355105.631 7  96900138.673 6  23663994.172                    23664001.859
 114856045.032 8  89498290.607 7  21856374.836                    21856384.797
 111093285.447 8  86566306.50446  21140321.867                    21140326.852
 116958823.242 7  91136863.27644  22256502.016                    22256509.875
 109675479.011 8  85461455.323 7  20870539.664                    20870546.848
 106711817.813 8  83152149.337 8  20306558.867                    20306565.719
 11  8 14  2  5  0.0000000  0  8G04G30G29G25G02G10G12G05
 126904541.926 7  98886782.71443  24149116.781                    24149125.020
 112853094.732 8  87937513.72545  21475222.219                    21475230.328
 124272136.032 7  96835487.097 6  23648205.852                    23648214.078
 114816460.176 8  89467445.276 7  21848842.602                    21848852.512
 111125059.690 8  86591065.67446  21146368.156                    21146373.176
 117043761.879 7  91203049.21544  22272665.492                    22272673.258
 109702740.880 8  85482698.337 7  20875727.523                    20875734.055
 106697266.837 8  83140810.943 8  20303789.492                    20303796.531
 11  8 14  2  5 30.0000000  0  8G04G30G29G25G02G10G12G05
 126985085.663 6  98949544.07243  24164443.461                    24164451.715
 112839571.581 8  87926976.21545  21472649.109                    21472656.590
 124189143.201 7  96770817.397 6  23632412.094                    23632420.625
 114777420.407 8  89437024.712 7  21841412.891                    21841422.957
 111156957.220 8  86615920.92046  21152437.898                    21152443.133
 117129069.336 7  91269522.55745  22288898.680                    22288907.090
 109730562.998 8  85504377.918 7  20881021.813                    20881029.383
 106683293.497 8  83129922.662 8  20301130.508                    20301137.547
 11  8 14  2  6  0.0000000  0  8G04G30G29G25G02G10G12G05
 127065577.438 6  99012264.96143  24179761.000                    24179768.914
 112826660.920 7  87916915.96045  21470192.195                    21470199.660
 124106128.333 7  96706130.527 6  23616615.164                    23616624.133
 114738926.987 8  89407029.845 7  21834088.039                    21834097.535
 111188977.443 8  86640871.75746  21158531.383                    21158536.848
 117214742.701 7  91336281.01845  22305202.672                    22305209.902
 109758944.395 8  85526493.297 7  20886422.883                    20886429.496
 106669898.034 8  83119484.662 8  20298581.500                    20298588.715
 11  8 14  2  6 30.0000000  0  8G04G30G29G25G02G10G12G05
 127146016.775 6  99074944.96343  24195067.570                    24195075.961
 112814362.958 8  87907333.13845  21467851.625                    21467859.742
 124023092.910 7  96641427.649 6  23600813.641                    23600823.406
 114700981.344 8  89377461.831 7  21826867.461                    21826877.148
 111221119.681 8  86665917.67846  21164647.828                    21164652.836
 117300779.036 7  91403322.32045  22321574.805                    22321582.125
 109787883.987 8  85549043.627 7  20891929.734                    20891937.109
 106657080.518 8  83109497.021 8  20296142.266                    20296149.391
 11  8 14  2  7  0.0000000  0  8G04G30G29G25G02G10G12G05
 127226403.381 6  99137583.84043  24210365.867                    24210373.273
 112802678.001 8  87898227.99945  21465628.078                    21465635.984
 123940038.088 7  96576709.649 6  23585009.219                    23585018.047
 114663584.845 8  89348321.722 7  21819751.055                    21819760.492
 111253383.398 8  86691058.26346  21170787.289                    21170792.469
 117387175.550 7  91470644.26345  22338015.148                    22338022.887
 109817380.695 8  85572028.084 7  20897542.914                    20897549.820
 106644840.614 8  83099959.467 8  20293813.180                    20293820.320
 11  8 14  2  7 30.0000000  0  8G04G30G29G25G02G10G12G05
 127306736.760 6  99200181.33343  24225651.781                    24225660.551
 112791606.093 7  87889600.55045  21463521.672                    21463529.359
 123856964.927 7  96511977.368 6  23569201.266                    23569209.895
 114626738.773 8  89319610.521 7  21812739.734                    21812749.141
 111285768.137 8  86716293.13646  21176950.125                    21176955.086
 117473929.426 7  91538244.68045  22354523.852                    22354531.430
 109847433.730 8  85595446.046 7  20903262.070                    20903268.504
 106633178.728 8  83090872.318 8  20291593.992                    20291601.039
 11  8 14  2  8  0.0000000  0  8G04G30G29G25G02G10G12G05
 127387016.587 6  99262737.04142  24240928.195                    24240936.324
 112781147.339 8  87881450.90945  21461531.203                    21461539.027
 123773874.814 7  96447231.869 6  23553389.375                    23553397.695
 114590444.248 8  89291329.097 7  21805832.813                    21805842.859
 111318272.898 8  86741621.54146  21183135.461                    21183140.473
 117561037.875 7  91606121.38345  22371100.313                    22371107.773
 109878041.253 8  85619296.063 7  20909086.508                    20909093.207
 106622094.665 8  83082235.422 8  20289484.695                    20289491.664
 11  8 14  2  8 30.0000000  0  8G04G30G29G25G02G10G12G05
 127467242.151 6  99325250.44543  24256194.023                    24256203.332
 112771301.394 7  87873778.77145  21459657.297                    21459665.027
 123690768.400 7  96382473.669 6  23537574.977                    23537583.270
 114554702.144 8  89263478.126 7  21799031.266                    21799041.121
 111350896.627 8  86767042.65546  21189343.781                    21189348.313
 117648497.836 7  91674271.98844  22387743.109                    22387750.547
 109909201.874 8  85643577.069 7  20915016.180                    20915022.824
 106611587.893 8  83074048.354 8  20287485.250                    20287492.434
 11  8 14  2  9  0.0000000  0  8G04G30G29G25G02G10G12G05
 127547413.049 6  99387721.28742  24271450.555                    24271458.949
 112762068.513 7  87866584.34945  21457900.320                    21457908.195
 123607647.268 7  96317704.011 6  23521757.016                    23521765.727
 114519513.903 8  89236058.744 7  21792335.289                    21792345.023
 111383638.881 8  86792556.11846  21195574.281                    21195579.359
 117736306.392 7  91742694.22644  22404452.680                    22404460.012
 109940914.957 8  85668288.560 7  20921050.648                    20921057.457
 106601658.593 8  83066311.269 8  20285595.969                    20285603.023
 11  8 14  2  9 30.0000000  0  8G04G30G29G25G02G10G12G05
 127627529.322 6  99450149.55042  24286696.344                    24286704.508
 112753448.651 8  87859867.60645  21456260.055                    21456268.180
 123524512.586 7  96252923.791 6  23505937.289                    23505945.746
 114484880.782 8  89209071.912 7  21785744.805                    21785754.570
 111416499.377 8  86818161.71746  21201827.172                    21201832.094
 117824460.805 7  91811385.94944  22421227.922                    22421235.086
 109973178.870 8  85693429.281 7  20927190.125                    20927197.039
 106592306.737 8  83059024.148 8  20283816.141                    20283823.207
 11  8 14  2 10  0.0000000  0  9G04G30G29G26G25G02G10G12G05
 127707590.357 6  99512534.81142  24301931.156                    24301939.953
 112745441.930 8  87853628.63545  21454736.305                    21454744.422
 123441365.632 7  96188134.023 6  23490114.453                    23490123.098
 130469930.68116                  24827609.883
 114450803.825 8  89182518.469 7  21779260.352                    21779269.480
 111449477.183 8  86843858.72846  21208102.852                    21208108.035
 117912958.278 7  91880344.99844  22438068.648                    22438075.500
 110005992.248 8  85718998.151 7  20933434.594                    20933441.355
 106583532.162 8  83052186.851 8  20282146.523                    20282153.379
 11  8 14  2 10 30.0000000  0  9G04G30G29G26G25G02G10G12G05
 127787596.146 6  99574877.01543  24317155.727                    24317164.219
 112738048.301 7  87847867.40145  21453329.289                    21453337.395
 123358207.918 7  96123335.883 6  23474290.391                    23474298.688
 130377035.310 6 101592556.03453  24809931.914                    24809940.961
 114417284.325 8  89156399.401 7  21772880.992                    21772890.699
 111482571.823 8  86869646.78546  21214400.352                    21214405.426
 118001796.156 7  91949569.32244  22454973.617                    22454981.012
 110039353.960 8  85744994.296 7  20939782.875                    20939790.047
 106575334.499 8  83045799.091 8  20280586.281                    20280593.602
 11  8 14  2 11  0.0000000  0  9G04G30G29G26G25G02G10G12G05
 127867546.699 6  99637176.17843  24332370.133                    24332378.316
 112731268.149 7  87842584.20645  21452038.992                    21452046.656
 123275041.074 7  96058530.607 6  23458463.578                    23458472.746
 130284010.179 6 101520068.93843  24792230.000                    24792238.922
 114384323.849 8  89130715.936 7  21766609.328                    21766618.941
 111515783.222 8  86895525.81646  21220720.414                    21220724.996
 118090972.077 7  92019057.02344  22471943.570                    22471950.727
 110073263.067 8  85771416.974 7  20946235.781                    20946242.789
 106567714.222 8  83039861.244 8  20279136.406                    20279143.578
 11  8 14  2 11 30.0000000  0  9G04G30G29G26G25G02G10G12G05
 127947440.836 6  99699431.35242  24347573.859                    24347581.695
 112725100.635 7  87837778.37646  21450865.406                    21450873.473
 123191865.557 7  95993718.582 6  23442636.422                    23442644.785
 130190857.530 6 101447482.51943  24774503.609                    24774512.379
 114351922.606 8  89105468.244 7  21760443.227                    21760453.160
 111549109.844 8  86921494.63246  21227062.500                    21227067.430
 118180482.001 7  92088804.99144  22488976.180                    22488983.883
 110107717.384 8  85798264.488 7  20952792.289                    20952798.859
 106560670.396 8  83034372.578 8  20277795.750                    20277803.148
 11  8 14  2 12  0.0000000  0  9G04G30G29G26G25G02G10G12G05
 128027278.266 6  99761642.38143  24362765.844                    24362773.168
 112719545.536 7  87833449.75445  21449808.578                    21449816.707
 123108682.618 6  95928900.817 6  23426806.141                    23426815.293
 130097580.080 6 101374798.93742  24756752.500                    24756761.957
 114320081.767 8  89080657.231 7  21754384.281                    21754393.801
 111582551.101 8  86947552.78546  21233425.805                    21233430.500
 118270323.071 7  92158811.00944  22506072.797                    22506080.211
 110142715.699 8  85825535.910 7  20959452.367                    20959459.043
 106554202.492 8  83029332.684 8  20276565.070                    20276571.941
 11  8 14  2 12 30.0000000  0  9G04G30G29G26G25G02G10G12G05
 128107058.778 6  99823809.00343  24377947.414                    24377955.469
 112714602.643 8  87829598.18445  21448867.805                    21448875.605
 123025493.470 7  95864078.204 6  23410976.055                    23410985.160
 130004180.817 5 101302020.30942  24738980.102                    24738989.035
 114288802.225 8  89056283.588 7  21748432.078                    21748442.066
 111616106.522 8  86973699.88446  21239811.234                    21239816.262
 118360492.691 7  92229073.02644  22523231.625                    22523238.875
 110178256.570 8  85853230.091 7  20966215.328                    20966222.492
 106548310.255 8  83024741.355 8  20275444.023                    20275451.320
 11  8 14  2 13  0.0000000  0  9G04G30G29G26G25G02G10G12G05
 128186781.966 6  99885930.96043  24393118.086                    24393126.281
 112710271.820 7  87826223.53946  21448043.672                    21448051.656
 122942299.564 7  95799251.845 6  23395145.039                    23395153.543
 129910662.628 6 101229149.05942  24721183.969                    24721192.961
 114258085.064 8  89032348.179 7  21742586.773                    21742596.855
 111649775.084 8  86999935.15146  21246218.078                    21246222.758
 118450987.842 7  92299588.69244  22540452.203                    22540459.348
 110214338.662 8  85881346.017 7  20973081.805                    20973088.074
 106542993.619 8  83020598.548 8  20274431.961                    20274439.242
 11  8 14  2 13 30.0000000  0  9G04G30G29G26G25G02G10G12G05
 128266447.650 7  99948008.11343  24408278.523                    24408286.723
 112706552.851 7  87823325.67645  21447335.484                    21447343.508
 122859102.343 7  95734422.928 6  23379312.609                    23379321.777
 129817028.212 6 101156187.31542  24703365.797                    24703375.602
 114227931.319 8  89008851.777 7  21736848.570                    21736858.344
 111683556.618 8  87026258.44346  21252646.719                    21252651.445
 118541805.578 7  92370355.73744  22557733.828                    22557741.410
 110250960.563 8  85909882.562 7  20980050.633                    20980057.375
 106538252.099 8  83016903.884 8  20273529.828                    20273537.074
 11  8 14  2 14  0.0000000  0  9G04G30G29G26G25G02G10G12G05
 128346055.359 7 100010040.11843  24423426.586                    24423435.695
 112703445.489 7  87820904.37345  21446744.555                    21446752.355
 122775902.773 7  95669592.206 6  23363480.516                    23363489.117
 129723280.890 5 101083137.45042  24685526.563                    24685536.367
 114198341.805 8  88985795.048 7  21731217.914                    21731227.906
 111717450.687 8  87052669.41946  21259096.063                    21259101.090
 118632943.255 7  92441372.08744  22575076.734                    22575084.535
 110288120.150 8  85938838.082 7  20987121.734                    20987128.617
 106534085.459 8  83013657.183 8  20272737.031                    20272743.828
 11  8 14  2 14 30.0000000  0  9G04G30G29G26G25G02G10G12G05
 128425604.892 7 100072026.77443  24438565.266                    24438573.434
 112700949.288 7  87818959.30246  21446269.656                    21446276.902
 122692702.442 7  95604760.864 6  23347648.539                    23347656.664
 129629423.436 5 101010001.87142  24667665.086                    24667675.547
 114169317.497 8  88963178.743 7  21725694.875                    21725704.648
 111751456.290 8  87079167.31246  21265567.250                    21265572.332
 118724397.558 6  92512635.14744  22592480.102                    22592487.633
 110325816.386 8  85968211.779 7  20994295.094                    20994301.730
 106530493.087 8  83010857.956 8  20272053.273                    20272060.391
 11  8 14  2 15  0.0000000  0  9G04G30G29G26G25G02G10G12G05
 128505095.994 7 100133967.87343  24453691.305                    24453700.094
 112699063.998 7  87817490.26845  21445910.844                    21445918.355
 122609502.649 7  95539929.929 6  23331816.328                    23331824.195
 129535458.68615 100936782.68752  24649783.984                    24649793.980
 114140859.234 8  88941003.504 7  21720279.531                    21720288.816
 111785572.947 8  87105751.73546  21272059.414                    21272064.387
 118816165.827 7  92584142.85544  22609942.992                    22609950.375
 110364047.614 8  85998002.348 7  21001570.344                    21001576.879
 106527474.479 7  83008505.820 8  20271478.836                    20271485.637
 11  8 14  2 15 30.0000000  0  9G04G30G29G26G25G02G10G12G05
 128584528.291 6 100195863.18243  24468806.617                    24468815.855
 112697789.345 8  87816497.03846  21445668.359                    21445676.004
 122526304.618 6  95475100.382 6  23315983.438                    23315991.656
 129441389.646 6 100863482.23142  24631884.148                    24631892.707
 114112968.005 8  88919270.092 7  21714971.891                    21714981.074
 111819800.028 8  87132422.20646  21278572.406                    21278578.137
 118908245.254 7  92655893.03644  22627465.047                    22627472.496
 110402812.354 8  86028208.645 7  21008946.727                    21008953.699
 106525029.370 8  83006600.572 8  20271013.961                    20271020.645
 11  8 14  2 16  0.0000000  0  9G04G30G29G26G25G02G10G12G05
 128663901.692 6 100257712.61643  24483911.227                    24483920.305
 112697124.958 7  87815979.34546  21445542.094                    21445549.320
 122443109.859 7  95410273.375 6  23300151.867                    23300160.473
 129347219.385 6 100790102.92343  24613963.398                    24613973.277
 114085644.647 7  88897979.195 7  21709772.273                    21709782.078
 111854137.225 8  87159178.48746  21285106.766                    21285111.832
 119000633.128 7  92727883.56844  22645045.938                    22645053.227
 110442108.973 8  86058829.384 7  21016424.961                    21016431.641
 106523157.485 8  83005141.982 8  20270657.406                    20270664.625
 11  8 14  2 16 30.0000000  0  9G04G30G29G26G25G02G10G12G05
 128743215.709 6 100319515.77143  24499003.984                    24499012.980
 112697070.101 7  87815936.60646  21445531.727                    21445539.465
 122359919.513 7  95345449.855 6  23284321.969                    23284330.324
 129252950.630 6 100716646.83843  24596025.289                    24596034.406
 114058889.777 7  88877131.278 7  21704680.891                    21704690.512
 111888583.580 8  87186019.82246  21291661.891                    21291666.758
 119093325.917 6  92800111.70244  22662684.969                    22662692.156
 110481935.750 8  86089863.239 7  21024003.547                    21024010.363
 106521857.795 8  83004129.262 8  20270410.047                    20270417.070
 11  8 14  2 17  0.0000000  0  9G04G30G29G26G25G02G10G12G05
 128822470.071 6 100381272.44643  24514085.734                    24514094.367
 112697624.510 7  87816368.63146  21445637.164                    21445644.918
 122276734.926 7  95280630.791 6  23268492.188                    23268500.074
 129158586.404 6 100643116.33943  24578068.172                    24578077.027
 114032704.238 8  88856726.995 7  21699698.297                    21699707.680
 111923138.724 8  87212945.93146  21298237.344                    21298242.105
 119186320.985 7  92872575.37744  22680381.531                    22680388.504
 110522291.023 8  86121308.913 7  21031683.031                    21031689.984
 106521129.889 8  83003562.089 8  20270271.602                    20270278.059
 11  8 14  2 17 30.0000000  0  9G04G30G29G26G25G02G10G12G05
 128901664.635 6 100442982.47542  24529156.320                    24529165.309
 112698787.882 7  87817275.16846  21445858.469                    21445865.613
 122193557.711 7  95215817.494 6  23252663.109                    23252672.266
 129064129.768 6 100569513.83743  24560093.188                    24560102.246
 114007089.024 8  88836767.109 7  21694823.719                    21694833.500
 111957802.329 8  87239956.54746  21304833.711                    21304838.289
 119279615.736 6  92945272.56844  22698134.945                    22698142.051
 110563173.218 8  86153165.180 7  21039462.008                    21039469.379
 106520973.474 8  83003440.230 8  20270241.727                    20270248.543
 11  8 14  2 18  0.0000000  0  9G04G30G29G26G25G02G10G12G05
 128980799.172 6 100504645.82142  24544215.391                    24544223.988
 112700559.507 7  87818655.67546  21446195.742                    21446202.988
 122110389.152 7  95151010.968 6  23236837.445                    23236845.727
 128969583.763 6 100495841.69643  24542101.844                    24542110.949
 113982044.660 8  88817252.049 7  21690057.539                    21690067.590
 111992573.715 8  87267051.15446  21311450.398                    21311455.539
 119373207.045 6  93018200.84844  22715944.773                    22715952.496
 110604580.801 8  86185430.829 7  21047342.125                    21047348.973
 106521387.918 8  83003763.203 8  20270320.461                    20270327.453
 11  8 14  2 18 30.0000000  0  9G04G30G29G26G25G02G10G12G05
 129059873.542 5 100566262.16642  24559262.055                    24559271.125
 112702938.877 7  87820509.73945  21446648.484                    21446656.055
 122027230.706 7  95086212.314 6  23221012.656                    23221020.773
 128874951.156 6 100422102.08343  24524094.836                    24524103.008
 113957571.935 8  88798182.423 7  21685400.758                    21685410.340
 112027452.193 7  87294229.21346  21318087.383                    21318092.180
 119467092.069 6  93091357.98444  22733810.273                    22733818.324
 110646511.745 8  86218104.297 7  21055321.320                    21055328.441
 106522372.477 8  83004530.421 8  20270507.930                    20270514.770
 11  8 14  2 19  0.0000000  0  9G04G30G29G26G25G02G10G12G05
 129138887.209 6 100627831.26443  24574298.055                    24574306.164
 112705925.576 7  87822837.05146  21447216.836                    21447224.125
 121944083.840 6  95021422.693 6  23205189.875                    23205198.547
 128780235.122 6 100348297.44743  24506069.852                    24506078.965
 113933671.537 8  88779558.756 7  21680852.805                    21680862.867
 112062437.140 7  87321490.22946  21324744.930                    21324749.527
 119561267.988 6  93164741.79744  22751731.430                    22751739.262
 110688964.303 8  86251184.205 7  21063399.977                    21063406.852
 106523926.511 7  83005741.382 8  20270803.648                    20270810.578
 11  8 14  2 19 30.0000000  0  9G04G30G29G26G25G02G10G12G05
 129217840.221 6 100689353.12442  24589321.719                    24589330.832
 112709518.935 7  87825637.08146  21447900.391                    21447908.352
 121860949.860 7  94956643.117 6  23189370.563                    23189378.660
 128685438.800 6 100274430.24743  24488031.328                    24488039.773
 113910344.160 8  88761381.605 7  21676413.813                    21676423.301
 112097528.239 7  87348833.97046  21331422.344                    21331427.336
 119655731.992 6  93238350.09144  22769706.867                    22769715.277
 110731937.386 8  86284669.738 7  21071577.422                    21071584.109
 106526049.598 8  83007395.761 8  20271207.461                    20271214.293
 11  8 14  2 20  0.0000000  0  9G04G30G29G26G25G02G10G12G05
 129296732.384 6 100750827.58242  24604335.680                    24604343.645
 112713718.298 7  87828909.32346  21448699.688                    21448706.676
 121777830.085 6  94891874.585 6  23173552.539                    23173560.637
 128590565.177 6 100200502.82943  24469976.938                    24469986.074
 113887590.416 8  88743651.450 7  21672083.820                    21672093.629
 112132724.882 7  87376259.94446  21338120.297                    21338125.605
 119750480.811 6  93312180.29844  22787737.430                    22787745.430
 110775428.654 8  86318559.033 7  21079853.320                    21079860.367
 106528740.922 8  83009492.926 8  20271719.727                    20271726.375
 11  8 14  2 20 30.0000000  0  9G04G30G29G26G25G02G10G12G05
 129375563.489 6 100812254.38642  24619335.414                    24619345.309
 112718523.164 7  87832653.39245  21449613.609                    21449621.570
 121694726.082 6  94827118.367 6  23157738.477                    23157746.602
 128495617.342 6 100126517.57243  24451908.508                    24451918.484
 113865411.112 8  88726368.896 7  21667863.094                    21667872.453
 112168026.890 8  87403768.01346  21344837.891                    21344842.539
 119845512.215 6  93386230.71944  22805821.328                    22805829.449
 110819436.344 8  86352850.738 7  21088228.063                    21088234.930
 106531999.846 8  83012032.377 8  20272339.633                    20272346.434
 11  8 14  2 21  0.0000000  0  9G04G30G29G26G25G02G10G12G05
 129454333.159 6 100873633.37943  24634324.727                    24634333.988
 112723932.782 8  87836868.69145  21450643.086                    21450651.094
 121611639.437 6  94762375.646 6  23141927.375                    23141935.578
 128400598.259 6 100052476.83443  24433827.461                    24433836.789
 113843806.654 8  88709534.274 7  21663751.625                    21663761.934
 112203433.591 8  87431357.66846  21351575.836                    21351580.301
 119940822.847 6  93460498.71944  22823958.656                    22823966.590
 110863958.900 8  86387543.644 7  21096700.391                    21096707.027
 106535825.569 8  83015013.481 8  20273067.805                    20273074.555
 11  8 14  2 21 30.0000000  0  9G04G30G29G26G25G02G10G12G05
 129533041.361 6 100934964.42443  24649303.430                    24649311.680
 112729946.362 8  87841554.61546  21451787.641                    21451795.250
 121528571.268 6  94697647.307 6  23126119.805                    23126128.500
 128305511.076 6  99978383.04343  24415732.180                    24415742.180
 113822777.526 8  88693147.969 7  21659750.336                    21659759.941
 112238944.167 8  87459028.26746  21358332.922                    21358337.684
 120036409.736 7  93534981.98044  22842148.336                    22842156.000
 110908994.097 8  86422636.016 7  21105270.086                    21105276.781
 106540217.256 8  83018435.607 8  20273903.508                    20273910.426
 11  8 14  2 22  0.0000000  0  9G04G30G29G26G25G02G10G12G05
 129611688.053 6 100996247.62642  24664268.664                    24664276.406
 112736563.476 7  87846710.82246  21453046.492                    21453054.445
 121445523.359 7  94632934.744 6  23110316.672                    23110324.691
 128210359.006 6  99904238.62742  24397624.750                    24397635.285
 113802324.614 8  88677210.665 7  21655858.242                    21655867.836
 112274558.615 8  87486779.79346  21365110.383                    21365115.184
 120132270.042 7  93609678.29844  22860390.109                    22860397.492
 110954540.604 8  86458126.808 7  21113937.234                    21113944.422
 106545174.569 8  83022298.475 8  20274846.555                    20274853.520
 11  8 14  2 22 30.0000000  0  8G30G29G26G25G02G10G12G05
 112743783.371 7  87852336.73846  21454420.398                    21454428.406
 121362497.433 7  94568239.310 6  23094517.094                    23094525.566
 128115145.201 6  99830046.18942  24379507.828                    24379516.227
 113782448.455 8  88661722.771 7  21652075.727                    21652085.563
 112310276.565 7  87514611.99246  21371907.055                    21371911.809
 120228401.163 7  93684585.65944  22878683.008                    22878690.941
 111000596.702 8  86494014.673 7  21122701.266                    21122708.105
 106550696.791 8  83026601.532 8  20275897.922                    20275904.281
 11  8 14  2 23  0.0000000  0  8G30G29G26G25G02G10G12G05
 112751605.107 7  87858431.61046  21455908.977                    21455916.840
 121279494.777 7  94503561.969 6  23078721.898                    23078730.406
 128019872.676 6  99755807.97142  24361376.953                    24361386.531
 113763149.410 8  88646684.568 7  21648403.172                    21648412.719
 112346097.207 7  87542524.18646  21378723.602                    21378728.621
 120324800.225 7  93759701.80744  22897027.117                    22897034.844
 111047160.189 8  86530297.908 7  21131562.164                    21131568.770
 106556782.866 8  83031343.956 8  20277055.984                    20277062.617
 11  8 14  2 23 30.0000000  0  8G30G29G26G25G02G10G12G05
 112760027.857 7  87864994.80546  21457511.938                    21457519.711
 121196516.515 7  94438903.629 7  23062932.086                    23062940.078
 127924544.455 6  99681526.32242  24343236.672                    24343245.316
 113744427.834 8  88632096.358 7  21644840.758                    21644850.480
 112382019.985 7  87570515.98246  21385559.461                    21385563.797
 120421464.125 7  93835024.30544  22915422.313                    22915429.133
 111094228.793 8  86566974.748 7  21140518.930                    21140526.078
 106563431.739 8  83036524.919 8  20278320.711                    20278328.152
 11  8 14  2 24  0.0000000  0  8G30G29G26G25G02G10G12G05
 112769050.668 7  87872025.57346  21459228.922                    21459236.289
 121113564.405 7  94374265.674 6  23047146.953                    23047154.766
 127829163.649 7  99607203.69943  24325087.039                    24325094.973
 113726284.168 8  88617958.455 7  21641387.727                    21641397.246
 112418044.609 8  87598587.14346  21392414.406                    21392418.988
 120518389.869 7  93910550.86444  22933865.859                    22933872.656
 111141800.742 8  86604043.805 7  21149571.375                    21149578.098
 106570642.630 7  83042143.823 8  20279692.867                    20279700.121
 11  8 14  2 24 30.0000000  0  8G30G29G26G25G02G10G12G05
 112778672.663 7  87879523.24146  21461059.664                    21461067.102
 121030639.886 7  94309649.165 6  23031366.664                    23031374.168
 127733733.297 7  99532842.46743  24306926.805                    24306935.301
 113708718.812 8  88604271.198 7  21638045.289                    21638054.914
 112454170.685 7  87626737.35246  21399288.883                    21399293.813
 120615574.650 6  93986279.24744  22952359.680                    22952366.914
 111189874.300 8  86641503.729 7  21158719.656                    21158726.672
 106578414.454 8  83048199.818 8  20281171.797                    20281178.633
 11  8 14  2 25  0.0000000  0  8G30G29G26G25G02G10G12G05
 112788893.087 7  87887487.21545  21463004.250                    21463011.734
 120947744.718 7  94245055.551 6  23015591.953                    23015600.391
 127638256.663 7  99458445.19543  24288758.047                    24288766.637
 113691732.197 8  88591034.898 7  21634812.891                    21634822.473
 112490397.765 8  87654966.26646  21406182.664                    21406187.391
 120713015.380 6  94062207.06444  22970902.172                    22970909.152
 111238447.307 8  86679352.816 7  21167963.188                    21167969.992
 106586746.685 8  83054692.487 8  20282757.742                    20282764.484
 11  8 14  2 25 30.0000000  0  8G30G29G26G25G02G10G12G05
 112799711.304 7  87895917.00046  21465063.219                    21465071.102
 120864880.645 7  94180486.162 6  22999823.914                    22999831.938
 127542737.351 7  99384014.67743  24270581.117                    24270590.176
 113675324.968 8  88578250.067 7  21631690.570                    21631700.289
 112526725.469 8  87683273.58446  21413095.664                    21413100.391
 120810709.771 6  94138332.54944  22989492.250                    22989499.910
 111287517.979 8  86717589.715 7  21177301.133                    21177307.699
 106595638.611 8  83061621.288 8  20284449.406                    20284456.328
 11  8 14  2 26  0.0000000  0  8G30G29G26G25G02G10G12G05
 112811126.259 7  87904811.78046  21467235.516                    21467243.066
 120782049.109 7  94115942.115 6  22984061.563                    22984069.469
 127447178.234 7  99309553.11343  24252397.375                    24252405.785
 113659497.458 8  88565916.957 7  21628678.750                    21628688.469
 112563153.499 8  87711659.09146  21420027.836                    21420032.793
 120908654.944 6  94214653.43144  23008130.875                    23008137.859
 111337084.633 8  86756213.086 7  21186732.844                    21186739.863
 106605088.930 7  83068985.203 8  20286248.031                    20286254.617
 11  8 14  2 26 30.0000000  0  8G30G29G26G25G02G10G12G05
 112823136.860 7  87914170.68946  21469520.867                    21469528.996
 120699251.404 7  94051424.444 6  22968305.414                    22968313.613
 127351582.197 6  99235062.79243  24234205.789                    24234214.012
 113644249.747 8  88554035.655 7  21625777.336                    21625786.949
 112599681.183 7  87740122.24246  21426978.383                    21426983.422
 121006847.920 6  94291167.40544  23026817.008                    23026824.219
 111387144.689 8  86795220.929 7  21196259.430                    21196266.059
 106615096.675 7  83076783.461 8  20288152.383                    20288159.418
 11  8 14  2 27  0.0000000  0  8G30G29G26G25G02G10G12G05
 112835741.896 7  87923992.80346  21471919.469                    21471927.297
 120616489.149 7  93986934.441 6  22952556.336                    22952564.777
 127255952.672 6  99160546.37743  24216007.852                    24216016.715
 113629582.012 8  88542606.267 7  21622986.078                    21622995.828
 112636308.014 8  87768662.66346  21433948.656                    21433953.766
 121105285.527 6  94367872.01844  23045548.617                    23045556.402
 111437696.117 8  86834611.657 7  21205878.719                    21205885.227
 106625661.164 8  83085015.548 8  20290162.703                    20290169.766
 11  8 14  2 27 30.0000000  0  8G30G29G26G25G02G10G12G05
 112848940.357 7  87934277.32045  21474431.375                    21474438.586
 120533763.917 7  93922473.274 6  22936813.953                    22936822.445
 127160292.633 6  99086006.18943  24197803.836                    24197812.516
 113615494.513 8  88531629.008 7  21620305.148                    21620314.797
 112673033.912 8  87797280.27146  21440937.281                    21440942.195
 121203964.812 6  94444764.94944  23064327.086                    23064334.352
 111488736.884 8  86874383.692 7  21215591.492                    21215598.543
 106636780.907 7  83093680.300 8  20292279.047                    20292285.492
 11  8 14  2 28  0.0000000  0  8G30G29G26G25G02G10G12G05
 112862730.932 8  87945023.23246  21477055.867                    21477063.156
 120451077.108 7  93858042.060 6  22921079.508                    22921087.453
 127064605.221 6  99011444.67043  24179594.945                    24179604.191
 113601987.193 8  88521103.845 7  21617734.820                    21617744.566
 112709857.693 8  87825974.15746  21447944.688                    21447949.539
 121302882.811 7  94521843.90144  23083150.344                    23083157.852
 111540264.742 8  86914535.272 7  21225397.023                    21225403.867
 106648454.475 8  83102776.609 8  20294500.063                    20294506.871
 11  8 14  2 28 30.0000000  0  8G30G29G26G25G02G10G12G05
 112877113.004 8  87956230.03846  21479792.477                    21479799.660
 120368430.488 7  93793642.183 6  22905352.031                    22905360.012
 126968893.813 6  98936864.44943  24161381.492                    24161390.871
 113589060.707 8  88511031.268 7  21615275.117                    21615284.355
 112746779.593 8  87854744.49446  21454970.836                    21454975.516
 121402037.083 6  94599106.94344  23102018.805                    23102026.238
 111592277.753 8  86955064.895 7  21235294.555                    21235301.359
 106660681.438 8  83112304.135 8  20296827.141                    20296833.750
 11  8 14  2 29  0.0000000  0  8G30G29G26G25G02G10G12G05
 112892085.288 8  87967896.76546  21482641.328                    21482648.820
 120285825.800 7  93729274.972 6  22889633.297                    22889640.824
 126873161.585 6  98862267.99743  24143164.852                    24143173.066
 113576715.128 8  88501411.339 7  21612925.953                    21612935.344
 112783799.191 8  87883590.95746  21462015.188                    21462019.848
 121501424.477 7  94676551.68143  23120931.344                    23120939.273
 111644773.689 8  86995970.834 7  21245284.422                    21245291.117
 106673460.608 8  83122261.951 8  20299258.508                    20299265.246
 11  8 14  2 29 30.0000000  0  8G30G29G26G25G02G10G12G05
 112907646.779 7  87980022.59145  21485602.805                    21485610.117
 120203264.467 7  93664941.560 6  22873921.477                    22873929.656
 126777411.916 6  98787657.96843  24124944.195                    24124952.441
 113564950.679 8  88492244.247 7  21610687.258                    21610696.367
 112820916.137 8  87912513.27746  21469078.391                    21469083.348
 121601042.386 6  94754176.02343  23139887.508                    23139895.348
 111697750.661 8  87037251.591 7  21255365.367                    21255371.945
 106686791.013 8  83132649.301 8  20301795.359                    20301801.934
 11  8 14  2 30  0.0000000  0  8G30G29G26G25G02G10G12G05
 112923795.977 8  87992606.40445  21488675.805                    21488683.383
 120120748.173 7  93600643.251 6  22858219.758                    22858227.813
 126681647.915 6  98713036.75543  24106720.758                    24106729.180
 113553767.228 8  88483529.866 7  21608558.969                    21608568.578
 112858129.807 8  87941510.96146  21476159.781                    21476164.430
 121700887.613 6  94831977.48643  23158887.859                    23158895.301
 111751206.111 8  87078905.199 7  21265537.516                    21265544.379
 106700671.057 8  83143464.942 8  20304436.227                    20304442.996
 11  8 14  2 30 30.0000000  0  8G30G29G26G25G02G10G12G05
 112940532.013 7  88005647.48545  21491860.344                    21491867.824
 120038278.744 7  93536381.464 6  22842525.750                    22842533.793
 126585872.826 6  98638406.90443  24088494.625                    24088503.551
 113543165.121 8  88475268.481 7  21606541.313                    21606551.301
 112895440.252 8  87970584.05945  21483259.422                    21483264.340
 121800957.481 6  94909954.00243  23177930.539                    23177938.020
 111805138.031 8  87120930.077 7  21275800.523                    21275807.457
 106715099.961 8  83154708.263 8  20307182.406                    20307188.840
 11  8 14  2 31  0.0000000  0  8G30G29G26G25G02G10G12G05
 112957853.674 8  88019144.88845  21495156.766                    21495164.320
 119955857.408 7  93472157.162 6  22826841.094                    22826849.824
 126490090.183 6  98563771.17243  24070267.961                    24070276.379
 113533144.511 8  88467460.224 7  21604634.664                    21604643.805
 112932846.840 8  87999732.07145  21490377.930                    21490382.754
 121901249.628 7  94988103.73043  23197015.414                    23197023.059
 111859544.672 8  87163324.872 7  21286154.023                    21286160.520
 106730076.693 8  83166378.469 8  20310032.031                    20310038.797
 11  8 14  2 31 30.0000000  0  8G30G29G26G25G02G10G12G05
 112975759.691 7  88033097.64845  21498563.766                    21498571.168
 119873486.285 7  93407971.998 6  22811166.789                    22811174.953
 126394303.130 6  98489131.98943  24052040.930                    24052048.945
 113523705.374 8  88460105.044 7  21602838.484                    21602848.180
 112970349.268 8  88028954.76945  21497514.367                    21497519.484
 122001760.478 7  95066423.86144  23216142.063                    23216149.457
 111914423.512 8  87206087.603 7  21296597.039                    21296603.645
 106745599.814 8  83178474.431 8  20312985.961                    20312992.813
 11  8 14  2 32  0.0000000  0  8G30G29G26G25G02G10G12G05
 112994248.654 7  88047504.63845  21502082.711                    21502089.918
 119791166.795 7  93343827.057 6  22795501.797                    22795509.383
 126298514.987 6  98414491.97443  24033812.805                    24033821.004
 113514847.637 8  88453202.918 7  21601152.820                    21601162.355
 113007947.297 8  88058251.94046  21504668.930                    21504673.883
 122102487.435 7  95144912.41044  23235309.602                    23235317.438
 111969772.062 8  87249216.346 7  21307129.289                    21307136.316
 106761668.098 8  83190995.193 8  20316043.758                    20316050.727
 11  8 14  2 32 30.0000000  0  8G30G29G26G25G02G10G12G05
 113013319.253 7  88062364.86445  21505711.508                    21505719.254
 119708900.725 7  93279723.732 7  22779847.234                    22779854.688
 126202728.858 6  98339853.51143  24015584.734                    24015593.055
 113506571.272 8  88446753.806 7  21599577.531                    21599587.504
 113045640.418 8  88087623.22646  21511841.828                    21511846.469
 122203427.546 7  95223567.03044  23254518.367                    23254525.902
 112025588.066 8  87292709.337 7  21317750.859                    21317757.859
 106778280.236 8  83203939.741 8  20319205.125                    20319211.715
 11  8 14  2 33  0.0000000  0  8G30G29G26G25G02G10G12G05
 113032970.335 7  88077677.41045  21509450.977                    21509458.098
 119626689.718 7  93215663.333 7  22764203.023                    22764210.891
 126106948.321 6  98265219.42343  23997358.094                    23997366.512
 113498876.412 8  88440757.817 7  21598113.094                    21598123.047
 113083428.257 8  88117068.30346  21519032.320                    21519037.133
 122304578.242 7  95302385.74444  23273766.547                    23273774.652
 112081869.657 8  87336565.127 7  21328460.852                    21328467.168
 106795435.373 8  83217307.407 8  20322469.555                    20322476.324
 11  8 14  2 33 30.0000000  0  8G30G29G26G25G02G10G12G05
 113053200.467 7  88093441.17645  21513300.422                    21513308.238
 119544535.429 7  93151647.097 6  22748569.016                    22748576.707
 126011176.473 6  98190592.06443  23979133.375                    23979142.305
 113491762.874 8  88435214.827 7  21596759.914                    21596769.535
 113121310.870 8  88146587.23846  21526241.625                    21526246.582
 122405936.846 7  95381366.47044  23293054.969                    23293062.211
 112138614.378 8  87380781.794 7  21339258.609                    21339265.637
 106813131.877 8  83231096.918 8  20325837.086                    20325843.770
 11  8 14  2 34  0.0000000  0  8G30G29G26G25G02G10G12G05
 113074008.244 8  88109655.04345  21517260.430                    21517267.676
 119462439.471 7  93087676.302 6  22732946.758                    22732955.051
 125915416.686 6  98115974.14043  23960910.633                    23960919.426
 113485230.595 8  88430124.749 7  21595516.836                    21595526.555
 113159287.716 8  88176179.59446  21533468.570                    21533472.418
 122507500.333 6  95460506.81344  23312382.023                    23312389.355
 112195819.804 7  87425357.461 7  21350144.680                    21350151.410
 106831368.413 8  83245307.225 8  20329306.883                    20329313.813
 11  8 14  2 34 30.0000000  0  8G30G29G26G25G02G10G12G05
 113095392.329 7  88126317.98445  21521329.539                    21521336.191
 119380403.787 7  93023752.510 7  22717336.008                    22717343.875
 125819672.238 6  98041368.16543  23942691.766                    23942699.445
 113479279.543 8  88425487.596 7  21594384.695                    21594394.004
 113197358.624 8  88205845.24546  21540712.836                    21540717.441
 122609265.905 7  95539804.64644  23331747.125                    23331754.750
 112253483.855 7  87470290.485 7  21361117.977                    21361124.945
 106850143.782 8  83259937.408 8  20332879.836                    20332886.844
 11  8 14  2 35  0.0000000  0  8G30G29G26G25G02G10G12G05
 113117351.319 8  88143428.89945  21525508.016                    21525515.566
 119298430.212 7  92959877.092 7  22701737.070                    22701744.516
 125723946.537 6  97966776.79343  23924474.883                    23924484.066
 113473909.572 8  88421303.225 7  21593362.461                    21593371.605
 113235523.327 8  88235583.98145  21547975.391                    21547980.020
 122711230.868 7  95619257.84343  23351150.125                    23351158.117
 112311603.984 8  87515578.902 7  21372177.375                    21372184.664
 106869456.795 8  83274986.529 8  20336555.242                    20336562.035
 11  8 14  2 35 30.0000000  0  8G30G29G26G25G02G10G12G05
 113139883.724 7  88160986.64545  21529795.727                    21529802.883
 119216520.059 7  92896051.082 7  22686149.125                    22686158.016
 125628243.110 6  97892202.79743  23906263.375                    23906271.520
 113469120.502 8  88417571.508 7  21592451.344                    21592460.473
 113273781.245 8  88265395.35545  21555255.695                    21555259.848
 122813392.309 7  95698864.15343  23370590.164                    23370598.289
 112370178.198 8  87561221.151 7  21383323.797                    21383330.570
 106889305.895 8  83290453.385 8  20340332.445                    20340338.859
 11  8 14  2 36  0.0000000  0  8G30G29G26G25G02G10G12G05
 113162987.752 7  88178989.79246  21534192.531                    21534200.219
 119134675.233 7  92832275.992 6  22670574.875                    22670583.063
 125532564.953 6  97817648.46843  23888055.617                    23888065.477
 113464911.879 8  88414292.102 7  21591650.438                    21591660.117
 113312132.039 8  88295279.10545  21562553.398                    21562558.191
 122915747.467 7  95778621.39543  23390068.516                    23390075.461
 112429203.604 7  87607214.970 7  21394556.016                    21394562.793
 106909689.588 8  83306336.794 8  20344211.539                    20344217.805
 11  8 14  2 36 30.0000000  0  8G30G29G26G25G02G10G12G05
 113186662.617 8  88197437.76945  21538698.047                    21538704.723
 119052897.798 7  92768553.380 6  22655013.336                    22655020.566
 125436915.732 6  97743116.71843  23869855.414                    23869863.602
 113461284.079 8  88411465.276 7  21590959.789                    21590969.281
 113350576.080 8  88325235.49945  21569869.430                    21569873.371
 123018293.809 7  95858527.63343  23409581.945                    23409589.859
 112488678.179 8  87653558.797 7  21405874.000                    21405881.156
 106930606.926 8  83322636.047 8  20348191.805                    20348198.586
 11  8 14  2 37  0.0000000  0  8G30G29G26G25G02G10G12G05
 113210906.118 7  88216328.81245  21543310.883                    21543318.387
 118971189.000 7  92704884.252 7  22639464.250                    22639472.512
 125341298.669 6  97668609.99943  23851659.695                    23851668.211
 113458236.251 8  88409090.381 7  21590380.188                    21590389.066
 113389112.243 8  88355263.68445  21577202.117                    21577207.070
 123121028.191 7  95938580.40244  23429132.000                    23429139.512
 112548599.370 7  87700250.647 7  21417276.977                    21417283.168
 106952055.974 8  83339349.611 8  20352273.031                    20352280.063
 11  8 14  2 37 30.0000000  0  8G30G29G26G25G02G10G12G05
 113235717.017 7  88235661.99345  21548032.133                    21548039.574
 118889550.891 7  92641270.209 7  22623929.641                    22623936.879
 125245717.371 6  97594131.14244  23833470.852                    23833479.348
 113455768.377 7  88407167.396 7  21589910.547                    21589919.895
 113427740.964 8  88385363.99146  21584553.273                    21584557.789
 123223947.810 7  96018777.52443  23448716.648                    23448724.605
 112608964.781 7  87747288.634 7  21428763.844                    21428770.449
 106974035.569 8  83356476.580 8  20356455.984                    20356462.320
 11  8 14  2 38  0.0000000  0  8G30G29G26G25G02G10G12G05
 113261093.763 7  88255436.08945  21552861.172                    21552868.465
 118807985.208 7  92577712.553 7  22608407.406                    22608415.453
 125150175.017 6  97519682.66743  23815289.328                    23815298.457
 113453880.289 8  88405696.184 7  21589550.820                    21589560.309
 113466461.742 8  88415536.03045  21591921.656                    21591926.078
 123327050.032 7  96099116.90143  23468336.656                    23468344.578
 112669772.238 8  87794671.061 7  21440335.172                    21440341.930
 106996544.189 8  83374015.790 8  20360739.305                    20360745.922
 11  8 14  2 38 30.0000000  0  8G30G29G26G25G02G10G12G05
 113287034.624 7  88275649.76345  21557797.406                    21557804.938
 118726493.892 7  92514212.894 7  22592900.516                    22592908.668
 125054675.126 6  97445267.24743  23797117.055                    23797125.164
 113452571.508 8  88404676.389 7  21589302.063                    21589311.313
 113505274.252 8  88445779.55345  21599306.914                    21599311.684
 123430332.238 7  96179596.55643  23487990.836                    23487998.176
 112731018.988 7  87842395.802 7  21451989.531                    21451996.637
 107019580.528 8  83391966.198 8  20365122.867                    20365129.281
 11  8 14  2 39  0.0000000  0  8G30G29G26G25G02G10G12G05
 113313537.996 7  88296301.74645  21562841.195                    21562847.891
 118645078.700 7  92450772.520 6  22577407.758                    22577415.262
 124959221.107 7  97370887.55744  23778952.547                    23778961.008
 113451841.727 8  88404107.763 7  21589162.977                    21589172.797
 113544178.332 8  88476094.43045  21606710.133                    21606715.363
 123533791.805 7  96260214.36843  23507678.109                    23507686.172
 112792702.681 7  87890461.037 7  21463727.695                    21463734.586
 107043143.251 8  83410326.782 8  20369606.633                    20369612.844
 11  8 14  2 39 30.0000000  0  8G30G29G26G25G02G10G12G05
 113340602.538 7  88317391.01745  21567991.203                    21567998.578
 118563741.594 7  92387392.993 7  22561929.922                    22561937.328
 124863816.444 7  97296546.35344  23760797.414                    23760806.031
 113451690.781 8  88403990.171 7  21589134.414                    21589143.234
 113583174.136 8  88506480.78245  21614130.945                    21614135.832
 123637425.602 7  96340967.96843  23527399.078                    23527406.926
 112854821.254 7  87938865.127 7  21475548.594                    21475555.387
 107067230.755 8  83429096.288 8  20374190.359                    20374196.902
 11  8 14  2 40  0.0000000  0  8G30G29G26G25G02G10G12G05
 113368226.212 7  88338915.97045  21573247.766                    21573255.461
 118482484.077 7  92324075.485 7  22546466.813                    22546474.578
 124768464.429 7  97222246.14344  23742652.883                    23742661.176
 113452117.968 8  88404323.074 7  21589215.789                    21589224.719
 113622260.953 8  88536938.05645  21621569.109                    21621573.270
 123741230.898 7  96421855.18143  23547152.688                    23547160.141
 112917371.898 7  87987605.884 7  21487451.563                    21487458.379
 107091841.100 8  83448273.197 8  20378873.398                    20378879.813
 11  8 14  2 40 30.0000000  0  8G30G29G26G25G02G10G12G05
 113396407.059 7  88360875.08345  21578610.789                    21578618.129
 118401307.727 7  92260821.242 6  22531019.453                    22531026.988
 124673168.310 7  97147989.53444  23724517.961                    23724526.191
 113453122.603 8  88405105.942 7  21589406.695                    21589416.121
 113661438.559 8  88567466.06545  21629024.125                    21629029.156
 123845204.535 7  96502873.59243  23566937.711                    23566946.211
 112980351.223 7  88036680.685 7  21499436.422                    21499442.828
 107116972.237 8  83467855.922 8  20383655.828                    20383662.004
 11  8 14  2 41  0.0000000  0  9G15G30G29G26G25G02G10G12G05
 129432410.98216 100856493.46415  24630176.602
 113425144.300 7  88383267.74945  21584079.109                    21584086.641
 118320215.336 7  92197632.417 6  22515588.164                    22515595.449
 124577932.102 6  97073779.58143  23706395.250                    23706403.285
 113454705.114 8  88406339.077 7  21589707.844                    21589717.008
 113700707.336 8  88598065.12545  21636496.898                    21636501.508
 123949344.695 7  96584021.76343  23586755.461                    23586762.730
 113043758.209 7  88086088.731 7  21511502.266                    21511509.000
 107142624.301 8  83487844.556 8  20388537.125                    20388543.734
 11  8 14  2 41 30.0000000  0  9G15G30G29G26G25G02G10G12G05
 129338804.188 6 100783553.274 6  24612362.781                    24612372.574
 113454435.266 8  88406091.89345  21589652.789                    21589660.289
 118239207.959 7  92134509.845 7  22500173.078                    22500180.238
 124482758.802 6  96999618.61943  23688284.031                    23688292.363
 113456864.218 8  88408021.520 7  21590118.617                    21590128.180
 113740066.444 8  88628734.57145  21643986.352                    21643991.063
 124053647.986 7  96665297.04743  23606603.680                    23606611.000
 113107589.378 7  88135827.303 7  21523648.984                    21523655.863
 107168794.418 8  83508236.879 8  20393517.328                    20393523.645
 11  8 14  2 42  0.0000000  0  9G15G30G29G26G25G02G10G12G05
 129245070.039 6 100710513.840 6  24594526.305                    24594535.465
 113484278.407 7  88429346.29545  21595332.000                    21595339.617
 118158287.422 7  92071454.949 7  22484774.656                    22484781.691
 124387651.612 6  96925509.20843  23670186.023                    23670194.141
 113459599.475 8  88410152.902 7  21590638.805                    21590648.219
 113779515.655 8  88659474.22445  21651493.344                    21651498.063
 124158111.789 7  96746697.41243  23626482.000                    23626489.301
 113171842.460 7  88185894.645 7  21535875.711                    21535882.309
 107195480.990 8  83529031.625 8  20398595.242                    20398601.879
 11  8 14  2 42 30.0000000  0  9G15G30G29G26G25G02G10G12G05
 129151210.895 6 100637377.030 6  24576665.344                    24576674.711
 113514672.119 7  88453029.72045  21601115.477                    21601123.023
 118077455.830 7  92008469.383 7  22469392.219                    22469399.898
 124292614.446 6  96851454.37843  23652101.273                    23652109.766
 113462910.650 8  88412733.045 7  21591268.977                    21591278.270
 113819055.244 8  88690284.32145  21659017.570                    21659022.336
 124262733.716 7  96828221.00243  23646391.781                    23646397.902
 113236515.052 8  88236288.873 7  21548182.398                    21548189.238
 107222682.721 8  83550227.805 8  20403771.664                    20403778.090
 11  8 14  2 43  0.0000000  0  9G15G30G29G26G25G02G10G12G05
 129057228.996 6 100564144.566 6  24558780.648                    24558790.527
 113545614.474 7  88477140.65345  21607003.719                    21607011.332
 117996715.111 7  91945554.606 7  22454027.938                    22454035.645
 124197650.664 6  96777456.70643  23634029.883                    23634038.352
 113466797.059 8  88415761.431 7  21592008.414                    21592018.242
 113858684.747 8  88721164.46445  21666559.063                    21666563.602
 124367511.061 7  96909865.69743  23666329.914                    23666336.891
 113301604.086 7  88287007.604 7  21560568.523                    21560575.516
 107250398.049 8  83571824.185 8  20409045.664                    20409051.980
 11  8 14  2 43 30.0000000  0  9G15G30G29G26G25G02G10G12G05
 128963127.157 6 100490818.620 6  24540874.031                    24540882.930
 113577103.738 7  88501677.73945  21612996.055                    21613003.063
 117916067.065 7  91882712.072 7  22438681.148                    22438688.711
 124102763.917 6  96703519.05643  23615973.703                    23615981.258
 113471258.190 8  88419237.642 7  21592857.844                    21592867.145
 113898404.035 8  88752114.57745  21674117.266                    21674121.820
 124472440.917 7  96991629.24443  23686296.938                    23686304.387
 113367107.235 8  88338049.020 7  21573033.711                    21573040.320
 107278625.134 7  83593819.331 8  20414417.281                    20414423.836
 11  8 14  2 44  0.0000000  0  9G15G30G29G26G25G02G10G12G05
 128868907.909 6 100417401.183 6  24522944.148                    24522953.660
 113609138.116 7  88526639.60145  21619091.750                    21619099.156
 117835513.740 7  91819943.332 7  22423352.141                    22423359.027
 124007957.506 6  96629644.04143  23597931.969                    23597940.684
 113476293.498 8  88423161.271 7  21593815.695                    21593825.250
 113938213.226 8  88783134.74745  21681692.344                    21681697.082
 124577520.569 7  97073509.52543  23706292.992                    23706300.559
 113433022.585 8  88389411.634 7  21585577.148                    21585583.391
 107307362.490 8  83616212.093 8  20419885.773                    20419892.348
 11  8 14  2 44 30.0000000  0  9G15G30G29G26G25G02G10G12G05
 128774573.791 6 100343894.249 6  24504992.719                    24505002.613
 113641715.609 7  88552024.68045  21625291.242                    21625298.453
 117755057.008 7  91757249.843 7  22408041.656                    22408049.270
 123913235.118 6  96555834.47743  23579907.125                    23579914.953
 113481902.239 8  88427531.721 7  21594883.156                    21594892.570
 113978111.875 7  88814224.61245  21689284.797                    21689289.504
 124682747.457 6  97155504.51843  23726317.188                    23726324.938
 113499346.844 7  88441092.874 7  21598197.672                    21598204.895
 107336608.534 8  83639001.237 8  20425450.453                    20425457.203
 11  8 14  2 45  0.0000000  0  9G15G30G29G26G25G02G10G12G05
 128680126.869 7 100270299.433 6  24487020.570                    24487029.957
 113674834.082 7  88577831.28945  21631593.406                    21631601.082
 117674698.630 7  91694633.008 7  22392750.234                    22392757.059
 123818599.914 7  96482092.83944  23561898.906                    23561906.793
 113488083.604 8  88432348.387 7  21596059.031                    21596068.855
 114018099.741 7  88845384.00245  21696894.641                    21696899.113
 124788119.016 6  97237612.23143  23746367.859                    23746376.043
 113566077.326 7  88493090.653 7  21610896.063                    21610903.090
 107366361.093 8  83662185.067 8  20431112.977                    20431119.105
 11  8 14  2 45 30.0000000  0  9G15G30G29G26G25G02G10G12G05
 128585570.178 7 100196619.044 6  24469027.438                    24469035.734
 113708491.852 7  88604058.13445  21637997.961                    21638005.250
 117594440.425 7  91632094.220 7  22377477.688                    22377484.891
 123724055.637 7  96408422.06144  23543907.195                    23543915.547
 113494837.039 8  88437610.804 7  21597344.391                    21597353.648
 114058176.814 7  88876612.89145  21704521.219                    21704525.848
 124893632.329 6  97319830.36743  23766447.398                    23766455.164
 113633211.489 7  88545402.992 7  21623671.297                    21623678.434
 107396618.593 8  83685762.361 8  20436870.461                    20436876.898
 11  8 14  2 46  0.0000000  0  9G15G30G29G26G25G02G10G12G05
 128490906.479 7 100122855.272 6  24451012.977                    24451021.695
 113742687.166 7  88630703.82645  21644505.438                    21644512.363
 117514284.642 7  91569635.255 7  22362224.602                    22362232.105
 123629605.888 7  96334824.92144  23525933.727                    23525941.633
 113502162.038 8  88443318.610 7  21598738.461                    21598747.520
 114098343.192 7  88907911.39345  21712163.953                    21712169.266
 124999284.650 6  97402156.83443  23786551.836                    23786559.984
 113700747.101 7  88598028.146 7  21636522.898                    21636530.055
 107427379.728 7  83709732.098 8  20442724.195                    20442730.320
 11  8 14  2 46 30.0000000  0  9G15G30G29G26G25G02G10G12G05
 128396137.689 6 100049009.632 6  24432978.344                    24432987.852
 113777417.734 7  88657766.61745  21651114.047                    21651121.578
 117434232.831 7  91507257.290 7  22346990.961                    22346997.785
 123535254.098 7  96261304.13844  23507979.813                    23507987.406
 113510057.601 8  88449470.985 7  21600241.055                    21600250.309
 114138598.505 7  88939279.17345  21719824.156                    21719829.641
 125105073.367 6  97484589.55343  23806683.375                    23806690.898
 113768680.960 8  88650963.620 7  21649450.109                    21649456.719
 107458642.106 8  83734092.401 8  20448673.195                    20448679.512
 11  8 14  2 47  0.0000000  0  9G15G30G29G26G25G02G10G12G05
 128301266.811 6  99975084.445 6  24414925.852                    24414933.957
 113812681.741 7  88685245.06845  21657824.664                    21657832.027
 117354287.291 7  91444962.122 7  22331777.477                    22331784.867
 123441003.933 7  96187862.52044  23490044.844                    23490052.180
 113518523.108 8  88456067.485 7  21601851.633                    21601860.906
 114178942.659 7  88970716.19645  21727501.570                    21727506.352
 125210996.083 7  97567126.73343  23826839.984                    23826847.375
 113837010.670 7  88704207.556 7  21662453.031                    21662459.914
 107490404.470 8  83758842.317 8  20454717.438                    20454723.875
 11  8 14  2 47 30.0000000  0  9G15G30G29G26G25G02G10G12G05
 128206296.167 6  99901081.520 6  24396853.055                    24396861.508
 113848477.087 7  88713137.54945  21664636.375                    21664644.066
 117274449.922 7  91382751.238 7  22316585.219                    22316592.586
 123346858.762 7  96114502.71144  23472129.375                    23472136.539
 113527557.717 8  88463107.449 7  21603571.305                    21603580.313
 114219375.624 7  89002222.41945  21735195.906                    21735200.602
 125317050.140 7  97649766.25743  23847021.711                    23847028.477
 113905733.783 7  88757758.041 7  21675530.398                    21675537.438
 107522664.893 8  83783980.324 8  20460856.188                    20460862.703
 11  8 14  2 48  0.0000000  0  9G15G30G29G26G25G02G10G12G05
 128111228.571 6  99827003.010 6  24378762.453                    24378771.180
 113884801.711 7  88741442.45845  21671548.695                    21671555.844
 117194722.526 7  91320626.058 7  22301413.063                    22301420.230
 123252821.978 7  96041227.34544  23454234.359                    23454242.184
 113537160.526 8  88470590.151 7  21605398.172                    21605408.008
 114259897.186 8  89033797.65945  21742907.188                    21742911.871
 125423232.689 7  97732505.89643  23867227.547                    23867234.414
 113974847.201 7  88811612.655 7  21688682.219                    21688688.918
 107555421.437 8  83809504.918 8  20467089.539                    20467096.000
 11  8 14  2 48 30.0000000  0  9G15G30G29G26G25G02G10G12G05
 128016066.654 6  99752851.021 6  24360653.586                    24360661.809
 113921653.664 7  88770158.27545  21678561.516                    21678568.867
 117115107.142 7  91258588.162 7  22286262.648                    22286270.582
 123158897.404 7  95968039.42444  23436360.797                    23436369.215
 113547330.812 8  88478515.057 7  21607333.844                    21607343.090
 114300507.306 7  89065441.92845  21750634.508                    21750639.297
 125529541.234 7  97815343.71643  23887457.563                    23887464.703
 114044348.530 7  88865769.536 7  21701907.758                    21701915.148
 107588672.466 8  83835414.831 8  20473416.945                    20473423.695
 11  8 14  2 49  0.0000000  0  9G15G30G29G26G25G02G10G12G05
 127920812.959 6  99678627.521 6  24342526.461                    24342535.699
 113959030.723 7  88799283.26145  21685674.281                    21685681.586
 117035605.563 7  91196638.938 7  22271134.922                    22271141.465
 123065088.410 7  95894941.59843  23418509.914                    23418517.543
 113558067.534 8  88486881.343 7  21609377.164                    21609385.914
 114341205.569 7  89097154.85945  21758379.406                    21758383.695
 125635972.795 7  97898277.40643  23907710.305                    23907717.250
 114114234.671 7  88920226.279 7  21715206.789                    21715214.059
 107622415.730 8  83861708.300 8  20479837.875                    20479844.563
 11  8 14  2 49 30.0000000  0  9G15G30G29G26G25G02G10G12G05
 127825469.917 6  99604334.394 6  24324383.422                    24324391.875
 113996930.832 7  88828815.82345  21692886.250                    21692893.301
 116956220.364 7  91134780.388 7  22256027.852                    22256034.504
 122971398.832 7  95821936.79344  23400680.828                    23400688.910
 113569369.926 8  88495688.406 7  21611527.859                    21611537.254
 114381992.358 8  89128936.78145  21766140.836                    21766145.270
 125742525.321 7  97981305.33843  23927985.867                    23927993.789
 114184502.957 7  88974980.791 7  21728578.367                    21728585.008
 107656650.082 8  83888384.430 8  20486352.727                    20486358.957
 11  8 14  2 50  0.0000000  0  9G15G30G29G26G25G02G10G12G05
 127730040.200 6  99529973.695 6  24306223.328                    24306232.762
 114035351.819 7  88858754.25845  21700197.563                    21700205.129
 116876953.142 7  91073013.793 7  22240943.477                    22240951.434
 122877831.893 6  95749027.55844  23382875.508                    23382884.117
 113581236.998 8  88504935.488 7  21613785.969                    21613795.766
 114422867.397 8  89160787.46745  21773918.875                    21773923.582
 125849195.850 6  98064425.23643  23948285.336                    23948292.871
 114255150.973 8  89030031.193 7  21742022.172                    21742029.051
 107691372.991 8  83915441.259 8  20492960.203                    20492966.613
 11  8 14  2 50 30.0000000  0  9G15G30G29G26G25G02G10G12G05
 127634526.657 6  99455547.677 6  24288048.117                    24288056.758
 114074291.558 7  88889096.91045  21707607.617                    21707614.629
 116797805.597 7  91011340.457 7  22225882.516                    22225889.328
 122784391.265 7  95676216.73544  23365094.359                    23365102.711
 113593667.783 8  88514621.824 7  21616151.180                    21616160.355
 114463830.656 7  89192706.89145  21781713.938                    21781718.809
 125955981.737 6  98147635.01343  23968605.492                    23968612.684
 114326175.676 7  89085375.116 7  21755538.359                    21755544.785
 107726582.693 8  83942877.402 8  20499660.414                    20499666.617
 11  8 14  2 51  0.0000000  0  9G15G30G29G26G25G02G10G12G05
 127538932.010 7  99381058.474 6  24269857.000                    24269865.348
 114113747.976 7  88919842.18845  21715115.641                    21715123.199
 116718780.053 7  90949762.166 7  22210843.891                    22210851.258
 122691080.783 7  95603507.34144  23347338.555                    23347346.449
 113606661.449 8  88524746.766 7  21618623.836                    21618633.043
 114504882.361 7  89224695.23445  21789526.055                    21789530.305
 126062880.603 6  98230932.86542  23988948.063                    23988955.102
 114397574.410 7  89141010.497 7  21769124.297                    21769131.734
 107762277.531 8  83970691.578 8  20506452.922                    20506459.266
 11  8 14  2 51 30.0000000  0  9G15G30G29G26G25G02G10G12G05
 127443258.601 7  99306507.869 6  24251650.719                    24251659.234
 114153718.900 7  88950988.37645  21722721.906                    21722729.383
 116639878.742 7  90888280.682 7  22195829.828                    22195836.570
 122597903.763 7  95530901.93044  23329607.680                    23329615.078
 113620216.979 8  88535309.532 7  21621203.320                    21621212.414
 114546022.124 8  89256752.19545  21797354.555                    21797359.137
 126169889.959 6  98314316.77042  24009311.148                    24009317.711
 114469344.473 7  89196935.222 7  21782781.867                    21782788.844
 107798455.731 8  83998882.399 8  20513337.578                    20513343.664
 11  8 14  2 52  0.0000000  0  9G15G30G29G26G25G02G10G12G05
 127347509.026 6  99231897.938 6  24233430.094                    24233438.980
 114194202.152 7  88982533.76945  21730425.703                    21730432.863
 116561103.439 7  90826897.397 7  22180839.172                    22180846.762
 122504864.177 7  95458403.62344  23311902.547                    23311910.141
 113634333.354 8  88546309.298 7  21623890.078                    21623898.992
 114587249.857 7  89288877.69845  21805200.203                    21805204.836
 126277006.989 6  98397784.56043  24029694.617                    24029701.734
 114541483.270 7  89253147.282 7  21796509.570                    21796516.309
 107835114.944 8  84027448.038 8  20520313.055                    20520319.844
 11  8 14  2 52 30.0000000  0  9G15G30G29G26G25G02G10G12G05
 127251686.322 7  99157231.022 6  24215195.758                    24215204.172
 114235195.406 8  89014476.57645  21738225.945                    21738233.852
 116482456.305 7  90765613.978 7  22165873.109                    22165880.363
 122411965.126 7  95386014.83644  23294224.945                    23294231.902
 113649009.433 8  88557745.232 7  21626682.492                    21626692.020
 114628565.590 7  89321071.78845  21813061.961                    21813066.578
 126384229.204 6  98481334.33243  24050098.656                    24050105.477
 114613987.602 7  89309644.168 7  21810306.797                    21810313.582
 107872253.617 8  84056387.275 8  20527380.391                    20527386.719
 11  8 14  2 53  0.0000000  0  9G15G30G29G26G25G02G10G12G05
 127155792.912 7  99082508.975 6  24196947.023                    24196956.316
 114276696.182 7  89046814.84545  21746123.797                    21746131.223
 116403939.037 7  90704431.757 7  22150931.344                    22150938.242
 122319210.226 7  95313738.35244  23276573.742                    23276581.234
 113664243.937 8  88569616.291 7  21629581.531                    21629590.340
 114669968.828 7  89353334.06245  21820941.219                    21820945.961
 126491554.095 6  98564964.12243  24070521.563                    24070529.172
 114686854.557 7  89366423.606 7  21824172.797                    21824179.988
 107909869.297 8  84085698.204 8  20534538.852                    20534544.848
 11  8 14  2 53 30.0000000  0  9G15G30G29G26G25G02G10G12G05
 127059831.417 7  99007733.916 6  24178687.359                    24178695.238
 114318702.431 7  89079546.99845  21754117.328                    21754124.820
 116325554.083 7  90643352.628 7  22136015.070                    22136023.012
 122226603.350 7  95241577.20844  23258951.016                    23258958.902
 113680035.988 8  88581921.798 7  21632586.703                    21632596.215
 114711460.023 7  89385664.85645  21828836.852                    21828841.398
 126598979.052 6  98648671.86743  24090964.383                    24090971.816
 114760081.763 7  89423483.766 7  21838107.453                    21838114.352
 107947960.287 8  84115379.500 8  20541787.148                    20541793.234
 11  8 14  2 54  0.0000000  0  9G15G30G29G26G25G02G10G12G05
 126963804.757 6  98932908.069 6  24160413.156                    24160421.840
 114361212.020 7  89112671.36645  21762206.563                    21762213.887
 116247303.216 7  90582378.006 7  22121124.875                    22121132.469
 122134148.130 7  95169534.28044  23241357.648                    23241364.387
 113696384.545 8  88594660.957 7  21635697.719                    21635706.762
 114753039.315 7  89418064.31345  21836748.633                    21836753.563
 126706501.796 6  98732455.83043  24111424.867                    24111432.660
 114833666.601 7  89480822.610 7  21852110.570                    21852117.066
 107986524.810 7  84145429.791 8  20549125.906                    20549132.199
 11  8 14  2 54 30.0000000  0  9G15G30G29G26G25G02G10G12G05
 126867715.442 6  98858033.413 6  24142128.125                    24142136.598
 114404222.451 7  89146185.99645  21770391.406                    21770398.699
 116169188.730 7  90521509.642 7  22106259.797                    22106267.039
 122041847.907 7  95097612.08944  23223793.258                    23223800.809
 113713288.347 8  88607832.757 7  21638914.555                    21638923.391
 114794706.483 8  89450532.22645  21844678.000                    21844682.340
 126814119.415 6  98816313.73443  24131903.953                    24131911.441
 114907605.935 7  89538437.678 7  21866180.305                    21866187.574
 108025560.541 8  84175847.259 8  20556553.867                    20556560.617
 11  8 14  2 55  0.0000000  0  9G15G30G29G26G25G02G10G12G05
 126771566.380 6  98783112.211 6  24123831.258                    24123839.867
 114447731.339 7  89180089.02945  21778670.828                    21778678.207
 116091212.422 7  90460748.921 7  22091421.695                    22091428.637
 121949706.441 6  95025813.61344  23206258.898                    23206266.672
 113730746.146 8  88621436.255 7  21642236.625                    21642245.656
 114836461.435 7  89483068.56245  21852623.445                    21852628.480
 126921829.499 6  98900243.65043  24152400.453                    24152408.508
 114981896.684 7  89596326.580 7  21880317.203                    21880324.082
 108065065.548 8  84206630.390 8  20564071.563                    20564077.797
 11  8 14  2 55 30.0000000  0  9G15G30G29G26G25G02G10G12G05
 126675360.378 6  98708146.623 6  24105523.484                    24105532.273
 114491736.579 7  89214378.83445  21787044.648                    21787051.820
 116013376.611 7  90400097.695 7  22076609.766                    22076617.281
 121857727.470 7  94954141.75044  23188756.148                    23188763.902
 113748756.962 8  88635470.676 7  21645664.102                    21645672.797
 114878304.380 7  89515673.46545  21860585.961                    21860590.766
 127029629.683 6  98984243.80043  24172914.188                    24172921.816
 115056536.006 7  89654487.082 7  21894521.008                    21894528.086
 108105038.107 8  84237777.846 8  20571677.867                    20571683.973
 11  8 14  2 56  0.0000000  0  9G15G30G29G26G25G02G10G12G05
 126579099.862 6  98633138.593 6  24087205.773                    24087214.930
 114536235.543 7  89249053.35945  21795512.492                    21795520.105
 115935683.255 7  90339557.471 7  22061825.500                    22061832.438
 121765914.478 7  94882599.22544  23171284.773                    23171292.016
 113767319.328 8  88649934.872 7  21649196.078                    21649205.227
 114920234.911 8  89548346.59545  21868565.156                    21868569.777
 127137517.183 6  99068311.95343  24193444.023                    24193451.965
 115131521.137 7  89712917.052 7  21908789.961                    21908796.699
 108145475.750 8  84269287.705 8  20579373.156                    20579379.297
 11  8 14  2 56 30.0000000  0  9G15G30G29G26G25G02G10G12G05
 126482787.703 6  98558090.318 6  24068878.469                    24068886.926
 114581226.107 7  89284110.94545  21804073.938                    21804081.359
 115858134.520 7  90279129.919 7  22047068.289                    22047075.145
 121674271.209 7  94811188.95244  23153844.844                    23153852.801
 113786432.121 8  88664827.970 7  21652833.094                    21652842.020
 114962253.362 7  89581088.25145  21876560.922                    21876565.766
 127245489.767 5  99152446.42542  24213989.953                    24213998.578
 115206849.361 7  89771614.380 7  21923124.719                    21923131.578
 108186376.493 8  84301158.419 8  20587156.313                    20587162.504
 11  8 14  2 57  0.0000000  0  9G15G30G29G26G25G02G10G12G05
 126386426.762 6  98483003.997 6  24050541.531                    24050549.719
 114626705.766 8  89319549.66045  21812728.094                    21812735.578
 115780732.457 7  90218816.666 7  22032338.992                    22032346.668
 121582801.107 7  94739913.60444  23136438.914                    23136446.172
 113806094.053 8  88680148.970 7  21656574.688                    21656583.949
 115004359.656 7  89613898.35045  21884573.313                    21884578.113
 127353544.790 6  99236645.13142  24234552.352                    24234561.023
 115282517.792 7  89830576.796 7  21937524.180                    21937530.824
 108227738.502 8  84333388.567 8  20595027.031                    20595033.391
 11  8 14  2 57 30.0000000  0  9G15G30G29G26G25G02G10G12G05
 126290019.976 6  98407881.936 6  24032195.719                    24032203.734
 114672672.475 7  89355367.88345  21821475.484                    21821483.172
 115703479.364 7  90158619.502 7  22017638.445                    22017645.336
 121491508.346 7  94668776.44644  23119066.656                    23119074.121
 113826304.172 8  88695897.133 7  21660420.555                    21660430.109
 115046554.371 8  89646777.34345  21892602.586                    21892607.574
 127461680.156 5  99320906.44042  24255130.781                    24255138.258
 115358524.264 7  89889802.626 7  21951987.195                    21951993.887
 108269560.109 8  84365976.845 8  20602985.305                    20602991.602
 11  8 14  2 58  0.0000000  0  9G15G30G29G26G25G02G10G12G05
 126193569.683 6  98332725.999 6  24013841.406                    24013849.828
 114719123.286 7  89391563.33045  21830314.992                    21830322.004
 115626377.137 7  90098539.873 7  22002966.227                    22002973.156
 121400396.211 7  94597780.01044  23101728.742                    23101735.617
 113847060.753 8  88712071.107 7  21664370.453                    21664379.668
 115088836.884 8  89679724.75445  21900648.695                    21900653.621
 127569892.930 6  99405228.01442  24275722.773                    24275730.699
 115434864.980 7  89949288.900 7  21966514.203                    21966521.156
 108311838.570 8  84398921.110 8  20611031.000                    20611037.320
 11  8 14  2 58 30.0000000  0  9G15G30G29G26G25G02G10G12G05
 126097078.590 6  98257538.254 6  23995479.547                    23995487.648
 114766056.092 7  89428134.36245  21839245.484                    21839252.785
 115549428.378 7  90038579.841 7  21988323.258                    21988330.648
 121309468.502 7  94526927.28844  23084425.727                    23084433.039
 113868362.719 8  88728670.050 7  21668423.836                    21668433.477
 115131207.500 8  89712740.81145  21908711.953                    21908716.438
 127678181.267 6  99489608.58142  24296329.625                    24296337.176
 115511537.148 7  90009033.459 7  21981104.602                    21981111.324
 108354572.593 8  84432220.358 8  20619162.438                    20619169.020
 11  8 14  2 59  0.0000000  0  9G15G30G29G26G25G02G10G12G05
 126000549.891 6  98182321.198 6  23977111.375                    23977119.301
 114813468.035 7  89465078.73645  21848267.781                    21848275.199
 115472634.483 7  89978740.484 7  21973710.156                    21973716.941
 121218728.318 7  94456220.68744  23067158.148                    23067165.133
 113890208.302 8  88745692.596 7  21672581.039                    21672590.039
 115173665.932 8  89745825.30345  21916791.164                    21916796.164
 127786541.859 6  99574045.35042  24316949.742                    24316956.656
 115588537.765 8  90069033.959 7  21995757.383                    21995764.176
 108397759.023 8  84465872.126 8  20627381.000                    20627387.152
 11  8 14  2 59 30.0000000  0  9G15G30G29G26G25G02G10G12G05
 125903985.583 7  98107076.393 6  23958735.023                    23958743.207
 114861356.427 8  89502394.37545  21857380.852                    21857388.027
 115395997.570 7  89919023.443 7  21959126.352                    21959133.098
 121128179.333 7  94385663.09044  23049927.742                    23049934.727
 113912595.832 8  88763137.445 7  21676841.086                    21676850.398
 115216211.827 8  89778977.93945  21924887.320                    21924891.906
 127894972.390 6  99658536.66043  24337583.375                    24337590.305
 115665863.771 8  90129287.999 7  22010472.227                    22010478.438
 108441395.235 8  84499874.386 8  20635684.383                    20635690.613
 11  8 14  3  0  0.0000000  0  9G15G30G29G26G25G02G10G12G05
 125807389.135 7  98031806.535 6  23940353.547                    23940361.340
 114909719.195 7  89540079.66445  21866583.813                    21866591.434
 115319520.022 7  89859430.574 7  21944572.984                    21944580.375
 121037825.380 7  94315257.46244  23032733.602                    23032741.047
 113935524.448 8  88781003.906 7  21681204.289                    21681213.543
 115258845.961 8  89812199.33545  21933000.617                    21933005.219
 128003470.851 7  99743080.93543  24358230.727                    24358237.879
 115743512.553 7  90189793.561 7  22025248.430                    22025254.727
 108485480.198 8  84534226.314 8  20644073.523                    20644080.152
 11  8 14  3  0 30.0000000  0  9G15G30G29G26G25G02G10G12G05
 125710763.624 6  97956514.049 6  23921966.852                    23921974.281
 114958554.202 8  89578132.92845  21875876.977                    21875884.719
 115243204.451 7  89799963.932 7  21930050.727                    21930058.051
 120947670.883 7  94245007.26144  23015577.602                    23015584.805
 113958992.999 8  88799291.104 7  21685670.664                    21685679.723
 115301568.559 8  89845489.66945  21941130.664                    21941135.027
 128112034.759 6  99827676.16043  24378889.250                    24378896.586
 115821481.695 7  90250548.743 7  22040085.352                    22040091.969
 108530012.291 8  84568926.658 8  20652547.539                    20652554.414
 11  8 14  3  1  0.0000000  0 10G21G15G30G29G26G25G02G10G12G05
 132350862.20116                  25185537.586
 125614111.089 7  97881200.486 6  23903573.406                    23903581.781
 115007858.111 7  89616551.57445  21885259.250                    21885266.582
 115167052.222 8  89740624.572 7  21915559.477                    21915566.391
 120857718.448 7  94174914.51544  22998460.477                    22998467.559
 113982999.340 8  88817997.345 7  21690238.422                    21690247.918
 115344378.902 8  89878848.38145  21949277.156                    21949281.555
 128220661.540 6  99912320.42343  24399560.703                    24399567.539
 115899767.588 7  90311550.760 7  22054982.563                    22054989.043
 108574988.144 8  84603972.786 8  20661106.328                    20661112.754
 11  8 14  3  1 30.0000000  0 10G21G15G30G29G26G25G02G10G12G05
 132293727.014 6 103086072.95952  25174664.305                    25174672.984
 125517435.168 6  97805868.706 6  23885176.914                    23885185.020
 115057628.950 7  89655334.06745  21894729.883                    21894737.434
 115091066.395 7  89681414.856 7  21901100.266                    21901106.652
 120767972.412 7  94104982.60044  22981381.469                    22981389.766
 114007542.511 8  88837121.909 7  21694908.914                    21694918.250
 115387277.796 7  89912276.07845  21957440.422                    21957445.301
 128329348.745 6  99997011.73243  24420242.117                    24420250.453
 115978367.571 7  90372797.514 7  22069939.742                    22069946.195
 108620406.708 7  84639363.884 7  20669749.336                    20669755.848
 11  8 14  3  2  0.0000000  0 10G21G15G30G29G26G25G02G10G12G05
 132236604.401 6 103041561.96842  25163794.508                    25163802.656
 125420738.244 6  97730520.576 6  23866775.773                    23866783.969
 115107864.188 7  89694478.41345  21904289.773                    21904296.586
 115015248.756 7  89622336.205 7  21886672.266                    21886679.438
 120678436.483 7  94035214.40044  22964343.672                    22964351.473
 114032620.937 8  88856663.559 7  21699680.875                    21699690.504
 115430265.084 7  89945772.66345  21965620.891                    21965625.020
 128438094.294 6 100081748.54443  24440935.875                    24440944.168
 116057278.884 7  90434286.868 7  22084956.188                    22084962.625
 108666265.344 8  84675097.903 8  20678475.836                    20678482.410
 11  8 14  3  2 30.0000000  0 10G21G15G30G29G26G25G02G10G12G05
 132179493.709 6 102997060.19442  25152927.078                    25152935.590
 125324023.223 6  97655158.332 6  23848371.438                    23848379.445
 115158560.884 7  89733982.35245  21913936.648                    21913944.078
 114939601.286 7  89563390.162 7  21872277.086                    21872283.891
 120589114.021 7  93965612.54244  22947346.398                    22947354.211
 114058232.927 8  88876620.965 7  21704554.969                    21704564.344
 115473340.789 7  89979338.14845  21973817.484                    21973821.996
 128546895.768 6 100166528.86543  24461640.219                    24461648.219
 116136498.358 7  90496016.344 7  22100031.117                    22100037.535
 108712561.575 8  84711172.896 8  20687285.781                    20687292.355
 11  8 14  3  3  0.0000000  0 10G21G15G30G29G26G25G02G10G12G05
 132122394.329 6 102952567.25542  25142061.055                    25142069.371
 125227292.772 6  97579784.055 6  23829964.352                    23829972.242
 115209716.536 7  89773843.90445  21923671.516                    21923678.922
 114864126.344 7  89504578.552 7  21857914.359                    21857921.477
 120500008.751 7  93896179.91444  22930390.320                    22930397.582
 114084376.882 8  88896992.882 7  21709529.805                    21709539.074
 115516504.889 8  90012972.50745  21982031.797                    21982035.926
 128655750.431 6 100251350.66143  24482355.055                    24482362.703
 116216022.718 7  90557983.382 7  22115164.164                    22115170.727
 108759293.305 8  84747587.238 8  20696178.648                    20696184.723
 11  8 14  3  3 30.0000000  0 10G21G15G30G29G26G25G02G10G12G05
 132065305.988 6 102908083.06342  25131198.016                    25131206.023
 125130549.701 6  97504399.960 6  23811554.719                    23811562.602
 115261328.735 7  89814061.21245  21933492.750                    21933500.469
 114788826.084 7  89445903.047 7  21843585.578                    21843592.027
 120411124.428 7  93826919.46744  22913475.820                    22913483.488
 114111051.408 8  88917778.242 7  21714606.250                    21714615.066
 115559758.049 7  90046676.26145  21990262.422                    21990266.797
 128764656.137 6 100336212.18443  24503079.969                    24503087.316
 116295849.433 7  90620186.028 7  22130354.445                    22130361.309
 108806458.569 8  84784339.405 8  20705153.563                    20705160.250
 11  8 14  3  4  0.0000000  0 10G21G15G30G29G26G25G02G10G12G05
 132008227.965 6 102863606.80842  25120335.484                    25120344.379
 125033796.957 6  97429008.315 6  23793142.625                    23793151.117
 115313394.600 7  89854632.02845  21943400.688                    21943408.121
 114713702.357 7  89387365.103 7  21829289.766                    21829297.148
 120322464.575 7  93757833.92644  22896604.188                    22896611.512
 114138254.682 8  88938975.615 7  21719782.359                    21719791.855
 115603099.724 7  90080448.99345  21998509.938                    21998514.328
 128873610.497 6 100421111.65443  24523812.445                    24523820.652
 116375975.304 7  90682621.780 7  22145602.086                    22145608.012
 108854054.935 8  84821427.502 8  20714210.461                    20714217.383
 11  8 14  3  4 30.0000000  0 10G21G15G30G29G26G25G02G10G12G05
 131951159.405 6 102819137.90142  25109476.008                    25109484.609
 124937037.363 6  97353611.345 6  23774730.398                    23774738.000
 115365911.211 7  89895554.07245  21953394.438                    21953401.668
 114638757.458 7  89328966.517 7  21815028.453                    21815035.125
 120234032.793 7  93688926.07644  22879776.813                    22879783.836
 114165984.947 8  88960583.622 7  21725059.453                    21725068.563
 115646530.083 7  90114290.82045  22006774.695                    22006779.469
 128982611.321 6 100506047.32243  24544554.930                    24544562.582
 116456397.504 7  90745288.429 7  22160905.672                    22160911.961
 108902079.870 8  84858849.536 7  20723349.703                    20723356.270
 11  8 14  3  5  0.0000000  0 10G21G15G30G29G26G25G02G10G12G05
 131894100.118 6 102774676.27342  25098617.914                    25098626.898
 124840274.229 6  97278211.597 6  23756316.828                    23756324.195
 115418876.526 7  89936825.75045  21963473.156                    21963480.578
 114563994.178 8  89270709.431 7  21800801.492                    21800808.336
 120145833.041 7  93620199.05444  22862992.695                    22863000.113
 114194241.008 8  88982601.337 7  21730436.391                    21730445.375
 115690049.432 7  90148201.99845  22015056.078                    22015060.473
 129091656.224 6 100591017.40043  24565305.281                    24565313.102
 116537112.956 7  90808183.591 7  22176265.195                    22176271.484
 108950531.879 8  84896604.364 7  20732570.422                    20732576.508
 11  8 14  3  5 30.0000000  0 10G21G15G30G29G26G25G02G10G12G05
 131837049.569 6 102730221.43142  25087760.953                    25087770.465
 124743509.697 6  97202810.751 6  23737903.227                    23737910.641
 115472287.390 7  89978444.60845  21973636.883                    21973644.457
 114489414.032 7  89212595.074 7  21786609.000                    21786616.305
 120057868.784 7  93551655.50944  22846253.523                    22846260.496
 114223020.782 8  89005027.145 7  21735912.742                    21735922.027
 115733657.576 7  90182182.36945  22023354.391                    22023359.246
 129200742.777 6 100676019.85443  24586063.078                    24586071.777
 116618118.459 7  90871304.776 7  22191680.195                    22191686.980
 108999408.076 8  84934689.728 7  20741870.750                    20741877.320
 11  8 14  3  6  0.0000000  0  9G21G15G30G29G26G25G02G12G05
 131780007.555 6 102685773.23942  25076905.258                    25076915.172
 124646748.239 6  97127412.320 6  23719489.867                    23719497.715
 115526142.258 7  90020409.44345  21983885.719                    21983892.328
 114415020.507 8  89154626.147 7  21772452.477                    21772459.195
 119970144.693 7  93483299.10444  22829560.328                    22829567.043
 114252323.709 8  89027860.606 7  21741488.938                    21741498.387
 115777355.952 7  90216233.04945  22031670.109                    22031674.516
 116699412.160 7  90934650.517 7  22207149.977                    22207156.488
 109048707.725 8  84973105.041 8  20751252.125                    20751258.270
 11  8 14  3  6 30.0000000  0  9G21G15G30G29G26G25G02G12G05
 131722972.978 6 102641330.77142  25066053.266                    25066061.363
 124549991.413 6  97052017.498 6  23701077.648                    23701085.004
 115580437.433 7  90062717.38945  21994217.227                    21994224.402
 114340815.113 7  89096803.793 7  21758331.445                    21758338.711
 119882663.738 7  93415132.16944  22812913.203                    22812920.625
 114282147.104 8  89051099.626 7  21747164.203                    21747173.352
 115821143.522 7  90250353.22945  22040002.289                    22040006.914
 116780990.415 7  90998217.998 7  22222673.133                    22222680.199
 109098427.338 8  85011847.613 7  20760713.195                    20760719.773
 11  8 14  3  7  0.0000000  0  9G21G15G30G29G26G25G02G12G05
 131665945.339 6 102596893.80243  25055200.406                    25055209.109
 124453241.895 6  96976628.348 6  23682666.883                    23682674.219
 115635170.215 7  90105366.30445  22004632.680                    22004639.992
 114266799.793 8  89039129.563 7  21744246.789                    21744253.422
 119795429.191 7  93347157.21344  22796312.984                    22796320.059
 114312489.211 8  89074742.835 7  21752938.352                    21752947.398
 115865020.371 8  90284542.96845  22048351.906                    22048356.621
 116862849.860 7  91062004.581 7  22238250.766                    22238257.512
 109148564.386 8  85050915.459 7  20770254.102                    20770260.730
 11  8 14  3  7 30.0000000  0  9G21G15G30G29G26G25G02G12G05
 131608923.830 6 102552461.59942  25044349.648                    25044357.758
 124356502.845 6  96901247.361 6  23664258.227                    23664265.129
 115690337.694 7  90148353.94845  22015130.617                    22015137.891
 114192976.499 7  88981604.968 7  21730198.898                    21730205.691
 119708444.874 7  93279377.24044  22779760.383                    22779767.621
 114343348.110 8  89098788.724 7  21758810.227                    21758819.266
 115908986.667 7  90318802.42145  22056718.438                    22056723.324
 116944987.553 7  91126007.977 7  22253881.313                    22253887.992
 109199116.692 8  85090306.889 7  20779874.102                    20779880.414
 11  8 14  3  8  0.0000000  0  9G21G15G30G29G26G25G02G12G05
 131551907.841 6 102508033.61842  25033500.172                    25033508.066
 124259777.256 6  96825876.871 6  23645851.188                    23645858.688
 115745937.176 7  90191678.23245  22025711.047                    22025717.930
 114119347.624 8  88924231.872 7  21716187.492                    21716194.250
 119621714.299 7  93211795.01844  22763255.664                    22763263.441
 114374722.064 8  89123235.975 7  21764780.688                    21764789.898
 115953042.770 7  90353131.83745  22065101.617                    22065107.031
 117027400.090 7  91190225.551 7  22269563.477                    22269570.508
 109250082.063 8  85130020.175 8  20789572.234                    20789578.508
 11  8 14  3  8 30.0000000  0  9G21G15G30G29G26G25G02G12G05
 131494897.085 6 102463609.76043  25022651.078                    25022659.938
 124163068.064 6  96750519.152 6  23627448.570                    23627455.211
 115801966.081 7  90235337.12645  22036373.195                    22036380.164
 114045915.549 8  88867012.107 7  21702214.125                    21702220.734
 119535241.608 7  93144413.75344  22746800.352                    22746807.762
 114406609.524 8  89148083.351 7  21770848.531                    21770857.957
 115997188.664 7  90387531.21545  22073502.211                    22073507.195
 117110085.092 7  91254655.431 7  22285298.227                    22285304.938
 109301458.312 8  85170053.627 8  20799348.961                    20799355.086
 11  8 14  3  9  0.0000000  0  9G21G15G30G29G26G25G02G12G05
 131437890.926 6 102419189.49743  25011803.633                    25011811.434
 124066378.240 6  96675176.520 6  23609048.531                    23609055.973
 115858421.551 7  90279328.40545  22047116.094                    22047123.258
 113972682.728 8  88809947.626 7  21688277.992                    21688285.180
 119449030.124 7  93077236.01444  22730395.070                    22730402.387
 114439008.556 8  89173329.347 7  21777013.883                    21777023.285
 116041424.590 7  90422000.75845  22081920.078                    22081925.148
 117193039.352 7  91319295.131 7  22301083.953                    22301090.270
 109353243.203 8  85210405.506 7  20809203.383                    20809209.625
 11  8 14  3  9 30.0000000  0  9G21G15G30G29G26G25G02G12G05
 131380888.786 6 102374772.30143  25000955.578                    25000964.078
 123969710.445 7  96599851.053 6  23590653.891                    23590660.801
 115915300.620 7  90323649.77145  22057939.586                    22057946.738
 113899651.018 8  88753039.837 7  21674380.617                    21674387.328
 119363083.446 7  93010264.61744  22714039.664                    22714047.773
 114471917.095 8  89198972.374 7  21783276.406                    21783285.387
 116085750.452 7  90456540.38145  22090354.945                    22090359.707
 117276259.468 7  91384141.969 7  22316920.148                    22316926.367
 109405434.126 8  85251073.779 7  20819134.500                    20819141.039
 11  8 14  3 10  0.0000000  0  9G21G15G30G29G26G25G02G12G05
 131323890.110 6 102330357.84943  24990109.883                    24990117.578
 123873067.964 7  96524545.340 6  23572262.273                    23572269.973
 115972600.950 7  90368299.38345  22068843.352                    22068850.324
 113826823.163 8  88696290.917 7  21660521.477                    21660528.930
 119277405.913 7  92943502.96744  22697736.055                    22697743.668
 114505333.745 8  89225011.320 7  21789635.117                    21789644.695
 116130166.920 7  90491150.59245  22098807.281                    22098812.043
 117359742.977 7  91449194.045 7  22332806.023                    22332812.816
 109458029.220 8  85292056.976 8  20829143.445                    20829149.742
 11  8 14  3 10 30.0000000  0  9G21G15G30G29G26G25G02G12G05
 131266894.448 6 102285945.74643  24979263.992                    24979272.039
 123776453.686 7  96449261.591 6  23553877.016                    23553884.668
 116030319.357 7  90413274.78345  22079826.500                    22079834.309
 113754200.893 8  88639702.169 7  21646702.172                    21646708.855
 119192000.564 7  92876953.39144  22681483.750                    22681491.359
 114539256.346 8  89251444.530 7  21796090.273                    21796099.934
 116174673.690 7  90525831.17245  22107277.211                    22107281.789
 117443486.566 7  91514448.788 7  22348742.695                    22348748.918
 109511025.954 8  85333353.151 7  20839228.383                    20839234.453
 11  8 14  3 11  0.0000000  0  9G21G15G30G29G26G25G02G12G05
 131209901.360 6 102241535.65243  24968418.508                    24968426.172
 123679869.991 7  96374001.666 6  23535498.344                    23535505.316
 116088453.189 7  90458573.88045  22090889.383                    22090896.820
 113681786.906 8  88583275.733 7  21632922.219                    21632929.379
 119106871.321 7  92810618.95345  22665284.867                    22665291.520
 114573683.067 8  89278270.555 7  21802641.727                    21802650.883
 116219271.244 7  90560582.52045  22115763.570                    22115768.055
 117527487.363 7  91579903.954 7  22364727.352                    22364734.375
 109564421.890 8  85374960.395 7  20849389.266                    20849395.504
 11  8 14  3 11 30.0000000  0  9G21G15G30G29G26G25G02G12G05
 131152910.086 6 102197126.97743  24957572.609                    24957580.098
 123583320.269 7  96298768.233 6  23517124.938                    23517132.738
 116146999.515 7  90504194.41245  22102030.188                    22102037.867
 113609583.543 8  88527013.415 7  21619182.273                    21619189.938
 119022021.840 7  92744502.51744  22649137.477                    22649145.961
 114608611.939 8  89305487.864 7  21809288.086                    21809297.457
 116263959.536 7  90595404.55045  22124267.508                    22124271.777
 117611742.185 7  91645557.062 7  22380760.375                    22380767.395
 109618214.723 8  85416876.903 8  20859625.766                    20859631.934
 11  8 14  3 12  0.0000000  0  9G21G15G30G29G26G25G02G12G05
 131095920.081 6 102152719.29343  24946727.617                    24946736.066
 123486807.696 7  96223563.732 6  23498759.508                    23498766.938
 116205955.500 7  90550134.15145  22113249.359                    22113256.457
 113537592.749 8  88470916.734 7  21605482.930                    21605490.117
 118937455.766 7  92678606.91944  22633046.117                    22633053.547
 114644041.026 8  89333094.959 7  21816030.219                    21816039.602
 116308738.983 7  90630297.60645  22132788.320                    22132793.020
 117696248.103 7  91711405.834 7  22396841.570                    22396847.602
 109672402.089 8  85459100.834 7  20869936.781                    20869943.637
 11  8 14  3 12 30.0000000  0  9G21G15G30G29G26G25G02G12G05
 131038930.947 6 102108312.30043  24935882.234                    24935891.328
 123390335.055 7  96148390.339 6  23480401.305                    23480408.230
 116265318.332 7  90596390.91245  22124545.547                    22124553.094
 113465816.723 8  88414987.402 7  21591824.242                    21591830.828
 118853176.891 7  92612935.10445  22617007.734                    22617015.316
 114679968.407 8  89361090.335 7  21822867.383                    21822876.461
 116353609.839 7  90665261.89945  22141327.305                    22141331.836
 117781002.197 7  91777447.986 7  22412969.297                    22412975.793
 109726981.859 8  85501630.532 7  20880323.188                    20880329.613
 11  8 14  3 13  0.0000000  0  9G21G15G30G29G26G25G02G12G05
 130981941.908 6 102063905.36043  24925038.672                    24925046.332
 123293905.285 7  96073250.365 6  23462051.461                    23462058.336
 116325085.028 7  90642962.37245  22135918.469                    22135925.910
 113394257.962 8  88359227.362 7  21578207.188                    21578214.035
 118769188.770 7  92547489.85945  22601025.469                    22601033.141
 114716391.994 8  89389472.357 7  21829797.961                    21829807.445
 116398571.975 7  90700297.32045  22149883.102                    22149887.895
 117866001.141 7  91843680.915 7  22429144.234                    22429150.480
 109781951.516 8  85544464.041 8  20890783.609                    20890790.148
 11  8 14  3 13 30.0000000  0  9G21G15G30G29G26G25G02G12G05
 130924952.682 6 102019498.28243  24914193.406                    24914201.863
 123197521.565 7  95998146.245 6  23443710.172                    23443717.133
 116385252.911 7  90689846.43845  22147368.500                    22147375.617
 113322918.887 8  88303638.506 7  21564631.672                    21564638.949
 118685495.395 7  92482274.27145  22585099.164                    22585106.109
 114753310.006 8  89418239.650 7  21836823.609                    21836832.461
 116443626.038 7  90735404.36845  22158456.813                    22158461.270
 117951242.114 7  91910102.459 7  22445365.266                    22445371.648
 109837308.827 8  85587599.617 8  20901317.656                    20901324.258
 11  8 14  3 14  0.0000000  0  9G21G15G30G29G26G25G02G12G05
 130867962.478 6 101975090.41243  24903348.375                    24903356.652
 123101186.676 7  95923080.192 6  23425377.766                    23425385.633
 116445818.949 7  90737040.77445  22158894.070                    22158901.082
 113251801.597 8  88248222.462 7  21551098.500                    21551105.578
 118602100.021 7  92417290.88344  22569229.500                    22569236.184
 114790720.225 8  89447390.480 7  21843942.445                    21843951.656
 116488772.029 7  90770583.06145  22167048.203                    22167052.309
 118036722.044 7  91976710.195 7  22461631.391                    22461638.277
 109893051.340 8  85631035.344 7  20911925.195                    20911931.828
 11  8 14  3 14 30.0000000  0  9G21G15G30G29G26G25G02G12G05
 130810970.927 6 101930681.50743  24892503.289                    24892511.352
 123004903.500 6  95848054.424 6  23407055.891                    23407063.148
 116506780.176 7  90784543.03545  22170494.383                    22170501.652
 113180908.466 8  88192981.099 7  21537608.047                    21537614.449
 118519006.424 7  92352542.64344  22553416.984                    22553424.238
 114828620.607 8  89476923.246 7  21851154.672                    21851163.777
 116534009.892 7  90805833.33845  22175655.961                    22175661.027
 118122437.700 7  92043501.613 7  22477942.367                    22477949.270
 109949176.606 8  85674769.326 7  20922605.516                    20922612.180
 11  8 14  3 15  0.0000000  0  9G21G15G30G29G26G25G02G12G05
 130753977.482 6 101886271.14143  24881657.742                    24881665.977
 122908675.323 6  95773071.538 6  23388744.117                    23388751.723
 116568133.782 7  90832351.03645  22182169.695                    22182177.168
 113110242.014 8  88137916.343 7  21524160.484                    21524167.113
 118436218.350 7  92288032.48744  22537663.063                    22537669.813
 114867009.188 8  89506836.433 7  21858459.766                    21858469.488
 116579340.190 7  90841155.64145  22184282.617                    22184287.074
 118208386.234 7  92110474.501 7  22494297.992                    22494304.598
 110005682.361 8  85718799.794 7  20933358.180                    20933364.953
 11  8 14  3 15 30.0000000  0  9G21G15G30G29G26G25G02G12G05
 130696981.478 6 101841858.76543  24870812.258                    24870819.676
 122812504.777 7  95698133.522 6  23370443.742                    23370450.746
 116629876.589 7  90880462.33645  22193918.828                    22193925.953
 113039803.939 8  88083029.561 7  21510756.953                    21510763.918
 118353739.134 7  92223762.98844  22521967.891                    22521974.906
 114905883.604 8  89537128.197 7  21865857.656                    21865866.855
 116624763.005 7  90876550.03245  22192926.359                    22192930.508
 118294564.254 7  92177626.190 7  22510697.047                    22510703.957
 110062565.899 8  85763124.637 8  20944183.031                    20944189.156
 11  8 14  3 16  0.0000000  0  9G21G15G30G29G26G25G02G12G05
 130639982.569 6 101797444.15543  24859965.500                    24859972.785
 122716394.918 6  95623242.814 6  23352154.766                    23352161.289
 116692005.891 7  90928874.76545  22205741.508                    22205749.141
 112969596.933 8  88028322.827 7  21497396.867                    21497403.434
 118271573.033 7  92159737.47644  22506332.352                    22506339.398
 114945242.038 8  89567797.119 7  21873347.094                    21873356.297
 116670278.579 7  90912016.70845  22201587.508                    22201592.055
 118380969.225 7  92244954.738 7  22527139.531                    22527145.738
 110119825.139 8  85807742.238 8  20955078.766                    20955085.039
 11  8 14  3 16 30.0000000  0  9G21G15G30G29G26G25G02G12G05
 130582979.922 6 101753026.62643  24849118.203                    24849125.750
 122620348.990 6  95548401.925 6  23333877.344                    23333884.430
 116754518.621 7  90977585.99845  22217637.422                    22217644.371
 112899623.420 8  87973798.045 7  21484081.398                    21484088.422
 118189723.335 7  92095958.50344  22490756.875                    22490763.410
 114985082.276 8  89598841.455 7  21880928.422                    21880937.430
 116715887.123 7  90947555.82945  22210266.688                    22210271.332
 118467597.443 7  92312457.241 7  22543623.930                    22543631.156
 110177457.717 8  85852650.743 7  20966045.961                    20966052.496
 11  8 14  3 17  0.0000000  0  9G21G15G30G29G26G25G02G12G05
 130525973.303 6 101708605.95843  24838269.172                    24838277.973
 122524370.022 7  95473613.200 6  23315613.234                    23315620.066
 116817411.814 7  91026593.67445  22229605.625                    22229612.941
 112829885.362 8  87919456.727 7  21470810.352                    21470817.480
 118108193.600 7  92032428.87144  22475242.703                    22475249.250
 115025402.031 8  89630259.459 7  21888600.984                    21888610.055
 116761588.831 7  90983167.54245  22218963.602                    22218968.320
 118554445.870 7  92380131.344 7  22560150.938                    22560157.617
 110235460.945 8  85897848.069 7  20977083.891                    20977090.012
 11  8 14  3 17 30.0000000  0  9G21G15G30G29G26G25G02G12G05
 130468962.024 6 101664181.63743  24827421.227                    24827428.262
 122428460.991 7  95398878.958 6  23297362.297                    23297369.273
 116880682.676 7  91075895.64645  22241645.383                    22241653.055
 112760385.464 8  87865300.996 7  21457585.125                    21457591.883
 118026987.820 7  91969151.66544  22459788.680                    22459795.984
 115066199.454 8  89662049.654 7  21896364.242                    21896373.168
 116807384.084 8  91018852.15645  22227677.688                    22227682.207
 118641511.908 7  92447975.010 7  22576719.234                    22576725.879
 110293832.809 7  85943332.653 7  20988191.039                    20988197.688
 11  8 14  3 18  0.0000000  0  9G21G15G30G29G26G25G02G12G05
 130411945.953 6 101619753.67743  24816571.578                    24816578.859
 122332624.985 7  95324201.632 6  23279124.820                    23279132.125
 116944328.408 7  91125489.72445  22253756.891                    22253764.281
 112691126.217 8  87811332.783 7  21444405.234                    21444412.438
 117946109.569 7  91906129.68544  22444398.180                    22444405.754
 115107472.472 8  89694210.454 7  21904218.516                    21904227.758
 116853273.165 7  91054609.87145  22236410.469                    22236415.359
 118728792.807 7  92515986.104 7  22593328.289                    22593334.238
 110352571.146 8  85989102.796 7  20999369.188                    20999375.633
 11  8 14  3 18 30.0000000  0  9G21G15G30G29G26G25G02G12G05
 130354924.182 6 101575321.22143  24805719.531                    24805727.680
 122236864.807 7  95249583.372 6  23260902.586                    23260909.320
 117008345.614 7  91175373.26145  22265939.398                    22265946.098
 112622109.739 8  87757553.734 7  21431272.008                    21431278.445
 117865562.323 7  91843365.63544  22429070.789                    22429077.887
 115149218.536 8  89726739.851 7  21912162.477                    21912171.289
 116899256.127 7  91090440.75145  22245160.875                    22245165.328
 118816284.838 7  92584161.697 7  22609977.234                    22609983.438
 110411672.895 8  86035156.108 7  21010615.750                    21010621.980
 11  8 14  3 19  0.0000000  0  9G21G15G30G29G26G25G02G12G05
 130297896.217 6 101530883.99342  24794868.219                    24794875.465
 122141183.390 7  95175026.508 6  23242694.836                    23242701.652
 117072731.419 7  91225544.03945  22278191.289                    22278198.484
 112553338.050 8  87703965.431 7  21418184.914                    21418191.871
 117785349.807 7  91780862.39645  22413806.641                    22413813.992
 115191435.475 8  89759636.175 7  21920195.938                    21920205.191
 116945333.360 7  91126345.07345  22253928.641                    22253933.344
 118903985.053 7  92652499.521 7  22626665.367                    22626672.773
 110471135.846 8  86081490.881 7  21021931.180                    21021937.617
 11  8 14  3 19 30.0000000  0  9G21G15G30G29G26G25G02G12G05
 130240861.433 6 101486441.36943  24784015.078                    24784021.922
 122045584.081 7  95100533.614 6  23224502.641                    23224509.402
 117137482.585 7  91275999.47945  22290512.688                    22290519.605
 112484813.558 8  87650569.754 7  21405145.586                    21405151.820
 117705475.491 7  91718622.72045  22398607.367                    22398614.457
 115234120.984 8  89792897.608 7  21928318.844                    21928327.973
 116991504.989 7  91162322.96345  22262714.852                    22262719.195
 118991890.287 7  92720997.108 7  22643393.766                    22643400.469
 110530957.542 8  86128105.199 7  21033314.703                    21033321.078
 11  8 14  3 20  0.0000000  0  9G21G15G30G29G26G25G02G12G05
 130183819.484 6 101441993.26042  24773159.500                    24773166.754
 121950069.992 7  95026107.133 6  23206326.945                    23206334.301
 117202596.603 7  91326737.68745  22302903.750                    22302910.832
 112416538.991 8  87597368.823 7  21392153.063                    21392159.559
 117625943.576 7  91656649.83645  22383472.773                    22383479.824
 115277273.198 8  89826522.720 7  21936530.313                    21936540.023
 117037771.633 7  91198374.88845  22271519.359                    22271524.031
 119079997.857 7  92789652.364 7  22660160.172                    22660166.629
 110591135.997 8  86174997.509 7  21044766.086                    21044772.305
 11  8 14  3 20 30.0000000  0  9G21G15G30G29G26G25G02G12G05
 130126769.737 6 101397539.01242  24762302.922                    24762310.449
 121854643.551 7  94951748.943 6  23188168.094                    23188175.074
 117268069.615 7  91377755.62145  22315363.117                    22315370.297
 112348515.827 8  87544363.785 7  21379208.953                    21379215.605
 117546756.763 7  91594945.87245  22368403.555                    22368411.453
 115320889.077 7  89860509.124 7  21944830.477                    21944839.652
 117084133.036 7  91234500.64645  22280341.406                    22280345.949
 119168303.872 7  92858462.247 7  22676964.453                    22676971.059
 110651667.803 8  86222165.150 7  21056285.078                    21056291.469
 11  8 14  3 21  0.0000000  0  9G21G15G30G29G26G25G02G12G05
 130069711.878 6 101353078.46942  24751445.352                    24751452.590
 121759308.827 7  94877462.211 6  23170026.609                    23170033.438
 117333899.520 7  91429051.65445  22327889.836                    22327897.258
 112280747.454 8  87491557.284 7  21366312.797                    21366319.285
 117467919.292 7  91533514.10945  22353402.180                    22353409.168
 115364967.213 8  89894855.725 7  21953217.961                    21953227.266
 117130589.872 7  91270700.77645  22289181.875                    22289186.410
 119256806.237 7  92927425.126 7  22693805.438                    22693812.004
 110712551.514 8  86269607.008 7  21067870.828                    21067876.801
 11  8 14  3 21 30.0000000  0  9G21G15G30G29G26G25G02G12G05
 130012645.121 6 101308610.95842  24740584.891                    24740593.266
 121664067.993 7  94803248.649 6  23151902.469                    23151909.523
 117400082.697 7  91480622.96545  22340484.172                    22340491.551
 112213235.646 8  87438950.695 7  21353465.672                    21353472.461
 117389434.621 7  91472357.26745  22338466.898                    22338473.180
 115409504.823 8  89929560.359 7  21961693.344                    21961702.711
 117177142.300 7  91306975.39045  22298040.109                    22298045.090
 119345501.221 7  92996538.083 6  22710683.672                    22710690.531
 110773784.120 8  86317320.737 7  21079523.281                    21079529.516
 11  8 14  3 22  0.0000000  0  9G21G15G30G29G26G25G02G12G05
 129955569.168 6 101264136.24443  24729724.766                    24729731.395
 121568924.369 7  94729110.842 6  23133796.609                    23133804.277
 117466616.336 7  91532467.36745  22353145.055                    22353152.203
 112145983.038 8  87386546.103 7  21340668.117                    21340674.680
 117311306.467 7  91411478.20245  22323599.195                    22323606.215
 115454499.706 8  89964621.312 7  21970255.625                    21970264.867
 117223790.603 7  91343324.70845  22306917.352                    22306921.930
 119434385.913 7  93065798.879 7  22727598.164                    22727604.820
 110835363.363 8  86365304.562 7  21091241.086                    21091247.309
 11  8 14  3 22 30.0000000  0  9G21G15G30G29G26G25G02G12G05
 129898483.456 6 101219653.96243  24718861.609                    24718868.949
 121473881.077 7  94655051.203 6  23115710.781                    23115717.969
 117533497.365 7  91584582.46045  22365872.070                    22365879.348
 112078991.878 8  87334345.220 7  21327920.367                    21327926.855
 117233538.372 7  91350879.71445  22308800.188                    22308807.086
 115499949.523 8  90000036.760 7  21978904.461                    21978913.770
 117270535.186 7  91379749.06545  22315812.227                    22315816.789
 119523457.387 7  93135205.204 7  22744547.773                    22744554.602
 110897287.123 8  86413556.847 7  21103024.938                    21103030.977
 11  8 14  3 23  0.0000000  0  9G21G15G30G29G26G25G02G12G05
 129841387.504 6 101175163.72643  24707996.125                    24708003.781
 121378941.298 7  94581072.212 6  23097644.906                    23097651.605
 117600722.713 7  91636965.84945  22378664.766                    22378671.980
 112012264.475 8  87282349.873 7  21315222.164                    21315228.664
 117156133.869 7  91290564.55045  22294070.805                    22294077.840
 115545852.026 8  90035804.955 7  21987639.500                    21987648.258
 117317376.495 7  91416248.79445  22324726.477                    22324730.910
 119612712.638 7  93204754.740 7  22761532.141                    22761539.352
 110959552.720 8  86462075.501 7  21114873.500                    21114879.898
